Date StartTime U_cm/s V_cm/s W_cm/s Ustd_cm/s Vstd_cm/s Wstd_cm/s Uvar_(cm/s)^2 Vvar_(cm/s)^2 Wvar_(cm/s)^2 KE_(m/s)^2 TurbulentKE_(m/s)^2 HorizWindSpeed_cm/s FrictionSpeec_cm/s DragCoef SpeedOfSound_m/s SonicTemperature_C Pressure_mb 
01/20/2014  00:00:00      -61.875      -23.781      -13.632       20.009       26.371       14.860      400.363      695.436      220.807        0.295        0.066       66.288       13.170        0.039      332.221        0.743      867.287
01/20/2014  00:01:00      -84.926      -27.421      -18.255       17.587       18.007       13.602      309.317      324.237      185.009        0.456        0.041       89.244       13.142        0.022      332.167        0.653      867.283
01/20/2014  00:02:00      -77.253      -24.458      -18.782       17.671       18.538       14.155      312.258      343.669      200.354        0.389        0.043       81.032        4.171        0.003      332.147        0.622      867.266
01/20/2014  00:03:00      -79.969      -11.044       -9.878       19.898       25.574       14.753      395.930      654.054      217.665        0.394        0.063       80.727        9.736        0.015      332.119        0.575      867.252
01/20/2014  00:04:00     -110.582       -2.505      -23.770       21.416       16.959       11.136      458.663      287.623      124.003        0.683        0.044      110.611        5.221        0.002      332.213        0.729      867.238
01/20/2014  00:05:00     -100.519      -12.669      -17.548       21.683       22.590       15.733      470.131      510.321      247.522        0.590        0.061      101.314       14.447        0.020      332.098        0.541      867.233
01/20/2014  00:06:00     -121.340      -37.425      -17.705       25.287       26.524       15.568      639.423      703.496      242.375        0.901        0.079      126.980       15.379        0.015      332.010        0.395      867.226
01/20/2014  00:07:00      -87.915      -40.795      -13.148       27.780       27.262       19.499      771.756      743.202      380.211        0.573        0.095       96.919       19.881        0.042      331.928        0.260      867.230
01/20/2014  00:08:00      -84.279      -41.688      -14.604       37.024       26.852       21.384     1370.806      721.034      457.289        0.580        0.127       94.026       20.671        0.048      331.944        0.286      867.230
01/20/2014  00:09:00     -121.606      -38.325       -8.114       52.991       32.794       20.426     2808.043     1075.469      417.242        1.031        0.215      127.502       20.392        0.026      331.959        0.310      867.222
01/20/2014  00:10:00     -103.794      -30.595       -7.914       38.272       38.090       21.101     1464.730     1450.833      445.258        0.757        0.168      108.210       13.474        0.016      332.055        0.468      867.212
01/20/2014  00:11:00      -91.817      -28.689      -11.091       38.752       25.861       24.530     1501.689      668.779      601.737        0.607        0.139       96.194       14.001        0.021      332.017        0.407      867.208
01/20/2014  00:12:00      -98.410      -37.664       -1.921       59.397       40.629       20.139     3528.025     1650.692      405.583        0.834        0.279      105.372       24.532        0.054      332.037        0.439      867.211
01/20/2014  00:13:00     -100.934      -51.149       -3.648       25.878       31.937       19.517      669.647     1019.981      380.899        0.744        0.104      113.155        8.611        0.006      332.004        0.384      867.218
01/20/2014  00:14:00      -73.886      -26.336       -9.024       27.774       25.796       17.453      771.408      665.416      304.621        0.399        0.087       78.439        8.426        0.012      331.917        0.242      867.221
01/20/2014  00:15:00      -76.058      -34.103       -9.496       41.231       37.706       15.514     1699.987     1421.755      240.681        0.520        0.168       83.354       12.734        0.023      332.058        0.475      867.233
01/20/2014  00:16:00       -3.528      -23.334        5.000       40.285       22.255       15.433     1622.863      495.300      238.191        0.147        0.118       23.599       20.847        0.780      332.045        0.453      867.223
01/20/2014  00:17:00      -41.609        8.372       -5.108       22.425       22.806       18.624      502.871      520.095      346.844        0.160        0.068       42.442        8.847        0.043      332.065        0.485      867.216
01/20/2014  00:18:00      -71.876       19.997      -21.104       21.199       19.919       15.362      449.408      396.758      235.984        0.355        0.054       74.606       13.236        0.031      332.051        0.462      867.205
01/20/2014  00:19:00      -30.571      -10.374       -6.895       19.882       15.205        8.624      395.314      231.198       74.372        0.090        0.035       32.283       10.805        0.112      332.091        0.530      867.197
01/20/2014  00:20:00      -35.066      -17.413       -5.544        9.344       10.607        8.999       87.308      112.514       80.974        0.092        0.014       39.152        4.480        0.013      332.215        0.735      867.197
01/20/2014  00:21:00      -44.020       -7.514      -12.631       11.695        8.895        7.998      136.769       79.119       63.966        0.122        0.014       44.657        5.845        0.017      332.213        0.731      867.185
01/20/2014  00:22:00      -60.178       -7.756       -9.425        8.140       10.014        6.806       66.260      100.285       46.323        0.199        0.011       60.676        4.830        0.006      332.171        0.661      867.170
01/20/2014  00:23:00      -50.369      -12.948       -9.165       10.544        7.183        6.630      111.179       51.590       43.962        0.150        0.010       52.007        4.853        0.009      332.018        0.409      867.156
01/20/2014  00:24:00      -38.796      -11.409       -7.671       13.900       14.606        7.625      193.197      213.337       58.134        0.108        0.023       40.439        5.751        0.020      332.199        0.706      867.151
01/20/2014  00:25:00      -28.976      -22.635      -11.886       16.410       13.239        8.731      269.295      175.273       76.223        0.101        0.026       36.769        5.648        0.024      332.240        0.775      867.143
01/20/2014  00:26:00      -37.603      -30.081       -8.115       15.502        8.292        7.322      240.311       68.751       53.617        0.137        0.018       48.154        5.044        0.011      332.157        0.638      867.136
01/20/2014  00:27:00      -44.877      -27.683      -12.318       12.698       10.283        7.549      161.245      105.732       56.980        0.163        0.016       52.729        3.481        0.004      332.069        0.493      867.141
01/20/2014  00:28:00      -78.148      -18.992      -12.867       14.588       12.289        9.696      212.813      151.015       94.018        0.355        0.023       80.423        4.440        0.003      331.820        0.081      867.137
01/20/2014  00:29:00      -87.227      -15.954      -14.667        9.149       10.416        9.419       83.708      108.503       88.725        0.418        0.014       88.674        7.838        0.008      331.705       -0.106      867.143
01/20/2014  00:30:00      -79.450      -23.285      -17.692        7.055        7.655        7.633       49.776       58.593       58.270        0.367        0.008       82.792        3.559        0.002      331.690       -0.130      867.151
01/20/2014  00:31:00      -97.855      -19.817      -16.832       17.008       12.383       12.926      289.278      153.342      167.083        0.543        0.030       99.841        4.850        0.002      331.726       -0.072      867.149
01/20/2014  00:32:00      -95.051      -33.234      -13.577       13.646       13.601       10.600      186.219      184.980      112.369        0.540        0.024      100.693        6.284        0.004      331.750       -0.033      867.152
01/20/2014  00:33:00     -113.631      -29.743      -18.140       11.114       15.032       10.025      123.519      225.957      100.492        0.729        0.022      117.459        6.773        0.003      331.702       -0.111      867.156
01/20/2014  00:34:00     -116.654       -7.101      -16.572       15.551       16.387       13.383      241.820      268.522      179.098        0.731        0.034      116.870        9.408        0.006      331.747       -0.038      867.162
01/20/2014  00:35:00     -117.717       12.469      -16.495       22.571       14.686       11.011      509.434      215.674      121.253        0.757        0.042      118.375       10.055        0.007      331.942        0.282      867.155
01/20/2014  00:36:00     -117.136       -3.235      -21.638       17.941       16.344       12.304      321.863      267.118      151.378        0.747        0.037      117.181       11.225        0.009      331.993        0.367      867.144
01/20/2014  00:37:00     -104.940      -26.131      -19.177       21.476       21.461       19.475      461.210      460.569      379.277        0.668        0.065      108.145       12.236        0.013      331.711       -0.098      867.138
01/20/2014  00:38:00      -62.264      -39.641      -13.422       24.979       22.413       20.093      623.951      502.338      403.717        0.358        0.077       73.812       12.847        0.030      331.703       -0.112      867.137
01/20/2014  00:39:00     -106.278      -28.199      -16.088       14.873       20.573       14.273      221.199      423.262      203.726        0.660        0.042      109.955       12.154        0.012      331.731       -0.065      867.131
01/20/2014  00:40:00     -120.941      -26.443      -19.665       20.093       22.253       15.221      403.727      495.217      231.673        0.842        0.057      123.798       13.387        0.012      331.654       -0.190      867.139
01/20/2014  00:41:00     -106.443      -24.182      -22.050       18.107       23.519       14.062      327.863      553.130      197.727        0.674        0.054      109.155       14.208        0.017      331.663       -0.177      867.152
01/20/2014  00:42:00      -96.965      -19.463      -10.159       12.359       19.800       13.970      152.755      392.024      195.154        0.531        0.037       98.899        7.813        0.006      331.693       -0.127      867.139
01/20/2014  00:43:00      -77.363      -20.070       -9.308       13.374       15.431       11.881      178.870      238.115      141.166        0.352        0.028       79.924        6.542        0.007      331.756       -0.023      867.132
01/20/2014  00:44:00      -62.749      -15.702      -17.349       10.674       13.682       10.265      113.926      187.202      105.365        0.245        0.020       64.684        6.000        0.009      331.742       -0.044      867.130
01/20/2014  00:45:00      -58.514       -8.084      -13.278       10.743       17.492        9.700      115.407      305.978       94.081        0.209        0.026       59.070        6.345        0.012      331.744       -0.042      867.131
01/20/2014  00:46:00      -56.974        0.410      -13.540        7.669       13.567        6.241       58.811      184.061       38.946        0.186        0.014       56.975        1.602        0.001      331.965        0.322      867.128
01/20/2014  00:47:00      -77.597      -38.016      -17.830       12.570       16.550       11.216      157.998      273.889      125.810        0.417        0.028       86.409        6.049        0.005      331.678       -0.153      867.126
01/20/2014  00:48:00      -78.832      -41.937      -16.075       18.664       25.731       14.758      348.351      662.099      217.788        0.473        0.061       89.293        4.578        0.003      331.551       -0.362      867.127
01/20/2014  00:49:00     -109.943      -16.281      -14.602       19.993       21.056       10.612      399.730      443.345      112.619        0.676        0.048      111.142        6.083        0.003      331.476       -0.484      867.125
01/20/2014  00:50:00      -86.292      -15.117      -15.256       27.758       18.460       15.882      770.526      340.773      252.238        0.464        0.068       87.606       12.232        0.019      331.462       -0.506      867.133
01/20/2014  00:51:00     -122.565      -26.356      -18.974       17.708       16.099       10.932      313.576      259.178      119.519        0.838        0.035      125.367        8.531        0.005      331.431       -0.560      867.131
01/20/2014  00:52:00     -139.347      -18.397      -18.660       16.580       11.181       12.199      274.899      125.021      148.813        1.033        0.027      140.556        7.710        0.003      331.387       -0.630      867.129
01/20/2014  00:53:00     -137.152      -16.931      -21.490       11.545       12.401       10.291      133.276      153.776      105.904        0.998        0.020      138.193        5.050        0.001      331.385       -0.635      867.131
01/20/2014  00:54:00     -115.380      -17.048      -19.633       18.761       16.623       13.107      351.975      276.329      171.800        0.739        0.040      116.632        9.439        0.007      331.370       -0.658      867.130
01/20/2014  00:55:00     -101.059      -32.248       -6.969       29.302       26.230       17.714      858.592      688.005      313.800        0.658        0.093      106.079       20.655        0.038      331.398       -0.614      867.138
01/20/2014  00:56:00     -106.381      -38.414      -17.617       25.212       24.189       15.000      635.668      585.111      225.015        0.727        0.072      113.104       13.908        0.015      331.373       -0.655      867.155
01/20/2014  00:57:00      -85.560      -56.358      -11.394       32.908       29.496       19.705     1082.927      870.012      388.274        0.648        0.117      102.453       13.867        0.018      331.405       -0.602      867.163
01/20/2014  00:58:00     -117.978      -30.159      -15.698       21.297       25.066       15.481      453.558      628.327      239.668        0.820        0.066      121.772       13.942        0.013      331.390       -0.625      867.160
01/20/2014  00:59:00      -80.912      -21.326       -5.763       21.143       32.260       16.969      447.013     1040.703      287.940        0.440        0.089       83.676       16.502        0.039      331.403       -0.604      867.154
01/20/2014  01:00:00      -87.837       -5.662      -17.775       19.018       19.349       13.076      361.670      374.379      170.994        0.448        0.045       88.019       10.898        0.015      331.494       -0.454      867.157
01/20/2014  01:01:00      -91.294      -10.658      -18.952       14.391       14.966       11.976      207.099      223.993      143.422        0.469        0.029       91.914       10.638        0.013      331.515       -0.422      867.175
01/20/2014  01:02:00      -89.135      -38.663      -10.503       21.006       29.914       17.409      441.256      894.834      303.064        0.559        0.082       97.159        9.054        0.009      331.436       -0.550      867.188
01/20/2014  01:03:00      -93.482      -40.267      -21.584       22.759       24.421       21.182      517.990      596.363      448.675        0.619        0.078      101.785       14.185        0.019      331.404       -0.603      867.198
01/20/2014  01:04:00     -109.555      -19.556      -21.882       35.312       22.532       17.333     1246.935      507.669      300.433        0.746        0.103      111.287       17.846        0.026      331.356       -0.683      867.198
01/20/2014  01:05:00     -121.264      -18.499      -22.964       19.631       18.529       15.225      385.367      343.332      231.801        0.827        0.048      122.667        5.389        0.002      331.328       -0.726      867.204
01/20/2014  01:06:00     -150.943      -11.617      -24.557       17.171       15.171       15.348      294.852      230.163      235.559        1.214        0.038      151.390        7.896        0.003      331.333       -0.719      867.188
01/20/2014  01:07:00     -132.799      -29.653      -19.622       24.312       16.645       11.984      591.067      277.065      143.616        0.996        0.051      136.069       11.306        0.007      331.377       -0.647      867.177
01/20/2014  01:08:00     -111.450      -17.135      -13.385       29.481       25.023       15.519      869.151      626.153      240.828        0.731        0.087      112.760       13.852        0.015      331.495       -0.453      867.174
01/20/2014  01:09:00     -113.401       -8.442      -15.108       26.098       14.088       12.357      681.103      198.477      152.689        0.710        0.052      113.715       13.442        0.014      331.571       -0.328      867.175
01/20/2014  01:10:00     -114.645      -23.366      -11.682       21.158       13.754        9.872      447.668      189.169       97.448        0.728        0.037      117.002        5.743        0.002      331.648       -0.201      867.163
01/20/2014  01:11:00     -105.747      -24.875      -11.164       13.400       10.963        9.584      179.561      120.197       91.858        0.616        0.020      108.633        6.594        0.004      331.746       -0.039      867.153
01/20/2014  01:12:00     -112.147      -12.108      -17.314        8.190       10.211        8.040       67.072      104.261       64.645        0.663        0.012      112.798        3.169        0.001      331.816        0.076      867.160
01/20/2014  01:13:00     -116.979      -12.621      -14.071       13.107       12.820        9.373      171.796      164.350       87.858        0.723        0.021      117.658        5.076        0.002      331.803        0.054      867.160
01/20/2014  01:14:00     -125.339      -25.927      -15.740       18.113       11.761       12.100      328.086      138.322      146.420        0.862        0.031      127.993       11.534        0.008      331.670       -0.164      867.158
01/20/2014  01:15:00     -134.553      -12.047      -22.009       18.272       11.183       10.017      333.855      125.067      100.346        0.965        0.028      135.091        6.790        0.003      331.758       -0.019      867.163
01/20/2014  01:16:00     -112.572        0.212      -15.916       34.328       17.781       13.624     1178.382      316.166      185.615        0.730        0.084      112.572       15.356        0.019      331.779        0.014      867.163
01/20/2014  01:17:00      -98.373      -22.916      -18.496       26.196       24.461       15.244      686.211      598.349      232.385        0.603        0.076      101.007       13.940        0.019      331.634       -0.224      867.163
01/20/2014  01:18:00      -90.626      -32.073      -19.357       33.171       27.379       21.946     1100.309      749.618      481.628        0.597        0.117       96.134       17.831        0.034      331.488       -0.465      867.173
01/20/2014  01:19:00      -97.542      -66.510      -15.063       42.026       31.401       20.014     1766.151      986.030      400.561        0.866        0.158      118.059       15.375        0.017      331.399       -0.610      867.179
01/20/2014  01:20:00      -98.842      -43.227       -8.620       44.310       42.721       24.926     1963.368     1825.086      621.322        0.806        0.220      107.881       23.603        0.048      331.351       -0.689      867.178
01/20/2014  01:21:00      -61.424       12.794        0.758       56.037       42.327       25.799     3140.155     1791.592      665.608        0.477        0.280       62.742       25.165        0.161      331.424       -0.570      867.173
01/20/2014  01:22:00     -110.142       -3.658       -8.501       61.172       42.240       29.541     3742.016     1784.185      872.679        0.931        0.320      110.203       26.379        0.057      331.535       -0.388      867.169
01/20/2014  01:23:00     -109.881        8.614      -12.189       50.434       37.463       27.874     2543.564     1403.474      776.980        0.851        0.236      110.218       20.945        0.036      331.551       -0.361      867.174
01/20/2014  01:24:00      -72.279      -10.520       -4.883       38.270       39.505       26.177     1464.593     1560.674      685.260        0.453        0.186       73.040       22.585        0.096      331.577       -0.318      867.181
01/20/2014  01:25:00      -73.026      -35.639       -1.241       40.695       44.411       26.002     1656.053     1972.300      676.087        0.545        0.215       81.259       17.844        0.048      331.596       -0.288      867.185
01/20/2014  01:26:00      -91.164      -21.710       -7.606       40.441       42.232       29.110     1635.462     1783.502      847.393        0.655        0.213       93.713       22.659        0.058      331.686       -0.137      867.190
01/20/2014  01:27:00      -79.850      -39.871       -9.564       38.034       30.094       18.948     1446.567      905.640      359.015        0.538        0.136       89.251        7.757        0.008      331.567       -0.335      867.182
01/20/2014  01:28:00     -103.830      -64.382       -5.083       33.585       28.621       20.877     1127.958      819.182      435.848        0.867        0.119      122.171       15.493        0.016      331.474       -0.489      867.188
01/20/2014  01:29:00     -116.996      -31.963       -7.739       49.093       38.210       25.767     2410.136     1460.042      663.950        0.965        0.227      121.284       17.973        0.022      331.513       -0.423      867.192
01/20/2014  01:30:00     -104.965      -11.747       -2.064       59.017       45.233       31.021     3483.052     2046.022      962.323        0.882        0.325      105.620       32.443        0.094      331.522       -0.408      867.186
01/20/2014  01:31:00     -125.535      -40.669      -14.523       39.699       32.066       21.102     1576.050     1028.258      445.277        1.034        0.152      131.958       11.434        0.008      331.423       -0.572      867.183
01/20/2014  01:32:00     -132.951      -51.608       -5.382       36.222       49.270       21.628     1312.061     2427.582      467.792        1.229        0.210      142.616       18.430        0.017      331.394       -0.618      867.187
01/20/2014  01:33:00     -114.079      -56.667       -7.968       34.545       25.559       15.833     1193.353      653.246      250.684        0.919        0.105      127.378        9.700        0.006      331.375       -0.650      867.204
01/20/2014  01:34:00     -110.023      -45.545        0.976       36.642       27.563       19.373     1342.664      759.693      375.323        0.833        0.124      119.077       18.217        0.023      331.480       -0.477      867.215
01/20/2014  01:35:00     -109.778      -45.460       -9.518       24.996       21.331       13.113      624.798      455.011      171.957        0.773        0.063      118.818       11.735        0.010      331.457       -0.515      867.228
01/20/2014  01:36:00      -70.948      -42.645       -0.917       32.865       20.756       14.639     1080.118      430.795      214.298        0.429        0.086       82.779       16.454        0.040      331.552       -0.360      867.237
01/20/2014  01:37:00      -37.540      -36.942       14.480       47.959       24.567       19.422     2300.037      603.548      377.209        0.313        0.164       52.668       26.818        0.259      331.624       -0.240      867.260
01/20/2014  01:38:00      -22.915      -37.522        2.703       23.577       21.697       15.779      555.860      470.762      248.969        0.161        0.064       43.966       15.577        0.126      331.617       -0.251      867.291
01/20/2014  01:39:00      -78.760      -45.519       -6.478       23.128       18.702       13.483      534.883      349.779      181.791        0.469        0.053       90.968       10.240        0.013      331.680       -0.148      867.302
01/20/2014  01:40:00      -93.979      -47.460       -8.063       27.101       22.389       17.658      734.446      501.278      311.797        0.635        0.077      105.283       12.881        0.015      331.781        0.018      867.311
01/20/2014  01:41:00     -102.276      -53.497      -13.547       25.075       33.240       17.502      628.761     1104.914      306.333        0.777        0.102      115.422       14.108        0.015      331.900        0.214      867.319
01/20/2014  01:42:00     -105.098      -60.352       -0.980       23.910       22.537       13.866      571.707      507.917      192.265        0.798        0.064      121.193        7.061        0.003      331.676       -0.154      867.329
01/20/2014  01:43:00     -114.529      -57.667        1.042       34.892       21.767       23.488     1217.435      473.785      551.690        0.934        0.112      128.228       20.566        0.026      331.630       -0.232      867.337
01/20/2014  01:44:00     -122.306      -43.671       -2.859       23.908       20.379       16.378      571.591      415.293      268.242        0.906        0.063      129.868       13.069        0.010      331.686       -0.138      867.341
01/20/2014  01:45:00      -97.575      -33.416       -2.225       30.335       20.334       14.510      920.216      413.470      210.537        0.609        0.077      103.138       14.617        0.020      331.670       -0.165      867.349
01/20/2014  01:46:00      -89.983      -20.079       -1.421       29.936       20.066       22.159      896.137      402.650      491.036        0.515        0.089       92.196       19.904        0.047      331.590       -0.296      867.352
01/20/2014  01:47:00     -111.081      -10.396       -3.779       33.983       18.050       15.285     1154.836      325.804      233.629        0.709        0.086      111.566       16.964        0.023      331.581       -0.312      867.355
01/20/2014  01:48:00      -69.667       -9.507        0.479       24.568       17.479       14.611      603.579      305.499      213.471        0.303        0.056       70.313       12.664        0.032      331.559       -0.349      867.368
01/20/2014  01:49:00      -66.741       -5.394        0.658       24.906       21.520       14.280      620.300      463.092      203.923        0.289        0.064       66.959       13.189        0.039      331.628       -0.234      867.376
01/20/2014  01:50:00      -63.851      -12.018       -2.926       22.430       20.223        9.765      503.093      408.980       95.348        0.262        0.050       64.972        7.774        0.014      331.778        0.013      867.393
01/20/2014  01:51:00      -15.488       -7.730        6.535       13.142       15.107       10.345      172.703      228.218      107.017        0.043        0.025       17.310       10.797        0.389      331.658       -0.185      867.414
01/20/2014  01:52:00      -17.319        2.640       -3.245       18.020       12.413        6.597      324.716      154.074       43.521        0.042        0.026       17.519        6.848        0.153      331.786        0.027      867.427
01/20/2014  01:53:00        3.231       11.536       13.181       14.173       16.408        8.774      200.864      269.218       76.977        0.043        0.027       11.980        5.393        0.203      331.832        0.101      867.446
01/20/2014  01:54:00      -60.860       22.385       -5.420       24.358       15.290       11.381      593.327      233.785      129.534        0.260        0.048       64.846        8.385        0.017      331.716       -0.090      867.452
01/20/2014  01:55:00      -51.620       -0.271       -4.318       11.515       13.374        8.642      132.590      178.867       74.686        0.153        0.019       51.621        3.030        0.003      331.627       -0.237      867.460
01/20/2014  01:56:00      -43.016      -10.346      -10.425       13.652       16.877       10.537      186.367      284.824      111.020        0.132        0.029       44.243        7.393        0.028      331.511       -0.425      867.471
01/20/2014  01:57:00      -16.439      -19.203        0.615       21.352       13.380       13.569      455.892      179.024      184.122        0.073        0.041       25.278       11.271        0.199      331.464       -0.505      867.483
01/20/2014  01:58:00      -53.062       -3.931       -4.273       34.373       25.125       15.516     1181.483      631.286      240.752        0.245        0.103       53.208       19.729        0.137      331.416       -0.584      867.498
01/20/2014  01:59:00      -63.921      -25.437      -10.395       18.007       15.972       12.093      324.247      255.092      146.230        0.278        0.036       68.796       11.590        0.028      331.329       -0.725      867.508
01/20/2014  02:00:00      -67.995       -3.084      -10.453       27.516       19.973       11.808      757.119      398.902      139.422        0.302        0.065       68.065       12.229        0.032      331.269       -0.824      867.515
01/20/2014  02:01:00      -96.306      -16.185      -18.732       14.071       13.348       10.608      197.989      178.170      112.523        0.519        0.024       97.656        5.629        0.003      331.188       -0.958      867.524
01/20/2014  02:02:00      -82.372       -8.890      -18.790        9.681        9.477        6.828       93.719       89.808       46.615        0.372        0.012       82.850        4.125        0.002      331.210       -0.921      867.541
01/20/2014  02:03:00      -57.013      -15.659       -9.384       10.551        9.969        8.241      111.316       99.377       67.910        0.193        0.014       59.125        4.137        0.005      331.257       -0.845      867.545
01/20/2014  02:04:00      -48.349      -14.938       -7.730       10.047       12.407        7.682      100.938      153.931       59.006        0.147        0.016       50.604        1.924        0.001      331.438       -0.548      867.553
01/20/2014  02:05:00      -38.398      -19.030       -7.703       10.824       16.434        6.595      117.155      270.073       43.491        0.116        0.022       42.855        7.778        0.033      331.506       -0.435      867.566
01/20/2014  02:06:00      -38.861       -1.149       -8.761       13.072       13.264        8.111      170.878      175.924       65.792        0.100        0.021       38.877        3.719        0.009      331.874        0.170      867.567
01/20/2014  02:07:00      -37.553      -12.034       -9.472       11.293       13.123        8.835      127.537      172.218       78.054        0.101        0.019       39.434        4.584        0.014      331.916        0.240      867.574
01/20/2014  02:08:00      -55.222      -38.107      -16.340       15.033       15.136       10.392      225.996      229.106      107.990        0.267        0.028       67.094        3.514        0.003      331.321       -0.739      867.576
01/20/2014  02:09:00      -28.273      -34.064      -15.395       12.409       11.951        9.944      153.980      142.822       98.890        0.130        0.020       44.269        6.701        0.023      331.604       -0.272      867.581
01/20/2014  02:10:00      -51.877      -32.571      -18.725       23.162       18.217       10.028      536.465      331.869      100.551        0.254        0.048       61.255        5.778        0.009      331.365       -0.667      867.586
01/20/2014  02:11:00      -92.004      -13.810      -14.836       18.298       12.900        9.669      334.834      166.406       93.492        0.473        0.030       93.034        4.285        0.002      331.071       -1.151      867.587
01/20/2014  02:12:00     -112.540      -15.609      -17.811       15.254        9.343       12.252      232.685       87.291      150.116        0.685        0.024      113.617        6.139        0.003      331.099       -1.105      867.602
01/20/2014  02:13:00     -119.229      -26.113      -15.693       13.927       11.761        8.928      193.973      138.328       79.702        0.778        0.021      122.055        8.567        0.005      331.076       -1.143      867.616
01/20/2014  02:14:00     -127.912      -28.491      -21.124       10.926       12.881        9.383      119.375      165.927       88.039        0.900        0.019      131.046        4.340        0.001      331.097       -1.109      867.632
01/20/2014  02:15:00      -99.736      -12.505      -10.421       14.328       13.295       10.604      205.299      176.766      112.443        0.535        0.025      100.517        6.829        0.005      331.177       -0.975      867.649
01/20/2014  02:16:00     -104.795      -11.609      -14.736       14.970       12.546        9.893      224.109      157.403       97.873        0.591        0.024      105.436        4.527        0.002      331.249       -0.858      867.674
01/20/2014  02:17:00     -126.734      -11.335      -18.812       11.870       11.043        9.062      140.893      121.956       82.120        0.844        0.017      127.240        4.553        0.001      331.292       -0.787      867.688
01/20/2014  02:18:00      -83.009       -7.169      -10.135       19.076       12.319       10.080      363.904      151.760      101.597        0.383        0.031       83.318        6.242        0.006      331.217       -0.910      867.704
01/20/2014  02:19:00      -64.311      -10.057       -9.687       16.535       20.241       16.086      273.403      409.685      258.752        0.264        0.047       65.092       13.858        0.045      331.134       -1.047      867.717
01/20/2014  02:20:00      -62.811        1.897      -10.282       19.773       20.637       14.714      390.987      425.874      216.510        0.254        0.052       62.840       13.770        0.048      331.113       -1.081      867.721
01/20/2014  02:21:00      -50.229       19.290       -5.759       10.708       11.420        8.948      114.660      130.426       80.059        0.163        0.016       53.805        4.578        0.007      331.430       -0.560      867.721
01/20/2014  02:22:00      -49.679       24.031       -6.738       15.979       10.191        9.308      255.343      103.866       86.635        0.177        0.022       55.186        4.217        0.006      331.556       -0.352      867.721
01/20/2014  02:23:00      -56.460      -29.886       -8.317       21.935       22.999       12.427      481.135      528.947      154.436        0.266        0.058       63.882       10.799        0.029      331.244       -0.868      867.733
01/20/2014  02:24:00      -75.351      -34.503       -7.259       20.335       22.472       12.185      413.505      504.988      148.478        0.399        0.053       82.875        9.528        0.013      331.028       -1.221      867.751
01/20/2014  02:25:00      -66.458       -5.734      -10.364       13.754        9.955       10.003      189.167       99.107      100.063        0.247        0.019       66.705        6.090        0.008      330.933       -1.376      867.758
01/20/2014  02:26:00      -80.235      -10.430      -12.674       13.645       11.699        7.945      186.197      136.872       63.121        0.355        0.019       80.910        6.933        0.007      330.922       -1.394      867.765
01/20/2014  02:27:00      -70.020      -14.072      -11.916        8.151        9.216        7.556       66.437       84.932       57.096        0.273        0.010       71.420        5.499        0.006      330.873       -1.476      867.777
01/20/2014  02:28:00      -71.889       -7.571      -11.212       11.047        9.340        8.502      122.045       87.228       72.277        0.282        0.014       72.286        7.305        0.010      330.925       -1.390      867.797
01/20/2014  02:29:00      -84.604        3.983      -14.701       16.916       14.749       12.268      286.159      217.530      150.509        0.402        0.033       84.697       10.244        0.015      330.928       -1.385      867.803
01/20/2014  02:30:00      -75.509       -1.043      -11.115       14.906       12.012       10.170      222.180      144.296      103.434        0.315        0.023       75.516        3.778        0.003      330.977       -1.304      867.800
01/20/2014  02:31:00     -101.657       -8.197      -14.170       14.085       13.766       12.096      198.393      189.499      146.307        0.557        0.027      101.987        6.585        0.004      330.889       -1.449      867.804
01/20/2014  02:32:00      -85.650        2.734      -14.729       20.947       12.818       11.832      438.786      164.296      139.992        0.415        0.037       85.693        8.591        0.010      330.846       -1.520      867.808
01/20/2014  02:33:00      -42.123        4.643      -10.037       11.838        9.362        7.662      140.143       87.639       58.710        0.109        0.014       42.378        7.241        0.029      331.399       -0.610      867.807
01/20/2014  02:34:00      -63.179      -24.278      -12.289       17.893       19.416       10.725      320.171      376.992      115.024        0.277        0.041       67.683        9.102        0.018      331.142       -1.034      867.817
01/20/2014  02:35:00      -89.618      -33.223      -22.030       16.815       19.192       12.911      282.735      368.315      166.705        0.522        0.041       95.578        7.336        0.006      330.855       -1.505      867.825
01/20/2014  02:36:00      -78.732       -1.858      -10.450       27.665       20.510       18.453      765.347      420.657      340.507        0.392        0.076       78.754       12.108        0.024      330.892       -1.444      867.831
01/20/2014  02:37:00     -100.094      -30.428       -7.192       21.820       23.442       15.504      476.118      549.550      240.374        0.613        0.063      104.617       10.406        0.010      330.860       -1.496      867.831
01/20/2014  02:38:00     -106.647      -13.765      -19.654       13.352       11.987        8.795      178.284      143.682       77.356        0.617        0.020      107.531        6.177        0.003      330.786       -1.619      867.828
01/20/2014  02:39:00      -85.811      -14.516      -10.188       20.323       18.378       13.384      413.042      337.747      179.120        0.430        0.046       87.030       12.746        0.021      330.883       -1.460      867.820
01/20/2014  02:40:00      -69.422      -46.152      -12.241       19.829       20.419       12.083      393.185      416.930      146.007        0.403        0.048       83.363        8.761        0.011      330.831       -1.545      867.816
01/20/2014  02:41:00      -68.534      -37.267      -13.909       22.864       22.329       15.562      522.761      498.603      242.167        0.377        0.063       78.011        9.777        0.016      330.843       -1.525      867.816
01/20/2014  02:42:00      -71.246      -14.614       -4.208       32.224       18.292       16.975     1038.355      334.604      288.138        0.348        0.083       72.729       15.105        0.043      330.804       -1.588      867.828
01/20/2014  02:43:00      -90.825        1.581      -13.398       30.342       27.162       16.460      920.667      737.788      270.932        0.518        0.096       90.839       13.117        0.021      330.794       -1.605      867.844
01/20/2014  02:44:00      -85.064      -39.725       -5.030       21.402       19.608       15.553      458.025      384.468      241.910        0.496        0.054       93.883       12.026        0.016      330.846       -1.519      867.836
01/20/2014  02:45:00     -101.490      -11.545      -11.289       24.173       21.674       16.830      584.330      469.774      283.244        0.595        0.067      102.144       13.496        0.017      330.766       -1.651      867.838
01/20/2014  02:46:00      -58.275      -16.040      -10.925       27.989       27.703       15.455      783.388      767.457      238.858        0.278        0.089       60.442       12.200        0.041      330.722       -1.723      867.843
01/20/2014  02:47:00      -43.591      -20.804      -14.748       12.230       11.934       12.856      149.578      142.418      165.276        0.150        0.023       48.301        5.621        0.014      330.890       -1.448      867.846
01/20/2014  02:48:00      -50.951       -4.385      -10.181        8.795       10.250        6.368       77.359      105.069       40.552        0.147        0.011       51.139        3.828        0.006      330.992       -1.279      867.843
01/20/2014  02:49:00      -51.486       -3.993       -5.335       12.898       10.546       10.831      166.349      111.209      117.316        0.154        0.020       51.640        6.407        0.015      331.423       -0.572      867.839
01/20/2014  02:50:00      -65.648      -34.722       -9.105       14.999       16.065       14.652      224.983      258.079      214.668        0.315        0.035       74.265       12.529        0.028      330.986       -1.290      867.842
01/20/2014  02:51:00     -100.216      -33.858      -18.523       11.688       14.967       11.583      136.617      224.007      134.162        0.601        0.025      105.781        8.105        0.006      330.743       -1.689      867.852
01/20/2014  02:52:00      -76.941      -34.276      -19.910       20.311       18.041       11.445      412.543      325.464      130.984        0.418        0.043       84.230        8.638        0.011      330.784       -1.622      867.867
01/20/2014  02:53:00      -77.693       -9.468       -6.915       40.083       26.216       17.391     1606.621      687.264      302.463        0.438        0.130       78.268       18.857        0.058      330.694       -1.769      867.886
01/20/2014  02:54:00     -114.832      -14.813      -20.427       16.839       19.444       13.644      283.563      378.061      186.171        0.734        0.042      115.784       10.542        0.008      330.678       -1.796      867.889
01/20/2014  02:55:00     -110.631        4.160      -20.099       23.923       14.121       11.440      572.297      199.412      130.885        0.678        0.045      110.709        5.832        0.003      330.733       -1.704      867.880
01/20/2014  02:56:00      -93.886       -4.457      -17.075       11.000       21.838       10.472      120.993      476.890      109.660        0.492        0.035       93.992        4.941        0.003      330.818       -1.566      867.872
01/20/2014  02:57:00      -97.204      -27.001      -17.245       10.651       12.769        9.614      113.449      163.037       92.430        0.542        0.018      100.884        2.436        0.001      330.756       -1.668      867.882
01/20/2014  02:58:00      -98.961      -20.678      -11.801       13.897       17.987       13.874      193.127      323.542      192.482        0.553        0.035      101.098        8.291        0.007      330.802       -1.591      867.875
01/20/2014  02:59:00      -94.891      -12.191      -16.925       20.149       17.149       13.846      405.982      294.093      191.701        0.517        0.045       95.671       11.717        0.015      330.727       -1.715      867.871
01/20/2014  03:00:00      -98.327      -23.201      -13.378       23.667       23.537       15.882      560.120      553.969      252.226        0.588        0.068      101.027       13.936        0.019      330.758       -1.666      867.866
01/20/2014  03:01:00      -98.170       -8.939      -17.409       17.611       25.303       15.845      310.157      640.242      251.079        0.561        0.060       98.576       11.346        0.013      330.754       -1.671      867.859
01/20/2014  03:02:00      -75.863      -33.178       -8.360       24.332       27.591       19.083      592.032      761.260      364.167        0.432        0.086       82.800       12.781        0.024      330.813       -1.575      867.858
01/20/2014  03:03:00      -75.942      -22.530      -12.833       26.700       23.912       17.426      712.896      571.765      303.670        0.401        0.079       79.214       16.775        0.045      330.833       -1.542      867.868
01/20/2014  03:04:00      -86.606      -30.530      -11.773       16.762       16.452       14.028      280.977      270.677      196.792        0.466        0.037       91.830        9.310        0.010      330.854       -1.506      867.867
01/20/2014  03:05:00      -83.117       -9.962       -9.909       25.613       17.254       19.079      656.049      297.699      364.015        0.421        0.066       83.712       16.327        0.038      330.822       -1.559      867.868
01/20/2014  03:06:00      -90.356      -16.869      -20.248       17.956       17.464       11.367      322.423      305.000      129.213        0.481        0.038       91.917        4.683        0.003      330.910       -1.413      867.878
01/20/2014  03:07:00      -80.749      -26.115      -18.623        8.726       12.108        9.856       76.140      146.608       97.139        0.393        0.016       84.867        2.919        0.001      330.844       -1.523      867.896
01/20/2014  03:08:00      -81.152      -19.177      -19.024       19.194       12.202       15.801      368.426      148.897      249.678        0.404        0.038       83.388        3.419        0.002      330.763       -1.656      867.897
01/20/2014  03:09:00      -74.186      -22.874      -19.291       15.217       14.629       14.127      231.555      214.001      199.580        0.352        0.032       77.632        6.601        0.007      330.756       -1.669      867.910
01/20/2014  03:10:00      -61.784      -22.587      -14.669       14.260       13.181        8.773      203.342      173.731       76.970        0.250        0.023       65.783        5.904        0.008      330.767       -1.649      867.921
01/20/2014  03:11:00      -67.416       -7.869      -11.014       14.398       14.429        9.240      207.295      208.209       85.386        0.261        0.025       67.874        8.163        0.014      330.790       -1.612      867.924
01/20/2014  03:12:00      -60.481       -4.589       -5.550       12.062        8.670        6.508      145.490       75.174       42.356        0.199        0.013       60.655        4.919        0.007      331.001       -1.264      867.928
01/20/2014  03:13:00      -47.053      -19.833      -11.209       17.349       13.588        9.569      300.991      184.625       91.571        0.165        0.029       51.063        6.266        0.015      330.970       -1.317      867.933
01/20/2014  03:14:00      -71.269      -26.544      -12.415       11.191       11.704        7.838      125.234      136.975       61.438        0.313        0.016       76.051        2.291        0.001      330.722       -1.723      867.941
01/20/2014  03:15:00      -92.310      -23.732      -13.397       14.391       13.475        9.919      207.114      181.589       98.395        0.488        0.024       95.311        4.902        0.003      330.600       -1.923      867.955
01/20/2014  03:16:00      -79.570      -16.511      -12.676       17.686       16.448       10.713      312.810      270.538      114.778        0.373        0.035       81.265        7.144        0.008      330.594       -1.932      867.964
01/20/2014  03:17:00      -83.557      -13.820      -10.667       16.265       20.595       12.717      264.551      424.155      161.722        0.407        0.043       84.692        9.844        0.014      330.630       -1.874      867.974
01/20/2014  03:18:00      -84.029       -3.131      -18.436       14.112       10.886        8.222      199.143      118.514       67.606        0.390        0.019       84.087        3.083        0.001      330.709       -1.745      867.977
01/20/2014  03:19:00      -59.458      -13.777      -10.350       11.463        8.904        7.944      131.412       79.284       63.104        0.205        0.014       61.033        4.020        0.004      330.705       -1.753      867.985
01/20/2014  03:20:00      -43.723      -19.006      -10.613       17.169       14.127       12.071      294.791      199.576      145.698        0.151        0.032       47.675        7.897        0.027      330.795       -1.604      868.004
01/20/2014  03:21:00      -73.292      -36.555       -9.501       16.360       13.894       10.808      267.646      193.041      116.812        0.369        0.029       81.902        6.627        0.007      330.728       -1.712      868.019
01/20/2014  03:22:00      -94.008      -26.774      -11.280       25.469       17.142       13.605      648.645      293.848      185.101        0.540        0.056       97.747       10.209        0.011      330.676       -1.800      868.025
01/20/2014  03:23:00     -117.479      -20.443      -20.239       16.688       17.989       12.663      278.491      323.613      160.351        0.770        0.038      119.245        7.444        0.004      330.631       -1.874      868.040
01/20/2014  03:24:00      -96.365       -7.056      -23.420       22.684       14.885       14.351      514.575      221.554      205.963        0.541        0.047       96.623       11.175        0.013      330.650       -1.841      868.053
01/20/2014  03:25:00      -69.364      -11.850      -17.602       16.598       15.652       12.235      275.483      244.991      149.705        0.297        0.034       70.369       12.128        0.030      330.615       -1.898      868.067
01/20/2014  03:26:00      -83.960      -17.767      -13.616       14.867       12.869        9.397      221.018      165.614       88.297        0.401        0.024       85.819        5.914        0.005      330.621       -1.889      868.087
01/20/2014  03:27:00      -65.295      -13.412      -21.691       12.795       13.242       12.685      163.721      175.348      160.910        0.271        0.025       66.658        7.869        0.014      330.653       -1.836      868.104
01/20/2014  03:28:00      -53.207       -5.573      -15.641       10.759       10.036        5.877      115.763      100.726       34.543        0.168        0.013       53.498        5.430        0.010      330.695       -1.768      868.109
01/20/2014  03:29:00      -44.207       -3.384       -5.640        7.608        8.520        6.181       57.882       72.585       38.209        0.108        0.008       44.336        3.474        0.006      331.011       -1.248      868.113
01/20/2014  03:30:00      -20.866       -3.704        0.794       20.144       14.635       10.780      405.778      214.177      116.218        0.059        0.037       21.192        8.969        0.179      331.414       -0.585      868.120
01/20/2014  03:31:00      -44.134      -18.183       -4.797        8.692       12.213        5.859       75.549      149.163       34.333        0.128        0.013       47.732        4.772        0.010      331.087       -1.124      868.124
01/20/2014  03:32:00      -50.661      -16.127       -7.173        8.626        7.801        7.480       74.409       60.862       55.948        0.153        0.010       53.166        4.063        0.006      330.944       -1.359      868.116
01/20/2014  03:33:00      -72.684      -18.014       -7.340       13.386       13.118        8.538      179.186      172.076       72.901        0.304        0.021       74.883        4.771        0.004      330.772       -1.640      868.115
01/20/2014  03:34:00     -103.448      -13.776      -20.782       18.972       16.395       11.552      359.944      268.809      133.442        0.604        0.038      104.361        6.536        0.004      330.718       -1.730      868.110
01/20/2014  03:35:00     -101.489       -9.910      -19.863       14.236       12.508       10.441      202.676      156.461      109.013        0.563        0.023      101.972        6.235        0.004      330.737       -1.697      868.107
01/20/2014  03:36:00     -104.222      -13.043      -21.063       10.892       10.842        9.131      118.642      117.557       83.376        0.590        0.016      105.035        3.957        0.001      330.663       -1.820      868.116
01/20/2014  03:37:00      -85.901      -17.129      -24.233        6.473        8.639        5.746       41.896       74.625       33.022        0.420        0.007       87.592        2.041        0.001      330.670       -1.808      868.119
01/20/2014  03:38:00      -72.566      -14.181      -21.271        9.762        6.766        8.065       95.296       45.781       65.042        0.306        0.010       73.938        5.446        0.005      330.723       -1.721      868.119
01/20/2014  03:39:00      -72.101      -19.574      -14.728        8.094       10.547        5.318       65.520      111.248       28.281        0.300        0.010       74.711        4.465        0.004      330.844       -1.523      868.122
01/20/2014  03:40:00      -63.890      -18.283      -16.868        9.812        7.433        6.282       96.266       55.246       39.470        0.245        0.010       66.455        2.714        0.002      330.839       -1.533      868.112
01/20/2014  03:41:00      -54.540      -17.541      -14.338        6.999        8.173        6.850       48.979       66.799       46.923        0.183        0.008       57.291        4.548        0.006      330.759       -1.662      868.099
01/20/2014  03:42:00      -76.266      -19.230      -11.471       10.065        6.368        5.797      101.303       40.548       33.600        0.325        0.009       78.653        1.407        0.000      330.811       -1.578      868.083
01/20/2014  03:43:00     -111.275      -20.968      -16.217       10.685       12.584        9.458      114.171      158.356       89.447        0.672        0.018      113.233        1.354        0.000      330.763       -1.657      868.073
01/20/2014  03:44:00     -101.269      -14.777      -13.478       19.529       15.999       12.361      381.399      255.976      152.799        0.572        0.040      102.342        8.320        0.007      330.776       -1.636      868.071
01/20/2014  03:45:00     -112.375       -8.550       -7.826       25.696       17.199       14.407      660.293      295.811      207.575        0.696        0.058      112.699       13.026        0.013      330.741       -1.692      868.070
01/20/2014  03:46:00      -96.840       -3.373        0.274       35.182       26.499       20.293     1237.762      702.181      411.810        0.587        0.118       96.898       21.455        0.049      330.603       -1.919      868.070
01/20/2014  03:47:00     -119.507       -5.210       -9.434       26.595       19.633       18.341      707.301      385.435      336.406        0.791        0.071      119.621       16.125        0.018      330.686       -1.782      868.069
01/20/2014  03:48:00     -115.402       -1.908      -17.053       18.730       10.085        9.199      350.806      101.716       84.623        0.707        0.027      115.418        3.817        0.001      330.729       -1.712      868.076
01/20/2014  03:49:00      -74.655       -4.928       -6.907       20.130       16.032       11.768      405.214      257.012      138.478        0.322        0.040       74.818       10.660        0.020      330.739       -1.694      868.085
01/20/2014  03:50:00      -75.287      -21.988      -12.282       22.864       14.791       13.883      522.778      218.760      192.735        0.362        0.047       78.432       13.942        0.032      330.816       -1.568      868.100
01/20/2014  03:51:00     -113.841       -7.153       -9.279       24.710       18.042       16.565      610.605      325.521      274.399        0.715        0.061      114.066       14.223        0.016      330.713       -1.738      868.121
01/20/2014  03:52:00     -112.675      -11.763      -16.350       20.658       18.293       15.413      426.762      334.651      237.565        0.705        0.050      113.288       12.577        0.012      330.698       -1.762      868.134
01/20/2014  03:53:00      -95.404      -32.353      -11.269       21.681       18.497       13.734      470.078      342.139      188.623        0.564        0.050      100.741       12.266        0.015      330.531       -2.037      868.137
01/20/2014  03:54:00      -58.992      -54.028       -6.075       30.396       38.415       23.499      923.929     1475.740      552.219        0.469        0.148       79.994       24.340        0.093      330.470       -2.136      868.145
01/20/2014  03:55:00     -102.736      -51.508       -7.329       35.918       27.424       20.659     1290.107      752.079      426.813        0.786        0.123      114.925       21.270        0.034      330.460       -2.154      868.141
01/20/2014  03:56:00     -127.734      -21.304      -14.715       35.964       23.198       17.381     1293.439      538.132      302.109        0.956        0.107      129.498       15.315        0.014      330.511       -2.069      868.140
01/20/2014  03:57:00     -119.350      -32.027        0.708       37.188       32.157       21.135     1382.929     1034.097      446.668        0.907        0.143      123.573       22.021        0.032      330.508       -2.075      868.130
01/20/2014  03:58:00     -112.383      -33.370      -10.448       33.896       23.417       22.734     1148.924      548.346      516.841        0.803        0.111      117.232       16.152        0.019      330.448       -2.174      868.121
01/20/2014  03:59:00     -108.472      -33.300       -8.963       21.332       25.816       16.928      455.058      666.483      286.550        0.718        0.070      113.468       12.709        0.013      330.498       -2.091      868.114
01/20/2014  04:00:00      -81.850      -32.758       -0.279       32.739       29.837       18.883     1071.837      890.229      356.571        0.505        0.116       88.162       18.563        0.044      330.463       -2.148      868.111
01/20/2014  04:01:00     -113.269      -17.411       -8.589       20.072       18.098       13.371      402.874      327.546      178.773        0.706        0.045      114.600        6.481        0.003      330.526       -2.044      868.112
01/20/2014  04:02:00      -99.678      -16.266       -3.903       30.747       18.141       14.591      945.384      329.094      212.903        0.585        0.074      100.997       12.417        0.015      330.580       -1.956      868.111
01/20/2014  04:03:00     -109.593      -24.186      -12.212       20.242       17.841       12.830      409.732      318.291      164.616        0.682        0.045      112.230        7.601        0.005      330.635       -1.866      868.104
01/20/2014  04:04:00     -113.681      -42.115       -8.909       15.106       18.418       15.372      228.191      339.214      236.297        0.779        0.040      121.231        9.528        0.006      330.628       -1.878      868.100
01/20/2014  04:05:00      -99.779      -52.671       -6.953       22.697       19.811       16.902      515.167      392.484      285.677        0.699        0.060      112.828       10.242        0.008      330.505       -2.080      868.107
01/20/2014  04:06:00      -66.372      -33.199       -5.393       25.208       28.700       15.122      635.451      823.695      228.687        0.361        0.084       74.212       10.465        0.020      330.466       -2.143      868.106
01/20/2014  04:07:00      -47.948      -31.209       -0.310       26.426       24.203       19.952      698.336      585.775      398.071        0.248        0.084       57.210       13.702        0.057      330.418       -2.221      868.104
01/20/2014  04:08:00      -63.073       -4.618       -4.638       32.721       31.840       19.182     1070.681     1013.804      367.965        0.324        0.123       63.242       17.345        0.075      330.504       -2.081      868.103
01/20/2014  04:09:00     -114.211       17.839       -9.036       53.807       42.357       24.987     2895.146     1794.114      624.342        0.938        0.266      115.596       23.626        0.042      330.684       -1.784      868.111
01/20/2014  04:10:00     -110.951       20.600      -10.610       44.492       31.378       22.056     1979.557      984.592      486.468        0.815        0.173      112.847       19.759        0.031      330.724       -1.721      868.127
01/20/2014  04:11:00      -46.636      -14.054       -2.134       35.117       26.021       19.622     1233.202      677.101      385.035        0.234        0.115       48.708       14.740        0.092      330.601       -1.922      868.130
01/20/2014  04:12:00      -79.698      -33.232       -9.574       25.211       26.833       18.264      635.605      720.033      333.570        0.462        0.084       86.349       11.086        0.016      330.487       -2.111      868.137
01/20/2014  04:13:00      -36.216      -33.186       -8.741       26.406       20.637       22.978      697.269      425.893      527.990        0.207        0.083       49.121       20.040        0.166      330.540       -2.022      868.138
01/20/2014  04:14:00      -47.464      -16.983       -6.471       30.286       23.379       17.367      917.245      546.565      301.628        0.217        0.088       50.411        5.954        0.014      330.412       -2.232      868.138
01/20/2014  04:15:00      -56.717      -25.261      -19.280       18.148       18.173       18.939      329.352      330.255      358.689        0.262        0.051       62.088       13.530        0.047      330.365       -2.310      868.132
01/20/2014  04:16:00      -40.258      -16.298       -3.580       20.453       12.410       18.912      418.344      154.020      357.679        0.141        0.047       43.432        8.586        0.039      330.430       -2.203      868.138
01/20/2014  04:17:00      -65.867      -25.341      -18.485       18.247       13.191       10.666      332.944      173.998      113.772        0.297        0.031       70.573        6.821        0.009      330.423       -2.214      868.144
01/20/2014  04:18:00      -53.174      -18.884      -18.722       17.740       18.097       12.371      314.720      327.501      153.045        0.216        0.040       56.428        8.243        0.021      330.725       -1.718      868.148
01/20/2014  04:19:00      -56.491       -6.272      -20.229       11.051       19.287       10.712      122.120      372.005      114.754        0.212        0.030       56.838        4.577        0.006      330.983       -1.294      868.151
01/20/2014  04:20:00      -57.461      -30.531       -9.252       13.451       16.555       10.033      180.922      274.070      100.657        0.244        0.028       65.069        5.486        0.007      330.938       -1.370      868.151
01/20/2014  04:21:00      -60.642      -38.200      -18.786       14.643       17.066       11.096      214.403      291.238      123.111        0.306        0.031       71.671        8.124        0.013      330.684       -1.784      868.161
01/20/2014  04:22:00      -84.576      -18.001      -11.467       19.741       16.173       12.066      389.704      261.558      145.587        0.420        0.040       86.470        9.669        0.013      330.427       -2.208      868.170
01/20/2014  04:23:00      -65.131      -23.698       -8.355       14.880       17.399       16.239      221.402      302.739      263.709        0.283        0.039       69.308        7.011        0.010      330.389       -2.270      868.173
01/20/2014  04:24:00      -79.414       -5.572      -15.230        7.913        9.883        7.081       62.612       97.667       50.143        0.339        0.011       79.610        5.146        0.004      330.506       -2.078      868.170
01/20/2014  04:25:00      -70.016      -22.062      -18.520       15.142       11.228        7.210      229.279      126.078       51.986        0.307        0.020       73.410        3.896        0.003      330.591       -1.938      868.172
01/20/2014  04:26:00      -56.735      -36.873      -12.742       16.704       14.786       12.931      279.022      218.616      167.200        0.270        0.033       67.664        3.922        0.003      330.667       -1.814      868.178
01/20/2014  04:27:00      -75.089      -38.743       -8.882       15.053       15.347       13.658      226.601      235.529      186.537        0.393        0.032       84.495        5.333        0.004      330.331       -2.364      868.181
01/20/2014  04:28:00      -65.840      -28.578      -12.348       14.229       15.152        9.308      202.451      229.585       86.641        0.291        0.026       71.775        5.780        0.006      330.439       -2.189      868.187
01/20/2014  04:29:00      -50.595      -32.055       -8.658       16.544       12.264       10.636      273.697      150.404      113.115        0.210        0.027       59.895        3.567        0.004      330.431       -2.202      868.195
01/20/2014  04:30:00      -49.569      -34.910      -16.888       12.583       12.649       10.546      158.329      159.993      111.210        0.220        0.021       60.629        8.722        0.021      330.528       -2.042      868.195
01/20/2014  04:31:00      -56.393      -24.795       -9.767       16.921       13.511        9.984      286.337      182.542       99.688        0.223        0.028       61.604        5.747        0.009      330.447       -2.173      868.219
01/20/2014  04:32:00      -35.638      -23.580       -4.129       17.811       10.254        7.121      317.236      105.151       50.708        0.116        0.024       42.732        5.245        0.015      330.392       -2.264      868.237
01/20/2014  04:33:00      -79.860      -42.578      -11.633       27.224       14.830       11.082      741.150      219.926      122.818        0.470        0.054       90.502        7.981        0.008      330.332       -2.362      868.249
01/20/2014  04:34:00     -122.688      -46.990      -15.027       11.896        8.787        8.904      141.514       77.206       79.276        0.889        0.015      131.379        5.334        0.002      330.348       -2.336      868.258
01/20/2014  04:35:00     -106.551      -20.361       -7.178       11.829       12.750       11.045      139.931      162.571      121.999        0.612        0.021      108.479        7.467        0.005      330.469       -2.139      868.254
01/20/2014  04:36:00      -66.597      -19.404       -5.029       20.166       13.864       11.625      406.648      192.205      135.145        0.279        0.037       69.366        5.866        0.007      330.572       -1.969      868.242
01/20/2014  04:37:00      -84.665      -29.981       -5.994       13.168       14.153       10.330      173.409      200.318      106.699        0.429        0.024       89.817        6.200        0.005      330.565       -1.980      868.250
01/20/2014  04:38:00      -90.906      -29.884       -9.167       12.631       12.910        6.949      159.531      166.658       48.285        0.481        0.019       95.692        1.883        0.000      330.521       -2.053      868.263
01/20/2014  04:39:00      -91.624      -19.656       -9.380       16.427       10.534       10.273      269.862      110.959      105.540        0.468        0.024       93.709        8.834        0.009      330.564       -1.981      868.269
01/20/2014  04:40:00      -60.619      -15.376       -3.468       19.532       13.122       10.135      381.487      172.178      102.713        0.229        0.033       62.539       10.441        0.028      330.516       -2.060      868.280
01/20/2014  04:41:00      -69.882      -11.457       -7.461       10.051       10.956        8.865      101.028      120.041       78.581        0.268        0.015       70.815        4.293        0.004      330.581       -1.953      868.286
01/20/2014  04:42:00      -52.898      -11.035       -8.500       12.690       10.821        7.645      161.035      117.102       58.449        0.166        0.017       54.036        2.820        0.003      330.608       -1.909      868.288
01/20/2014  04:43:00      -55.616      -20.909      -11.551        6.507        7.449        5.362       42.347       55.491       28.754        0.190        0.006       59.416        3.724        0.004      330.688       -1.777      868.288
01/20/2014  04:44:00      -34.193      -18.841      -12.849       16.167       10.373        8.326      261.365      107.594       69.321        0.106        0.022       39.040        8.469        0.047      330.491       -2.103      868.290
01/20/2014  04:45:00      -51.277      -12.511       -6.124        7.093        8.763        5.718       50.317       76.781       32.697        0.149        0.008       52.781        2.719        0.003      330.670       -1.808      868.295
01/20/2014  04:46:00      -50.980      -18.771       -3.081        7.961       10.058        6.787       63.383      101.163       46.063        0.159        0.011       54.326        5.146        0.009      330.459       -2.155      868.299
01/20/2014  04:47:00      -39.219      -29.873      -11.088       14.307       13.017        7.813      204.687      169.441       61.037        0.149        0.022       49.301        4.010        0.007      330.448       -2.172      868.307
01/20/2014  04:48:00      -34.862      -22.007       -9.581       16.460       12.085        8.492      270.933      146.051       72.122        0.114        0.024       41.227        5.098        0.015      330.382       -2.282      868.313
01/20/2014  04:49:00      -42.794      -26.842      -13.121       13.084       11.711        9.948      171.195      137.143       98.971        0.157        0.020       50.516        7.468        0.022      330.276       -2.454      868.319
01/20/2014  04:50:00      -53.500      -28.893       -8.718       11.653       10.411        8.648      135.785      108.379       74.794        0.205        0.016       60.803        4.519        0.006      330.240       -2.514      868.325
01/20/2014  04:51:00      -67.348      -26.405      -17.195       15.649       19.463       12.422      244.886      378.809      154.315        0.315        0.039       72.340       10.357        0.020      330.125       -2.704      868.332
01/20/2014  04:52:00      -63.435      -17.913      -15.531       12.290       14.974       12.067      151.041      224.206      145.622        0.255        0.026       65.916        5.936        0.008      330.170       -2.630      868.338
01/20/2014  04:53:00      -52.410       -7.655       -8.535        9.803        9.188        7.559       96.099       84.426       57.144        0.156        0.012       52.966        4.846        0.008      330.164       -2.640      868.345
01/20/2014  04:54:00      -42.235       -1.953       -6.525        8.201        4.924        6.841       67.259       24.247       46.797        0.098        0.007       42.280        4.734        0.013      330.241       -2.511      868.353
01/20/2014  04:55:00      -30.947      -23.989      -12.060       10.746       15.427        8.694      115.478      237.988       75.592        0.105        0.021       39.156        5.056        0.017      330.326       -2.373      868.359
01/20/2014  04:56:00      -33.817      -11.346      -12.248        9.252        9.048        7.462       85.592       81.862       55.678        0.082        0.011       35.669        4.384        0.015      330.361       -2.315      868.361
01/20/2014  04:57:00      -50.274      -25.369      -16.536       13.688       12.301       10.254      187.366      151.323      105.146        0.194        0.022       56.312        6.837        0.015      330.144       -2.673      868.368
01/20/2014  04:58:00      -54.830      -26.293      -13.301       10.511       11.497        9.447      110.478      132.192       89.249        0.210        0.017       60.808        5.639        0.009      330.104       -2.738      868.380
01/20/2014  04:59:00      -75.312       -9.347      -15.832       11.084       12.484        8.190      122.850      155.857       67.071        0.318        0.017       75.890        6.216        0.007      330.036       -2.849      868.392
01/20/2014  05:00:00      -73.492       -1.298      -14.593       15.523        8.855        8.457      240.957       78.412       71.521        0.300        0.020       73.503        7.292        0.010      329.975       -2.947      868.393
01/20/2014  05:01:00      -68.580       -4.069       -9.951       12.313       12.853       10.988      151.617      165.209      120.742        0.263        0.022       68.701        7.359        0.011      330.050       -2.826      868.382
01/20/2014  05:02:00      -58.600       -5.647       -8.448       10.612       13.166        8.619      112.617      173.331       74.294        0.195        0.018       58.872        4.793        0.007      330.240       -2.513      868.380
01/20/2014  05:03:00      -44.306        4.797       -3.671       19.585       13.861       10.584      383.582      192.129      112.027        0.134        0.034       44.565        7.826        0.031      330.315       -2.391      868.394
01/20/2014  05:04:00      -25.696        4.440      -10.444        9.998       14.877        8.167       99.952      221.329       66.708        0.059        0.019       26.077        7.631        0.086      330.384       -2.280      868.406
01/20/2014  05:05:00        1.249       -0.804        5.007       12.257        7.520        7.002      150.239       56.544       49.029        0.014        0.013        1.485        6.078       16.739      330.717       -1.730      868.418
01/20/2014  05:06:00      -18.703      -23.264       -1.562       11.921       11.637       10.051      142.116      135.425      101.022        0.064        0.019       29.850        8.316        0.078      330.614       -1.900      868.434
01/20/2014  05:07:00      -20.881      -27.120       -0.746        8.506       13.425       10.370       72.349      180.233      107.532        0.077        0.018       34.227        5.491        0.026      330.544       -2.015      868.445
01/20/2014  05:08:00      -48.552      -11.168       -7.663       13.287        9.454        8.389      176.542       89.372       70.367        0.144        0.017       49.820        3.860        0.006      330.152       -2.658      868.461
01/20/2014  05:09:00      -68.795       -9.191      -14.232       12.992        8.840        8.219      168.799       78.142       67.553        0.267        0.016       69.406        6.061        0.008      330.060       -2.811      868.459
01/20/2014  05:10:00      -82.062       -8.152      -11.791       14.448       11.725       10.646      208.757      137.481      113.328        0.370        0.023       82.466        6.363        0.006      330.081       -2.775      868.446
01/20/2014  05:11:00      -65.821       -5.321      -14.118       13.079        7.410        7.130      171.050       54.914       50.838        0.242        0.014       66.035        4.808        0.005      330.179       -2.614      868.440
01/20/2014  05:12:00      -79.616       -9.002      -18.369       10.987        9.380        7.131      120.718       87.990       50.850        0.351        0.013       80.123        4.615        0.003      330.052       -2.820      868.430
01/20/2014  05:13:00      -97.233       -3.609      -16.516       14.134        6.607        7.002      199.767       43.650       49.034        0.502        0.015       97.300        3.047        0.001      329.976       -2.945      868.425
01/20/2014  05:14:00      -73.323      -12.352      -14.929       12.440        9.390       10.188      154.759       88.175      103.804        0.305        0.017       74.356        7.876        0.011      330.068       -2.797      868.412
01/20/2014  05:15:00      -70.078       -7.194      -10.529        8.355        8.216        7.207       69.801       67.510       51.948        0.263        0.009       70.446        4.635        0.004      330.130       -2.695      868.408
01/20/2014  05:16:00      -74.713       -1.015      -13.290       13.313        7.611        8.031      177.249       57.929       64.498        0.303        0.015       74.720        4.087        0.003      330.131       -2.694      868.410
01/20/2014  05:17:00      -71.488       -9.965      -13.879       15.588       14.060        8.150      242.988      197.692       66.430        0.295        0.025       72.179        4.356        0.004      330.043       -2.836      868.415
01/20/2014  05:18:00      -87.397      -27.675      -17.899       15.602       17.902       10.342      243.416      320.497      106.966        0.470        0.034       91.674        5.190        0.003      330.046       -2.830      868.435
01/20/2014  05:19:00      -82.868       -8.371      -13.550       16.503       14.307       11.709      272.341      204.700      137.093        0.387        0.031       83.289        5.837        0.005      330.001       -2.906      868.451
01/20/2014  05:20:00      -60.943       -7.561      -12.476       13.579       18.136        9.966      184.378      328.910       99.315        0.227        0.031       61.410        9.456        0.024      330.077       -2.781      868.474
01/20/2014  05:21:00      -52.308      -18.426       -5.992       19.263       16.043       11.528      371.082      257.387      132.901        0.194        0.038       55.459        8.550        0.024      330.151       -2.660      868.478
01/20/2014  05:22:00      -57.391      -12.044       -6.139       17.595       16.651       15.233      309.599      277.253      232.047        0.215        0.041       58.642       10.022        0.029      330.074       -2.787      868.473
01/20/2014  05:23:00      -72.778      -13.473      -16.004       12.305       15.968       12.216      151.424      254.963      149.223        0.314        0.028       74.014        9.392        0.016      330.075       -2.785      868.473
01/20/2014  05:24:00      -70.663      -17.420      -12.304       15.140       17.242       14.439      229.216      297.296      208.480        0.309        0.037       72.778        8.930        0.015      330.049       -2.826      868.471
01/20/2014  05:25:00      -65.204      -15.245      -11.004       13.355       15.060       10.069      178.352      226.817      101.390        0.256        0.025       66.962        7.792        0.014      330.061       -2.808      868.480
01/20/2014  05:26:00      -81.347      -15.222      -11.542       18.418       15.483       10.038      339.234      239.724      100.766        0.383        0.034       82.759        6.323        0.006      330.083       -2.771      868.489
01/20/2014  05:27:00      -86.230      -12.979      -10.511       12.199       13.095        9.310      148.822      171.492       86.671        0.406        0.020       87.201        5.725        0.004      330.103       -2.740      868.491
01/20/2014  05:28:00      -71.945      -10.311       -7.603       19.594       14.090       10.081      383.910      198.530      101.618        0.301        0.034       72.680        8.421        0.013      330.071       -2.791      868.495
01/20/2014  05:29:00      -88.839      -15.111      -15.185       16.273       18.872       12.496      264.795      356.147      156.153        0.456        0.039       90.115        4.656        0.003      330.106       -2.734      868.501
01/20/2014  05:30:00      -81.524       -1.743      -15.184       17.427       10.517       10.259      303.712      110.607      105.253        0.370        0.026       81.543        7.866        0.009      330.103       -2.740      868.510
01/20/2014  05:31:00      -53.072       -9.886      -10.245       13.834       13.319        9.970      191.374      177.396       99.404        0.174        0.023       53.985        8.226        0.023      330.125       -2.704      868.517
01/20/2014  05:32:00      -61.235       -5.943      -11.124       16.160       10.394        9.379      261.161      108.033       87.961        0.218        0.023       61.523        8.906        0.021      330.143       -2.674      868.531
01/20/2014  05:33:00      -50.999       -2.544       -9.850        7.513        5.519        6.630       56.444       30.454       43.961        0.142        0.007       51.063        4.755        0.009      330.260       -2.480      868.538
01/20/2014  05:34:00      -36.978      -19.255       -7.756        8.754        9.842        5.275       76.633       96.872       27.825        0.100        0.010       41.691        1.412        0.001      330.350       -2.333      868.541
01/20/2014  05:35:00      -30.270      -18.742       -7.406        9.055        9.182        4.716       82.000       84.318       22.239        0.076        0.009       35.602        2.291        0.004      330.432       -2.198      868.536
01/20/2014  05:36:00      -49.909       -6.180       -9.182       11.170        5.800        5.946      124.770       33.634       35.358        0.140        0.010       50.290        2.245        0.002      330.363       -2.313      868.531
01/20/2014  05:37:00      -29.297       -6.072       -5.226       11.986        6.188        4.478      143.661       38.286       20.053        0.056        0.010       29.919        3.798        0.016      330.316       -2.388      868.545
01/20/2014  05:38:00       -0.585        0.578        1.050        6.805       16.490        7.723       46.304      271.936       59.650        0.019        0.019        0.823        5.964       52.532      330.558       -1.993      868.559
01/20/2014  05:39:00       24.413        8.742        5.524       10.498        7.009        6.001      110.215       49.130       36.007        0.045        0.010       25.932        1.324        0.003      330.736       -1.700      868.561
01/20/2014  05:40:00       11.456       16.204        9.060       10.620        8.565        7.184      112.785       73.359       51.612        0.036        0.012       19.845        6.678        0.113      330.626       -1.881      868.557
01/20/2014  05:41:00       -2.461       10.245       -2.959        9.251        8.434        8.067       85.589       71.133       65.074        0.017        0.011       10.536        6.605        0.393      330.620       -1.890      868.555
01/20/2014  05:42:00       -5.146       -5.038       -3.725       11.007        8.564        5.180      121.149       73.334       26.830        0.014        0.011        7.201        3.558        0.244      330.619       -1.892      868.559
01/20/2014  05:43:00       -6.163       -0.769       -0.652        7.720       10.020        8.109       59.597      100.409       65.762        0.013        0.011        6.211        6.861        1.221      330.629       -1.876      868.560
01/20/2014  05:44:00       -4.397        2.576        3.936        9.620        4.854        6.433       92.550       23.564       41.382        0.010        0.008        5.096        4.448        0.762      330.530       -2.038      868.547
01/20/2014  05:45:00       26.695       16.825        2.269        8.309       10.424        6.160       69.044      108.658       37.951        0.061        0.011       31.555        3.544        0.013      330.562       -1.986      868.540
01/20/2014  05:46:00       16.125        8.012        5.594       12.078       12.850       13.417      145.870      165.116      180.005        0.042        0.025       18.006        7.606        0.178      330.595       -1.932      868.540
01/20/2014  05:47:00       20.129       25.264       -5.058       10.414       11.800        7.333      108.443      139.235       53.774        0.069        0.015       32.302        6.452        0.040      330.599       -1.925      868.547
01/20/2014  05:48:00       17.062       18.762       -4.720       17.083       14.142       10.028      291.816      200.006      100.559        0.063        0.030       25.360        9.160        0.130      330.611       -1.905      868.555
01/20/2014  05:49:00       21.535       32.515       -0.267       12.483       13.667        8.442      155.820      186.773       71.265        0.097        0.021       39.000        7.362        0.036      330.603       -1.917      868.568
01/20/2014  05:50:00       29.266       41.941       -4.050       18.601       24.195        8.445      345.999      585.376       71.324        0.182        0.050       51.142        8.488        0.028      330.563       -1.983      868.584
01/20/2014  05:51:00       18.567       22.345       -1.118       18.699       14.574       13.325      349.640      212.393      177.548        0.079        0.037       29.052       11.116        0.146      330.511       -2.069      868.602
01/20/2014  05:52:00       19.257       29.039       -3.341       11.836       10.944        8.474      140.087      119.772       71.807        0.078        0.017       34.844        5.811        0.028      330.522       -2.050      868.611
01/20/2014  05:53:00       15.956       27.788       -5.703       14.054       11.350        5.766      197.507      128.819       33.249        0.071        0.018       32.043        4.648        0.021      330.588       -1.944      868.611
01/20/2014  05:54:00        0.771        5.451       -4.817       12.040       15.212        7.625      144.950      231.398       58.134        0.024        0.022        5.505        7.012        1.622      330.525       -2.046      868.619
01/20/2014  05:55:00       -6.741       -3.239        5.119        7.435        5.960        4.477       55.281       35.517       20.044        0.010        0.006        7.479        3.954        0.280      330.506       -2.077      868.615
01/20/2014  05:56:00      -26.380        1.425       -0.244       13.234        7.702        6.868      175.151       59.316       47.164        0.049        0.014       26.418        6.127        0.054      330.118       -2.713      868.609
01/20/2014  05:57:00      -50.881       -4.076       -3.330        9.793        8.515        7.253       95.897       72.499       52.609        0.142        0.011       51.044        2.930        0.003      329.954       -2.983      868.614
01/20/2014  05:58:00      -57.949       -9.200       -8.722       12.668        7.787        6.930      160.489       60.639       48.030        0.189        0.013       58.675        3.606        0.004      330.030       -2.857      868.618
01/20/2014  05:59:00      -36.258      -12.452       -5.260       12.179        5.288        4.048      148.337       27.966       16.385        0.084        0.010       38.337        2.978        0.006      330.180       -2.613      868.621
01/20/2014  06:00:00       -6.042        1.690       -0.436       13.941        8.473        5.338      194.339       71.798       28.495        0.017        0.015        6.274        3.492        0.310      330.439       -2.187      868.625
01/20/2014  06:01:00      -28.804       -5.568        2.468        9.118        8.557        5.789       83.146       73.229       33.517        0.053        0.009       29.337        5.880        0.040      330.218       -2.549      868.631
01/20/2014  06:02:00      -28.278      -14.038        0.846        9.863        8.627        8.912       97.283       74.417       79.416        0.062        0.013       31.571        3.015        0.009      330.190       -2.596      868.641
01/20/2014  06:03:00      -23.091       -1.910       -1.114        7.461        6.883        7.924       55.673       47.379       62.787        0.035        0.008       23.170        4.706        0.041      330.316       -2.389      868.658
01/20/2014  06:04:00      -33.851      -18.979       -7.458       12.793       16.686        9.011      163.657      278.422       81.204        0.104        0.026       38.809        9.315        0.058      330.365       -2.309      868.656
01/20/2014  06:05:00      -44.088      -34.313      -17.492       13.798       14.458        9.465      190.377      209.038       89.584        0.196        0.024       55.867        4.204        0.006      330.047       -2.831      868.654
01/20/2014  06:06:00      -67.831      -16.285      -13.641        7.527       10.910        6.142       56.660      119.022       37.726        0.263        0.011       69.758        4.569        0.004      330.125       -2.702      868.649
01/20/2014  06:07:00      -67.877      -17.646      -10.374        7.761        6.577        7.871       60.237       43.253       61.953        0.260        0.008       70.133        3.549        0.003      330.017       -2.878      868.645
01/20/2014  06:08:00      -67.428      -17.569      -13.798        7.069        6.328        6.095       49.967       40.038       37.153        0.259        0.006       69.679        4.188        0.004      329.831       -3.184      868.657
01/20/2014  06:09:00      -78.320       -8.993      -15.305       11.961       10.678        8.779      143.062      114.029       77.076        0.339        0.017       78.834        6.076        0.006      329.781       -3.267      868.668
01/20/2014  06:10:00      -65.357      -18.707      -14.836       14.641       13.762       12.389      214.353      189.390      153.476        0.270        0.028       67.981       10.651        0.025      329.825       -3.193      868.679
01/20/2014  06:11:00      -69.275      -20.324      -12.818        8.788       11.966       10.746       77.236      143.194      115.482        0.286        0.017       72.195        2.452        0.001      329.800       -3.233      868.686
01/20/2014  06:12:00      -64.292      -15.892       -8.136       10.610       13.671       10.856      112.571      186.898      117.843        0.243        0.021       66.227        2.239        0.001      329.816       -3.209      868.689
01/20/2014  06:13:00      -79.362       -6.660      -13.048       17.399       14.512       12.953      302.741      210.603      167.781        0.360        0.034       79.641       12.582        0.025      329.859       -3.136      868.702
01/20/2014  06:14:00      -85.938       -6.008      -20.232       19.917       20.524       16.204      396.685      421.246      262.578        0.446        0.054       86.148       11.394        0.017      329.795       -3.243      868.708
01/20/2014  06:15:00      -80.699      -36.998       -9.607       19.529       29.096       16.336      381.368      846.605      266.851        0.473        0.075       88.776        5.896        0.004      329.732       -3.347      868.718
01/20/2014  06:16:00      -94.053      -24.224      -18.306       24.674       23.989       20.940      608.812      575.463      438.467        0.569        0.081       97.123       11.017        0.013      329.844       -3.163      868.724
01/20/2014  06:17:00      -74.073      -34.638      -13.038       24.848       22.321       15.329      617.399      498.248      234.974        0.410        0.068       81.771        9.701        0.014      329.772       -3.281      868.726
01/20/2014  06:18:00      -94.321      -12.399      -10.085       18.603       22.811       16.362      346.071      520.332      267.702        0.514        0.057       95.132       12.541        0.017      329.866       -3.126      868.739
01/20/2014  06:19:00      -77.599      -15.955      -18.385       15.061       23.992       10.121      226.823      575.608      102.432        0.376        0.045       79.222       12.116        0.023      329.903       -3.067      868.749
01/20/2014  06:20:00      -92.129       -5.118      -17.200       28.321       19.073       16.396      802.089      363.783      268.813        0.512        0.072       92.271       14.422        0.024      329.839       -3.171      868.750
01/20/2014  06:21:00      -72.992       -0.392       -8.789       20.167       17.158       12.609      406.691      294.402      158.981        0.313        0.043       72.993       11.288        0.024      329.844       -3.163      868.751
01/20/2014  06:22:00      -63.986       -3.805       -2.969       26.383       22.460       16.751      696.086      504.432      280.610        0.280        0.074       64.099       12.764        0.040      329.912       -3.052      868.761
01/20/2014  06:23:00      -97.948       -5.868       -4.259       35.887       22.996       18.006     1287.844      528.794      324.207        0.589        0.107       98.124       15.266        0.024      329.914       -3.048      868.777
01/20/2014  06:24:00      -99.152      -24.013      -15.160       23.801       26.653       15.445      566.472      710.381      238.535        0.608        0.076      102.019        6.782        0.004      329.788       -3.254      868.799
01/20/2014  06:25:00      -90.218      -42.804       -7.699       31.216       22.747       23.523      974.413      517.430      553.312        0.604        0.102       99.857       17.280        0.030      329.820       -3.202      868.801
01/20/2014  06:26:00     -108.753      -45.416       -9.654       24.048       22.795       19.050      578.327      519.595      362.905        0.772        0.073      117.855       14.140        0.014      329.771       -3.281      868.804
01/20/2014  06:27:00      -92.451      -48.262      -10.953       26.652       26.182       16.283      710.339      685.495      265.151        0.633        0.083      104.290       11.047        0.011      329.789       -3.251      868.804
01/20/2014  06:28:00     -134.815      -31.301       -7.814       35.085       23.477       17.565     1230.981      551.167      308.533        1.065        0.105      138.401       13.197        0.009      329.782       -3.264      868.808
01/20/2014  06:29:00     -118.597      -40.318       -6.486       36.278       33.235       18.251     1316.059     1104.547      333.082        0.924        0.138      125.263       15.369        0.015      329.775       -3.275      868.818
01/20/2014  06:30:00     -147.293      -16.151      -14.075       41.235       27.844       21.198     1700.345      775.281      449.344        1.254        0.146      148.175       14.931        0.010      329.787       -3.255      868.823
01/20/2014  06:31:00     -132.010      -26.197      -10.458       41.508       23.819       22.029     1722.896      567.364      485.256        1.050        0.139      134.584       19.278        0.021      329.718       -3.368      868.837
01/20/2014  06:32:00     -115.381      -19.753       -7.287       31.655       27.802       19.403     1002.049      772.967      376.472        0.795        0.108      117.059       15.728        0.018      329.721       -3.362      868.853
01/20/2014  06:33:00     -122.536      -14.779       -9.467       27.153       17.397       15.609      737.301      302.654      243.637        0.830        0.064      123.424       14.197        0.013      329.760       -3.299      868.865
01/20/2014  06:34:00      -91.683       -8.080       -5.177       45.615       28.297       25.264     2080.761      800.730      638.246        0.601        0.176       92.039       25.686        0.078      329.853       -3.147      868.868
01/20/2014  06:35:00      -85.575       -9.158        3.984       44.082       33.554       23.477     1943.181     1125.889      551.189        0.552        0.181       86.063       22.120        0.066      329.910       -3.055      868.871
01/20/2014  06:36:00      -63.836       -4.217       -0.738       51.418       27.234       22.000     2643.816      741.698      483.998        0.398        0.193       63.975       24.103        0.142      329.878       -3.107      868.885
01/20/2014  06:37:00      -83.011       -9.597      -10.205       34.895       32.818       19.710     1217.691     1077.043      388.473        0.488        0.134       83.564       13.709        0.027      329.910       -3.055      868.895
01/20/2014  06:38:00      -32.523        6.991       10.555       35.013       22.806       20.300     1225.902      520.116      412.072        0.169        0.108       33.266       21.302        0.410      329.894       -3.080      868.901
01/20/2014  06:39:00      -70.661      -20.736       -7.811       25.525       23.494       16.206      651.529      551.948      262.638        0.347        0.073       73.641       11.487        0.024      329.789       -3.251      868.905
01/20/2014  06:40:00      -91.227      -18.250      -10.092       21.146       24.022       17.021      447.173      577.055      289.709        0.504        0.066       93.035       13.908        0.022      329.786       -3.258      868.919
01/20/2014  06:41:00      -91.700      -40.477      -14.922       28.467       21.532       15.344      810.384      463.642      235.428        0.589        0.075      100.236        5.879        0.003      329.814       -3.212      868.940
01/20/2014  06:42:00      -74.407      -31.737      -11.204       39.719       24.864       18.016     1577.576      618.204      324.584        0.459        0.126       80.893       12.665        0.025      329.765       -3.293      868.941
01/20/2014  06:43:00     -145.771      -21.745      -13.851       19.714       27.032       18.569      388.625      730.726      344.796        1.169        0.073      147.384       12.869        0.008      329.693       -3.410      868.938
01/20/2014  06:44:00     -136.124      -24.241      -21.426       29.609       21.145       14.008      876.669      447.110      196.230        1.055        0.076      138.265        6.532        0.002      329.700       -3.398      868.950
01/20/2014  06:45:00      -89.700      -39.877      -10.536       20.960       17.099       12.116      439.339      292.359      146.800        0.531        0.044       98.164        9.065        0.009      329.795       -3.242      868.961
01/20/2014  06:46:00      -81.097      -41.945      -12.594       21.835       31.107       21.312      476.771      967.634      454.210        0.520        0.095       91.302       16.830        0.034      329.791       -3.250      868.966
01/20/2014  06:47:00     -133.922      -14.222      -19.760       20.671       15.905       10.409      427.271      252.957      108.345        0.966        0.039      134.675        8.939        0.004      329.809       -3.220      868.963
01/20/2014  06:48:00     -133.214      -13.375      -15.702       17.871       13.179       10.349      319.365      173.679      107.109        0.939        0.030      133.884        7.245        0.003      329.835       -3.176      868.966
01/20/2014  06:49:00     -118.117      -20.975      -14.327       21.524       19.744       15.254      463.296      389.824      232.670        0.784        0.054      119.964        9.512        0.006      329.854       -3.147      868.980
01/20/2014  06:50:00     -132.091       -2.328      -16.747       10.674        8.078        8.218      113.935       65.248       67.544        0.899        0.012      132.111        4.841        0.001      330.079       -2.776      868.982
01/20/2014  06:51:00     -122.499        0.307      -17.337       18.312       11.513        9.089      335.313      132.547       82.605        0.793        0.028      122.499        4.781        0.002      330.095       -2.751      868.983
01/20/2014  06:52:00     -108.495       -5.097      -13.991       24.957       16.368       12.903      622.845      267.902      166.478        0.652        0.053      108.615       12.670        0.014      330.084       -2.770      868.992
01/20/2014  06:53:00      -93.099      -32.857      -17.210       25.998       24.660       14.620      675.880      608.100      213.734        0.577        0.075       98.726       12.405        0.016      330.092       -2.756      869.001
01/20/2014  06:54:00      -36.122      -36.128       -5.080       39.577       28.049       20.314     1566.378      786.718      412.675        0.270        0.138       51.088       14.735        0.083      329.920       -3.038      869.013
01/20/2014  06:55:00      -90.952      -60.227       -8.909       24.255       27.946       17.656      588.286      780.996      311.742        0.683        0.084      109.085       12.020        0.012      329.683       -3.425      869.030
01/20/2014  06:56:00     -124.860      -54.663      -19.731       25.483       27.901       15.871      649.370      778.471      251.878        1.032        0.084      136.301       14.230        0.011      329.648       -3.484      869.036
01/20/2014  06:57:00     -122.681      -43.374      -15.014       34.763       34.632       15.707     1208.456     1199.371      246.694        0.991        0.133      130.123       12.553        0.009      329.630       -3.513      869.036
01/20/2014  06:58:00     -122.458      -27.376       -8.187       33.661       30.689       24.788     1133.057      941.839      614.433        0.925        0.134      125.480       17.112        0.019      329.574       -3.603      869.055
01/20/2014  06:59:00     -109.422      -47.046       -5.551       46.840       30.369       22.979     2194.024      922.280      528.034        0.893        0.182      119.107       26.804        0.051      329.640       -3.496      869.075
01/20/2014  07:00:00     -108.331      -20.404       -1.176       40.487       29.406       21.426     1639.195      864.711      459.067        0.756        0.148      110.236       18.720        0.029      329.658       -3.467      869.087
01/20/2014  07:01:00      -96.973      -33.815       -2.085       39.157       36.860       21.119     1533.305     1358.652      446.018        0.694        0.167      102.700        8.685        0.007      329.672       -3.445      869.092
01/20/2014  07:02:00     -109.956      -40.860      -10.790       38.137       28.063       21.282     1454.436      787.510      452.935        0.829        0.135      117.303       20.308        0.030      329.678       -3.435      869.103
01/20/2014  07:03:00     -103.258      -39.942      -10.364       24.492       21.255       18.590      599.837      451.792      345.577        0.688        0.070      110.714       10.263        0.009      329.683       -3.425      869.103
01/20/2014  07:04:00     -109.339      -26.048      -16.295       15.805       17.252       11.172      249.783      297.639      124.805        0.679        0.034      112.398        9.442        0.007      329.694       -3.408      869.114
01/20/2014  07:05:00     -117.629      -21.460      -12.650       23.473       13.880       11.339      550.988      192.649      128.565        0.766        0.044      119.571       11.240        0.009      329.859       -3.138      869.127
01/20/2014  07:06:00     -125.509       -5.430      -13.445       16.103       14.531       10.770      259.301      211.163      115.985        0.827        0.029      125.627        7.365        0.003      329.889       -3.089      869.133
01/20/2014  07:07:00     -106.517        0.877       -0.121       31.766       16.209       17.751     1009.065      262.730      315.105        0.647        0.079      106.521       19.472        0.033      329.861       -3.134      869.138
01/20/2014  07:08:00     -109.656       -3.351       -8.180       29.417       17.384       14.860      865.381      302.217      220.815        0.675        0.069      109.707       14.749        0.018      329.913       -3.050      869.144
01/20/2014  07:09:00      -42.077       -2.697        3.345       27.202       15.133       16.129      739.939      229.019      260.157        0.151        0.061       42.163       16.054        0.145      329.807       -3.223      869.145
01/20/2014  07:10:00      -75.706      -22.472       -7.196       23.443       21.402       12.954      549.595      458.029      167.797        0.373        0.059       78.971       10.582        0.018      329.860       -3.138      869.157
01/20/2014  07:11:00      -81.788      -29.525       -7.552       27.628       22.772       13.348      763.307      518.565      178.156        0.454        0.073       86.954       10.285        0.014      329.879       -3.105      869.160
01/20/2014  07:12:00      -94.830      -39.217       -5.496       25.651       21.855       12.091      657.988      477.641      146.203        0.592        0.064      102.620       12.249        0.014      329.779       -3.269      869.170
01/20/2014  07:13:00      -82.857      -24.584       -4.647       19.954       28.043       18.916      398.167      786.388      357.813        0.452        0.077       86.428       11.730        0.018      329.701       -3.397      869.173
01/20/2014  07:14:00      -67.937      -12.167       -1.272       23.042       25.085       16.950      530.929      629.250      287.303        0.311        0.072       69.018       11.505        0.028      329.648       -3.483      869.172
01/20/2014  07:15:00      -68.076      -13.522       -4.756       34.943       18.662       14.609     1220.986      348.263      213.430        0.331        0.089       69.406       13.909        0.040      329.637       -3.502      869.173
01/20/2014  07:16:00      -47.721       -9.931       -1.020       15.155       14.074       13.306      229.668      198.088      177.040        0.149        0.030       48.743        8.428        0.030      329.655       -3.470      869.185
01/20/2014  07:17:00      -48.475        4.795       -8.504       19.720       11.103       11.532      388.894      123.269      132.977        0.155        0.032       48.712        8.440        0.030      329.721       -3.363      869.201
01/20/2014  07:18:00      -52.570        0.342       -4.288       17.351       20.724       10.657      301.074      429.486      113.563        0.181        0.042       52.572        9.529        0.033      329.702       -3.395      869.208
01/20/2014  07:19:00      -66.388       -7.592      -14.157       10.535       14.881       10.834      110.978      221.454      117.377        0.256        0.022       66.821        7.753        0.013      329.702       -3.395      869.214
01/20/2014  07:20:00      -83.604      -24.499      -14.859       18.642       13.144       10.154      347.506      172.773      103.099        0.422        0.031       87.120        3.906        0.002      329.713       -3.377      869.219
01/20/2014  07:21:00     -109.590      -37.262      -17.554       14.435       16.756       13.134      208.374      280.775      172.498        0.718        0.033      115.752       10.035        0.008      329.621       -3.529      869.213
01/20/2014  07:22:00      -92.766      -35.267      -10.997       20.342       20.962       14.495      413.817      439.422      210.094        0.552        0.053       99.244        6.918        0.005      329.531       -3.675      869.208
01/20/2014  07:23:00      -79.078      -21.021      -10.452       17.477       18.976       10.640      305.438      360.094      113.204        0.379        0.039       81.825        3.663        0.002      329.569       -3.614      869.215
01/20/2014  07:24:00      -67.359      -26.458      -19.451       12.224       15.786        9.599      149.437      249.197       92.149        0.305        0.025       72.369        3.673        0.003      329.619       -3.532      869.223
01/20/2014  07:25:00      -90.960      -19.624      -20.459       14.016       10.258        8.839      196.458      105.225       78.126        0.473        0.019       93.053        5.856        0.004      329.569       -3.612      869.232
01/20/2014  07:26:00      -92.275      -22.129      -15.729       11.088       13.860       10.053      122.945      192.091      101.073        0.483        0.021       94.892        6.944        0.005      329.524       -3.686      869.237
01/20/2014  07:27:00      -86.472      -20.092      -13.590       18.008        9.208        8.423      324.276       84.781       70.950        0.427        0.024       88.776        5.521        0.004      329.515       -3.701      869.246
01/20/2014  07:28:00      -83.666      -24.858      -17.816       16.466       15.440       11.304      271.126      238.383      127.790        0.429        0.032       87.280        1.628        0.000      329.508       -3.711      869.252
01/20/2014  07:29:00      -76.464      -29.091       -5.539       18.252       24.359       14.415      333.153      593.356      207.803        0.393        0.057       81.810        9.220        0.013      329.532       -3.673      869.252
01/20/2014  07:30:00      -91.496      -27.726      -15.081       20.383       24.838       13.676      415.474      616.940      187.038        0.529        0.061       95.604        6.689        0.005      329.563       -3.622      869.258
01/20/2014  07:31:00      -89.512      -15.051      -13.176       15.876       16.863        7.634      252.039      284.374       58.278        0.450        0.030       90.769        3.351        0.001      329.617       -3.535      869.271
01/20/2014  07:32:00      -70.710      -22.104      -12.735       17.471       15.051        9.873      305.240      226.528       97.467        0.314        0.031       74.084        6.066        0.007      329.656       -3.471      869.296
01/20/2014  07:33:00      -75.038      -17.809      -11.766       13.030       16.622        9.212      169.787      276.300       84.866        0.331        0.027       77.122        7.395        0.009      329.672       -3.443      869.314
01/20/2014  07:34:00      -87.316      -10.418      -14.374       12.773       12.680        8.260      163.149      160.774       68.227        0.417        0.020       87.935        6.621        0.006      329.736       -3.339      869.329
01/20/2014  07:35:00      -85.880      -10.402      -10.911       14.996       12.356        9.392      224.887      152.678       88.210        0.403        0.023       86.508        6.422        0.006      329.735       -3.340      869.331
01/20/2014  07:36:00      -95.587      -25.074      -17.204       18.975       15.980       12.350      360.057      255.348      152.514        0.541        0.038       98.821       10.029        0.010      329.766       -3.289      869.338
01/20/2014  07:37:00      -87.779      -30.264      -14.068       25.833       24.237       19.986      667.349      587.437      399.424        0.524        0.083       92.850       20.108        0.047      329.763       -3.294      869.334
01/20/2014  07:38:00     -111.363       -1.025      -12.808       24.956       15.583       15.689      622.803      242.830      246.158        0.684        0.056      111.368       12.908        0.013      329.758       -3.303      869.331
01/20/2014  07:39:00     -125.172      -14.145      -15.932       16.184       14.253       11.804      261.917      203.149      139.329        0.836        0.030      125.969        9.989        0.006      329.749       -3.316      869.335
01/20/2014  07:40:00     -138.465       -5.274      -21.546       13.509       11.866       10.608      182.491      140.793      112.522        1.005        0.022      138.565        6.381        0.002      329.768       -3.287      869.327
01/20/2014  07:41:00     -144.479       -1.565      -22.138       19.385       14.818        9.110      375.763      219.588       82.991        1.102        0.034      144.488        2.889        0.000      329.777       -3.272      869.323
01/20/2014  07:42:00     -113.255      -14.415      -13.808       33.504       20.357       19.347     1122.493      414.413      374.311        0.757        0.096      114.169       19.493        0.029      329.736       -3.339      869.342
01/20/2014  07:43:00     -119.738      -22.098      -13.137       27.003       26.861       15.215      729.156      721.520      231.493        0.834        0.084      121.760       14.750        0.015      329.831       -3.185      869.348
01/20/2014  07:44:00     -125.909      -18.079      -15.686       22.729       17.080       16.355      516.593      291.735      267.497        0.875        0.054      127.200       13.980        0.012      329.921       -3.036      869.346
01/20/2014  07:45:00     -112.754      -14.873      -16.987       17.573       12.897       11.314      308.811      166.337      128.013        0.691        0.030      113.730        7.454        0.004      329.862       -3.133      869.348
01/20/2014  07:46:00     -102.225      -13.255      -11.453       14.607       13.793       10.729      213.358      190.250      115.119        0.564        0.026      103.081        6.993        0.005      329.886       -3.095      869.352
01/20/2014  07:47:00     -107.183       -1.124      -11.084       14.993       10.048        8.980      224.788      100.972       80.643        0.601        0.020      107.189        6.058        0.003      330.017       -2.880      869.360
01/20/2014  07:48:00     -116.207       -0.323      -12.840       13.496        8.803        8.195      182.152       77.490       67.164        0.700        0.016      116.207        5.970        0.003      330.142       -2.674      869.364
01/20/2014  07:49:00      -88.024       -2.936       -3.550       21.757       14.017       14.127      473.373      196.465      199.570        0.432        0.043       88.073       11.863        0.018      330.165       -2.637      869.380
01/20/2014  07:50:00      -82.421        2.341       -2.750       20.683       15.516       12.698      427.785      240.757      161.241        0.382        0.041       82.454       10.239        0.015      330.246       -2.503      869.393
01/20/2014  07:51:00      -76.562       -9.977       -4.914       13.523       11.334        6.383      182.868      128.454       40.745        0.317        0.018       77.209        3.459        0.002      330.292       -2.429      869.385
01/20/2014  07:52:00      -62.362      -18.086      -10.847       11.630       10.631        7.087      135.251      113.025       50.225        0.232        0.015       64.932        2.341        0.001      330.222       -2.544      869.399
01/20/2014  07:53:00      -73.720       -5.691       -5.139       15.356       13.030       10.704      235.805      169.785      114.568        0.301        0.026       73.939        9.163        0.015      330.194       -2.588      869.395
01/20/2014  07:54:00      -76.065       -1.026       -4.883       16.072       15.789       11.179      258.297      249.278      124.974        0.322        0.032       76.071        8.748        0.013      330.207       -2.568      869.404
01/20/2014  07:55:00      -19.229       -6.627        0.285       20.436        9.607        7.881      417.638       92.286       62.113        0.049        0.029       20.338        8.756        0.185      330.360       -2.318      869.408
01/20/2014  07:56:00      -15.050        0.020       -3.835       10.559        9.309       12.175      111.489       86.658      148.236        0.029        0.017       15.050        5.598        0.138      330.533       -2.033      869.426
01/20/2014  07:57:00      -31.903       -9.120       -6.738        4.085        4.638        5.854       16.683       21.508       34.266        0.061        0.004       33.181        3.569        0.012      330.650       -1.843      869.432
01/20/2014  07:58:00      -34.354        0.179        4.947        4.870        5.158        5.899       23.721       26.609       34.800        0.064        0.004       34.354        3.066        0.008      330.812       -1.575      869.442
01/20/2014  07:59:00      -12.501      -15.333       -0.939       13.224        6.491        7.382      174.871       42.135       54.489        0.033        0.014       19.783        5.569        0.079      330.654       -1.836      869.457
01/20/2014  08:00:00      -17.807      -20.096        6.712       16.307        9.711       11.615      265.928       94.295      134.902        0.063        0.025       26.850        9.491        0.125      330.629       -1.875      869.470
01/20/2014  08:01:00      -51.427      -22.261       -9.562       12.186        8.484        8.462      148.492       71.985       71.611        0.176        0.015       56.038        7.669        0.019      330.525       -2.047      869.482
01/20/2014  08:02:00      -57.467       -7.180       -7.470       11.550       12.695        7.538      133.398      161.153       56.820        0.188        0.018       57.914        6.107        0.011      330.455       -2.160      869.476
01/20/2014  08:03:00      -40.380        0.324       -5.409        8.642        6.988        5.341       74.679       48.829       28.524        0.091        0.008       40.381        1.331        0.001      330.483       -2.114      869.472
01/20/2014  08:04:00      -37.060      -16.189       -4.696        8.238        8.121        4.771       67.864       65.947       22.764        0.091        0.008       40.441        4.325        0.011      330.603       -1.919      869.474
01/20/2014  08:05:00      -51.364      -21.190       -6.408       25.065        9.693        7.143      628.274       93.956       51.021        0.195        0.039       55.564        6.749        0.015      330.540       -2.021      869.474
01/20/2014  08:06:00      -72.795      -12.537       -7.013       22.473       13.570       12.126      505.037      184.138      147.051        0.317        0.042       73.866       11.598        0.025      330.465       -2.145      869.473
01/20/2014  08:07:00      -83.222       -5.948       -3.999       20.607       11.460       10.130      424.649      131.335      102.611        0.382        0.033       83.434        8.508        0.010      330.512       -2.069      869.479
01/20/2014  08:08:00      -89.315      -12.211       -5.791       28.452       13.279       11.891      809.516      176.340      141.388        0.464        0.056       90.145       13.658        0.023      330.604       -1.916      869.485
01/20/2014  08:09:00      -65.518       -9.294        0.020       15.473       16.055        9.555      239.423      257.775       91.303        0.248        0.029       66.174        7.966        0.014      330.634       -1.867      869.496
01/20/2014  08:10:00      -29.103       -2.481        2.339       14.247       12.775       11.645      202.978      163.191      135.596        0.068        0.025       29.208        8.100        0.077      330.794       -1.605      869.502
01/20/2014  08:11:00       -9.855       -5.501        1.402        9.932        6.581        7.489       98.642       43.310       56.092        0.016        0.010       11.287        5.148        0.208      330.944       -1.358      869.506
01/20/2014  08:12:00       -2.934       -7.329       -1.164        9.598        8.331        7.010       92.123       69.399       49.138        0.014        0.011        7.895        3.508        0.197      331.011       -1.248      869.514
01/20/2014  08:13:00      -10.978        0.884        2.490        9.272        7.411        8.260       85.964       54.921       68.232        0.017        0.010       11.013        3.338        0.092      331.138       -1.039      869.520
01/20/2014  08:14:00      -23.836        2.593       -1.862        8.491        4.674        4.450       72.091       21.850       19.801        0.035        0.006       23.977        2.698        0.013      330.961       -1.330      869.533
01/20/2014  08:15:00      -13.744       -2.932       -7.507        5.668        5.142        3.498       32.125       26.438       12.236        0.016        0.004       14.053        1.368        0.009      331.175       -0.979      869.545
01/20/2014  08:16:00      -21.132        8.921        7.247        9.827       10.592       12.902       96.579      112.187      166.469        0.048        0.019       22.938        9.367        0.167      331.283       -0.802      869.560
01/20/2014  08:17:00      -34.150       13.092       -2.114        5.449        6.759        6.819       29.687       45.682       46.505        0.073        0.006       36.574        3.979        0.012      331.062       -1.165      869.570
01/20/2014  08:18:00      -27.021       10.671       -8.214        4.383        6.854        5.180       19.210       46.977       26.837        0.050        0.005       29.052        3.433        0.014      331.115       -1.078      869.567
01/20/2014  08:19:00      -24.103        1.927       -5.306        6.335        7.949        6.884       40.131       63.184       47.392        0.038        0.008       24.180        3.829        0.025      331.197       -0.943      869.570
01/20/2014  08:20:00      -37.845       -8.797       -4.757        5.128        5.480        5.800       26.292       30.026       33.634        0.081        0.004       38.854        3.969        0.010      331.212       -0.917      869.558
01/20/2014  08:21:00      -30.715       -3.029       -1.561       10.580        8.370        6.968      111.942       70.055       48.552        0.059        0.012       30.864        6.399        0.043      331.258       -0.842      869.556
01/20/2014  08:22:00      -26.322      -14.744       -6.321        6.041        7.755        4.978       36.497       60.132       24.778        0.054        0.006       30.170        4.734        0.025      331.233       -0.884      869.561
01/20/2014  08:23:00      -23.976        3.414       -4.312       10.585        9.415        7.223      112.049       88.646       52.171        0.043        0.013       24.218        7.201        0.088      331.316       -0.746      869.571
01/20/2014  08:24:00      -17.528       -2.988        1.839        4.837        4.511        7.065       23.393       20.345       49.908        0.021        0.005       17.780        2.097        0.014      331.417       -0.582      869.584
01/20/2014  08:25:00       -3.649       21.131       30.465        9.559       19.647       12.469       91.381      386.014      155.482        0.101        0.032       21.444        9.957        0.216      331.826        0.091      869.596
01/20/2014  08:26:00       33.667       28.407       13.783       19.077       14.109       18.700      363.932      199.078      349.699        0.152        0.046       44.050       13.045        0.088      331.443       -0.539      869.609
01/20/2014  08:27:00       19.704       25.014       13.174       16.952       12.853       17.786      287.362      165.210      316.357        0.098        0.038       31.842       12.458        0.153      331.590       -0.296      869.628
01/20/2014  08:28:00       -3.369        2.684       16.748       11.717       23.292       14.645      137.281      542.510      214.485        0.060        0.045        4.307       10.912        6.417      331.892        0.200      869.642
01/20/2014  08:29:00        2.361       -0.194        5.418       15.844       14.609       11.032      251.043      213.430      121.708        0.031        0.029        2.369        7.831       10.931      331.755       -0.025      869.659
01/20/2014  08:30:00       -0.838        1.903        6.597       11.054       15.742        8.023      122.192      247.806       64.373        0.024        0.022        2.079        3.886        3.493      331.855        0.139      869.671
01/20/2014  08:31:00       -8.015      -10.920        5.159        7.715       10.620        7.242       59.520      112.788       52.443        0.022        0.011       13.545        5.099        0.142      331.750       -0.033      869.690
01/20/2014  08:32:00       -0.382        0.934       14.184       13.818       13.659       10.072      190.930      186.557      101.449        0.034        0.024        1.010        7.148       50.121      332.127        0.588      869.695
01/20/2014  08:33:00       54.714       27.867        5.502       19.823       16.339       15.470      392.954      266.953      239.315        0.235        0.045       61.401        9.339        0.023      331.605       -0.273      869.711
01/20/2014  08:34:00       50.448       38.813       -3.944       22.981       21.265       21.824      528.149      452.208      476.297        0.276        0.073       63.651        8.046        0.016      331.625       -0.241      869.715
01/20/2014  08:35:00       67.279       41.680        4.598       23.802       24.480       22.962      566.554      599.268      527.246        0.399        0.085       79.143       12.605        0.025      331.668       -0.167      869.727
01/20/2014  08:36:00       87.372       68.992       -5.327       19.989       20.442       20.195      399.553      417.887      407.845        0.682        0.061      111.327       11.632        0.011      331.498       -0.447      869.746
01/20/2014  08:37:00       83.937       66.292        0.858       19.517       19.958       20.768      380.917      398.318      431.289        0.633        0.061      106.958        6.724        0.004      331.450       -0.527      869.773
01/20/2014  08:38:00      103.669       74.466        8.613       28.555       18.899       21.037      815.413      357.160      442.546        0.899        0.081      127.642       11.848        0.009      331.460       -0.510      869.784
01/20/2014  08:39:00       78.012       53.258       12.667       25.905       26.666       28.579      671.063      711.057      816.746        0.564        0.110       94.458       12.106        0.016      331.578       -0.318      869.789
01/20/2014  08:40:00       63.484       68.609       18.858       21.246       22.365       23.791      451.413      500.171      566.023        0.531        0.076       93.474       15.211        0.026      331.597       -0.286      869.778
01/20/2014  08:41:00       64.340       64.996       -2.541       42.560       22.709       25.179     1811.328      515.715      633.985        0.567        0.148       91.456       16.345        0.032      331.596       -0.286      869.762
01/20/2014  08:42:00       80.346       69.077       -0.263       26.321       21.034       22.680      692.797      442.430      514.381        0.644        0.082      105.958       15.347        0.021      331.602       -0.277      869.764
01/20/2014  08:43:00       82.881       53.316       -0.222       18.542       18.522       24.279      343.794      343.076      589.473        0.549        0.064       98.549       13.062        0.018      331.463       -0.504      869.763
01/20/2014  08:44:00       69.967       48.033        3.296       21.406       16.402       16.490      458.219      269.014      271.922        0.411        0.050       84.868        8.073        0.009      331.433       -0.555      869.760
01/20/2014  08:45:00       68.449       44.498        3.878       24.123       16.714       23.496      581.918      279.346      552.085        0.405        0.071       81.641       13.696        0.028      331.617       -0.253      869.753
01/20/2014  08:46:00       52.079       47.594       -3.053       16.379       12.345       16.454      268.266      152.400      270.741        0.284        0.035       70.551        4.989        0.005      331.633       -0.226      869.744
01/20/2014  08:47:00       61.922       39.192        5.273       11.951       12.646       16.419      142.820      159.921      269.597        0.299        0.029       73.283        8.309        0.013      331.650       -0.196      869.740
01/20/2014  08:48:00       77.419       48.470       -8.709       19.427       17.337       19.795      377.409      300.580      391.850        0.474        0.053       91.340       12.673        0.019      331.693       -0.126      869.747
01/20/2014  08:49:00       61.979       37.116        5.136       19.938       12.223       17.644      397.540      149.400      311.321        0.305        0.043       72.242        9.631        0.018      331.821        0.084      869.754
01/20/2014  08:50:00       36.692       18.676       -4.207       14.280       19.771       11.439      203.915      390.909      130.855        0.122        0.036       41.171        2.849        0.005      331.842        0.119      869.750
01/20/2014  08:51:00       63.994       22.528        7.650       27.227       15.066       21.756      741.318      226.996      473.330        0.305        0.072       67.843        9.824        0.021      332.030        0.427      869.749
01/20/2014  08:52:00       63.039       62.607        7.482       13.698       18.584       19.464      187.644      345.360      378.828        0.443        0.046       88.846       13.226        0.022      331.933        0.269      869.753
01/20/2014  08:53:00       59.923       54.759        9.790       19.444       15.567       19.223      378.086      242.318      369.526        0.384        0.049       81.174        8.202        0.010      332.015        0.402      869.760
01/20/2014  08:54:00       72.024       44.050       -4.983       20.206       15.821       17.939      408.289      250.298      321.821        0.407        0.049       84.426        9.448        0.013      332.132        0.596      869.762
01/20/2014  08:55:00       41.077       32.205        7.808       15.339       12.817       21.114      235.295      164.273      445.819        0.182        0.042       52.197        7.789        0.022      332.033        0.432      869.757
01/20/2014  08:56:00       22.003       29.399       27.104       23.472       12.407       12.183      550.928      153.930      148.414        0.147        0.043       36.721        5.398        0.022      332.332        0.926      869.762
01/20/2014  08:57:00        5.337       34.576       52.024       19.329       17.829       20.085      373.627      317.860      403.403        0.251        0.055       34.985       16.507        0.223      332.414        1.060      869.768
01/20/2014  08:58:00       -8.136       34.991       61.276       10.552       29.241       19.237      111.353      855.049      370.078        0.319        0.067       35.924       19.954        0.309      332.735        1.591      869.768
01/20/2014  08:59:00       -5.705       25.735       53.888       12.322       25.042       17.004      151.820      627.118      289.147        0.233        0.053       26.360       14.430        0.300      332.750        1.616      869.765
01/20/2014  09:00:00      -10.361        6.708       43.492       10.943       28.443       25.746      119.745      809.014      662.865        0.182        0.080       12.343       25.139        4.148      332.711        1.553      869.763
01/20/2014  09:01:00        6.116       -0.454       29.692       28.139       33.788       19.580      791.776     1141.662      383.379        0.162        0.116        6.133       13.775        5.045      332.817        1.727      869.777
01/20/2014  09:02:00        2.493       23.447       43.212       20.369       30.849       20.744      414.906      951.664      430.323        0.211        0.090       23.579       17.537        0.553      332.799        1.697      869.786
01/20/2014  09:03:00        3.203        5.092       30.977       27.929       24.203       16.417      780.055      585.765      269.523        0.132        0.082        6.016       10.609        3.109      332.939        1.927      869.794
01/20/2014  09:04:00        1.639      -36.806       12.097       32.561       41.532       26.681     1060.225     1724.939      711.859        0.250        0.175       36.843       27.664        0.564      332.788        1.679      869.802
01/20/2014  09:05:00      -23.509      -12.781       18.762       19.348       27.006       18.265      374.334      729.336      333.606        0.125        0.072       26.758       19.170        0.513      332.757        1.627      869.815
01/20/2014  09:06:00      -27.429       15.604       28.848       17.935       22.055       27.619      321.656      486.417      762.816        0.170        0.079       31.557       18.208        0.333      332.773        1.653      869.823
01/20/2014  09:07:00        8.276       12.296       41.025       21.945       23.564       25.611      481.591      555.277      655.920        0.180        0.085       14.822       14.722        0.987      333.087        2.172      869.832
01/20/2014  09:08:00      -13.021        8.808       45.884       20.957       43.498       21.555      439.205     1892.077      464.633        0.257        0.140       15.720       24.274        2.384      333.094        2.185      869.852
01/20/2014  09:09:00      -22.385      -60.426       15.515       27.362       47.700       24.363      748.674     2275.294      593.575        0.400        0.181       64.439       20.911        0.105      332.708        1.547      869.869
01/20/2014  09:10:00       -7.735       28.882       58.367       13.677       33.273       15.990      187.073     1107.122      255.695        0.293        0.077       29.900       14.807        0.245      333.064        2.135      869.881
01/20/2014  09:11:00       14.854       -4.058       32.020       27.600       38.928       21.093      761.786     1515.425      444.898        0.199        0.136       15.398       24.270        2.484      333.046        2.104      869.894
01/20/2014  09:12:00      -22.130       -9.248       15.705       29.024       27.329       18.919      842.402      746.854      357.919        0.138        0.097       23.984       17.898        0.557      333.070        2.145      869.900
01/20/2014  09:13:00      -17.878      -14.416       -4.056       19.568       19.580       22.725      382.891      383.371      516.422        0.091        0.064       22.966        9.719        0.179      332.843        1.771      869.914
01/20/2014  09:14:00      -39.700      -50.715       -3.496       38.786       24.855       16.078     1504.389      617.762      258.511        0.327        0.119       64.406       15.297        0.056      332.504        1.209      869.926
01/20/2014  09:15:00        1.802        8.175        2.002       29.745       25.516       28.394      884.763      651.076      806.241        0.121        0.117        8.371       18.033        4.641      332.816        1.726      869.941
01/20/2014  09:16:00       10.240       24.501       18.875       17.597       23.315       30.255      309.645      543.605      915.352        0.141        0.088       26.555       15.961        0.361      333.033        2.084      869.937
01/20/2014  09:17:00       19.612       40.335       51.308       27.725       32.303       16.472      768.657     1043.466      271.335        0.336        0.104       44.850       14.408        0.103      333.019        2.061      869.945
01/20/2014  09:18:00      -14.499       18.509       49.795       20.757       26.337       17.517      430.850      693.661      306.862        0.223        0.072       23.512       16.326        0.482      333.495        2.848      869.957
01/20/2014  09:19:00       17.290       48.269       65.156       36.311       31.476       19.066     1318.517      990.760      363.531        0.477        0.134       51.272       20.186        0.155      333.240        2.425      869.973
01/20/2014  09:20:00       29.662       46.740       59.592       28.274       52.753       22.598      799.397     2782.868      510.667        0.535        0.205       55.357       20.198        0.133      333.087        2.173      869.987
01/20/2014  09:21:00       31.918       56.490       76.611       38.573       42.516       25.816     1487.870     1807.568      666.480        0.702        0.198       64.884       20.449        0.099      333.171        2.311      869.997
01/20/2014  09:22:00       54.416       68.619       57.595       46.100       32.871       35.513     2125.170     1080.474     1261.161        0.773        0.223       87.576       28.286        0.104      332.899        1.862      870.014
01/20/2014  09:23:00       26.584       43.872       50.260       34.264       29.541       21.134     1173.992      872.656      446.635        0.382        0.125       51.298       14.603        0.081      333.175        2.317      870.028
01/20/2014  09:24:00        5.869       11.276       46.926       21.608       45.059       25.429      466.915     2030.338      646.624        0.275        0.157       12.712       20.448        2.587      333.400        2.690      870.032
01/20/2014  09:25:00       46.771       44.300       46.604       27.749       24.230       30.868      770.002      587.078      952.823        0.432        0.115       64.421       15.352        0.057      333.355        2.615      870.027
01/20/2014  09:26:00       71.959       57.390       35.587       24.326       19.206       27.737      591.737      368.882      769.353        0.573        0.086       92.042       11.019        0.014      332.861        1.799      870.021
01/20/2014  09:27:00       -5.276        6.685       21.864       25.367       38.033       18.928      643.472     1446.500      358.258        0.150        0.122        8.516       10.444        1.504      333.340        2.592      870.013
01/20/2014  09:28:00      -31.230       23.402       16.591       24.124       46.197       25.913      581.943     2134.145      671.470        0.259        0.169       39.025       22.441        0.331      333.274        2.482      870.012
01/20/2014  09:29:00      -36.340      -17.068        0.197       22.834       31.118       17.928      521.372      968.348      321.400        0.171        0.091       40.148       16.446        0.168      333.237        2.420      870.020
01/20/2014  09:30:00      -34.612        2.717       -7.080       17.673       27.004       20.230      312.350      729.197      409.242        0.135        0.073       34.718       11.959        0.119      333.190        2.343      870.019
01/20/2014  09:31:00      -37.804      -63.904        1.416       32.760       42.420       21.045     1073.192     1799.425      442.895        0.441        0.166       74.248       24.618        0.110      333.100        2.194      870.024
01/20/2014  09:32:00      -45.072      -40.795      -10.788       27.991       21.452       11.897      783.511      460.190      141.535        0.260        0.069       60.793       12.404        0.042      333.034        2.086      870.034
01/20/2014  09:33:00      -22.751      -35.088        3.027       26.176       34.104       18.876      685.186     1163.075      356.299        0.198        0.110       41.819       21.370        0.261      333.380        2.656      870.044
01/20/2014  09:34:00      -52.586      -66.850       -9.628       16.481       20.770       14.883      271.608      431.400      221.513        0.413        0.046       85.054       12.675        0.022      333.047        2.108      870.052
01/20/2014  09:35:00      -51.358      -30.098        1.600       18.415       26.502       11.306      339.094      702.353      127.834        0.236        0.058       59.528       13.865        0.054      333.162        2.298      870.067
01/20/2014  09:36:00      -15.592      -17.556       -9.138       16.576       19.618       16.644      274.762      384.881      277.031        0.079        0.047       23.480       12.914        0.302      333.309        2.540      870.073
01/20/2014  09:37:00      -27.581      -35.599       -6.431       16.316       20.311        6.595      266.209      412.535       43.498        0.140        0.036       45.034        6.165        0.019      333.144        2.268      870.088
01/20/2014  09:38:00      -10.728       -1.114       -0.901        8.018        4.838        6.189       64.288       23.408       38.301        0.012        0.006       10.786        5.508        0.261      333.605        3.030      870.102
01/20/2014  09:39:00      -22.108        0.884       -3.405       18.495        5.836        6.139      342.073       34.056       37.683        0.046        0.021       22.125        5.690        0.066      333.434        2.746      870.121
01/20/2014  09:40:00      -31.029        2.066       -0.744       13.232       17.996       13.243      175.091      323.839      175.373        0.082        0.034       31.098       10.969        0.124      333.520        2.889      870.147
01/20/2014  09:41:00      -42.640       -7.943       -9.339        9.370        6.361        7.740       87.788       40.468       59.903        0.108        0.009       43.373        3.442        0.006      333.318        2.553      870.156
01/20/2014  09:42:00      -11.711      -15.534       -4.871        9.874       10.475        7.305       97.494      109.725       53.357        0.033        0.013       19.454        8.128        0.175      333.478        2.819      870.167
01/20/2014  09:43:00      -21.523      -13.734        1.403        9.231       11.971       11.994       85.202      143.297      143.859        0.051        0.019       25.532        7.743        0.092      333.620        3.053      870.184
01/20/2014  09:44:00      -29.912        5.513        1.456       10.406        7.960        7.146      108.276       63.355       51.060        0.057        0.011       30.416        6.067        0.040      333.535        2.913      870.195
01/20/2014  09:45:00       -6.186       11.341       31.564       15.657       13.634       25.184      245.144      185.887      634.230        0.111        0.053       12.919       15.396        1.420      334.158        3.947      870.193
01/20/2014  09:46:00        2.572       29.988       51.457       18.935       25.027       15.575      358.551      626.331      242.586        0.239        0.061       30.098       11.822        0.154      334.108        3.863      870.181
01/20/2014  09:47:00        4.211       29.639       59.410       23.795       27.553       13.404      566.218      759.158      179.657        0.297        0.075       29.937       14.638        0.239      334.312        4.201      870.170
01/20/2014  09:48:00       80.150       68.616       26.336       30.992       32.011       30.820      960.502     1024.680      949.894        0.738        0.147      105.510       11.224        0.011      333.679        3.152      870.174
01/20/2014  09:49:00       95.094       63.738        3.789       30.263       23.134       33.430      915.824      535.170     1117.568        0.784        0.128      114.478       21.231        0.034      333.562        2.957      870.188
01/20/2014  09:50:00       84.463       63.118        4.017       40.979       35.785       33.399     1679.254     1280.598     1115.468        0.760        0.204      105.441       16.134        0.023      333.746        3.263      870.188
01/20/2014  09:51:00      165.049       80.932       12.091       52.171       33.022       34.753     2721.813     1090.472     1207.793        1.948        0.251      183.824       19.151        0.011      333.699        3.184      870.196
01/20/2014  09:52:00      131.360       92.366        4.812       40.667       41.632       30.483     1653.804     1733.257      929.186        1.506        0.216      160.583       27.435        0.029      333.552        2.942      870.192
01/20/2014  09:53:00      132.707       95.382       12.156       46.636       27.099       33.649     2174.936      734.356     1132.266        1.545        0.202      163.428       21.924        0.018      333.586        2.996      870.180
01/20/2014  09:54:00      114.891       86.420        9.017       26.752       22.827       31.650      715.691      521.091     1001.743        1.149        0.112      143.765       12.305        0.007      333.546        2.930      870.159
01/20/2014  09:55:00       85.870       89.268       40.549       44.411       40.851       45.765     1972.374     1668.795     2094.464        1.136        0.287      123.864       31.926        0.066      333.663        3.126      870.156
01/20/2014  09:56:00       96.567       87.896       54.100       52.738       36.127       47.074     2781.267     1305.155     2215.963        1.314        0.315      130.579       34.260        0.069      333.895        3.510      870.152
01/20/2014  09:57:00      144.465       85.454       16.343       45.101       34.363       33.823     2034.069     1180.797     1143.990        1.640        0.218      167.847       20.709        0.015      333.731        3.239      870.143
01/20/2014  09:58:00       57.539       70.082       29.802       51.254       48.333       40.480     2626.998     2336.050     1638.663        0.785        0.330       90.677       19.644        0.047      334.285        4.156      870.134
01/20/2014  09:59:00        3.401       21.485       61.342       22.973       41.175       23.627      527.760     1695.416      558.258        0.351        0.139       21.752       15.117        0.483      334.652        4.767      870.141
01/20/2014  10:00:00       72.668       80.204       55.257       51.031       33.869       28.548     2604.152     1147.105      814.980        0.967        0.228      108.228       25.943        0.057      333.999        3.682      870.134
01/20/2014  10:01:00       53.256       45.485       43.044       65.924       47.624       35.768     4345.960     2268.043     1279.371        0.732        0.395       70.037       29.801        0.181      334.177        3.977      870.116
01/20/2014  10:02:00       76.524       72.867       -4.375       31.671       39.573       31.911     1003.070     1565.993     1018.293        0.739        0.179      105.667       19.489        0.034      333.833        3.408      870.109
01/20/2014  10:03:00       26.551       64.653       63.202       38.931       37.953       58.562     1515.607     1440.424     3429.527        0.763        0.319       69.893       33.015        0.223      334.130        3.899      870.106
01/20/2014  10:04:00       64.505       85.784       81.582       33.592       27.134       28.472     1128.405      736.244      810.648        1.042        0.134      107.330       19.696        0.034      333.953        3.606      870.113
01/20/2014  10:05:00       34.785       89.977      106.500       48.760       38.030       23.898     2377.580     1446.253      571.091        1.252        0.220       96.467       24.611        0.065      334.040        3.751      870.116
01/20/2014  10:06:00       23.524       92.708      109.683       53.218       49.265       31.287     2832.171     2427.021      978.883        1.371        0.312       95.646       31.898        0.111      334.013        3.704      870.122
01/20/2014  10:07:00       91.600       77.211       48.091       61.240       43.429       41.664     3750.350     1886.037     1735.879        1.202        0.369      119.800       34.739        0.084      333.904        3.525      870.134
01/20/2014  10:08:00        3.920       67.456       97.078       38.516       43.077       28.432     1483.452     1855.593      808.389        0.907        0.207       67.569       23.823        0.124      334.340        4.249      870.137
01/20/2014  10:09:00       65.419      110.601      103.079       61.007       55.322       49.706     3721.843     3060.499     2470.649        1.819        0.463      128.500       39.970        0.097      334.119        3.881      870.158
01/20/2014  10:10:00      118.825      104.194      100.908       47.594       45.692       41.010     2265.229     2087.737     1681.784        2.060        0.302      158.037       33.544        0.045      333.943        3.588      870.162
01/20/2014  10:11:00       82.939       89.414       85.573       60.362       50.474       41.790     3643.624     2547.638     1746.435        1.507        0.397      121.957       25.931        0.045      334.026        3.726      870.167
01/20/2014  10:12:00       78.282      114.484      108.149       37.723       35.720       30.608     1423.031     1275.900      936.852        1.728        0.182      138.689       23.668        0.029      334.054        3.773      870.154
01/20/2014  10:13:00       60.560       57.611       76.933       60.511       69.625       42.236     3661.586     4847.615     1783.841        1.160        0.515       83.586       38.485        0.212      334.208        4.027      870.144
01/20/2014  10:14:00       67.883       40.908       66.710       43.916       34.152       31.034     1928.635     1166.359      963.095        0.739        0.203       79.256       21.582        0.074      334.204        4.022      870.153
01/20/2014  10:15:00       48.892       38.221       71.648       56.944       63.356       50.833     3242.674     4014.009     2583.982        0.941        0.492       62.059       56.220        0.821      334.447        4.427      870.152
01/20/2014  10:16:00       26.560       54.607       85.054       43.027       45.026       31.806     1851.336     2027.300     1011.637        0.790        0.245       60.724       22.366        0.136      334.394        4.337      870.159
01/20/2014  10:17:00       39.628       86.659       89.295       69.249       50.392       40.362     4795.485     2539.396     1629.110        1.301        0.448       95.289       39.427        0.171      334.464        4.453      870.156
01/20/2014  10:18:00        9.061       39.768       47.379       29.847       58.539       32.599      890.860     3426.780     1062.696        0.464        0.269       40.787       22.595        0.307      334.764        4.952      870.156
01/20/2014  10:19:00       42.697       54.910       31.263       51.180       35.391       42.169     2619.370     1252.547     1778.234        0.573        0.283       69.557       33.512        0.232      334.665        4.788      870.155
01/20/2014  10:20:00       49.664       75.865       59.715       74.042       34.950       46.220     5482.258     1221.536     2136.334        1.031        0.442       90.675       44.411        0.240      334.501        4.515      870.149
01/20/2014  10:21:00      -13.174       60.376       86.799       37.000       46.554       34.035     1368.989     2167.279     1158.358        0.802        0.235       61.797       26.734        0.187      334.724        4.885      870.145
01/20/2014  10:22:00       57.164       79.322       73.308       38.961       45.142       32.232     1517.991     2037.808     1038.928        0.976        0.230       97.774       24.821        0.064      334.348        4.262      870.135
01/20/2014  10:23:00       35.832       80.927       84.932       45.838       48.333       46.118     2101.144     2336.060     2126.900        1.080        0.328       88.505       41.199        0.217      334.405        4.357      870.136
01/20/2014  10:24:00       21.089       19.179       54.788       45.871       44.312       40.204     2104.187     1963.563     1616.332        0.475        0.284       28.506       31.014        1.184      334.616        4.705      870.142
01/20/2014  10:25:00       73.594       59.190       53.255       46.383       37.811       43.181     2151.429     1429.703     1864.628        0.860        0.272       94.443       25.778        0.074      334.123        3.889      870.140
01/20/2014  10:26:00       88.824       37.071       40.401       47.337       48.940       29.597     2240.756     2395.114      876.001        0.820        0.276       96.249       28.737        0.089      334.254        4.106      870.127
01/20/2014  10:27:00       34.056       92.101      101.447       53.839       59.214       40.729     2898.670     3506.280     1658.840        1.400        0.403       98.195       38.680        0.155      334.559        4.610      870.107
01/20/2014  10:28:00       97.816      119.091       85.087       41.355       28.763       35.775     1710.204      827.288     1279.832        1.740        0.191      154.112       26.374        0.029      334.242        4.085      870.100
01/20/2014  10:29:00       82.300       69.492       49.579       39.238       29.796       34.258     1539.651      887.792     1173.631        0.883        0.180      107.715       25.649        0.057      334.215        4.040      870.096
01/20/2014  10:30:00       42.931       38.136       31.060       21.872       23.607       20.083      478.379      557.273      403.324        0.285        0.072       57.423       14.849        0.067      334.383        4.320      870.093
01/20/2014  10:31:00       21.167       24.273       31.506       42.773       43.686       24.986     1829.487     1908.478      624.320        0.320        0.218       32.206       16.481        0.262      334.872        5.131      870.095
01/20/2014  10:32:00       73.552      -47.986       17.893       52.396       42.986       32.438     2745.344     1847.768     1052.227        0.684        0.282       87.821       26.579        0.092      334.545        4.588      870.098
01/20/2014  10:33:00        6.605       16.033       47.703       32.305       63.255       47.543     1043.605     4001.186     2260.377        0.494        0.365       17.341       50.032        8.325      335.010        5.361      870.092
01/20/2014  10:34:00      112.919      120.677       79.732       48.975       30.302       43.162     2398.528      918.217     1862.965        1.942        0.259      165.268       29.346        0.032      334.336        4.240      870.086
01/20/2014  10:35:00       82.637       69.977       41.788       37.238       32.218       40.487     1386.702     1037.973     1639.188        0.877        0.203      108.286       21.283        0.039      334.328        4.227      870.083
01/20/2014  10:36:00       45.977       -1.401       18.272       40.195       48.828       37.017     1615.678     2384.179     1370.255        0.391        0.269       45.999       25.080        0.297      334.593        4.668      870.070
01/20/2014  10:37:00       27.961       22.205       31.427       30.059       37.234       37.501      903.541     1386.384     1406.314        0.298        0.185       35.706       26.853        0.566      335.089        5.492      870.047
01/20/2014  10:38:00       27.549       63.818       56.027       37.083       42.935       22.828     1375.135     1843.435      521.100        0.585        0.187       69.510       21.774        0.098      334.866        5.121      870.034
01/20/2014  10:39:00      -17.897       20.983       57.125       23.654       39.170       24.795      559.489     1534.304      614.799        0.337        0.135       27.578       24.842        0.811      335.256        5.770      870.019
01/20/2014  10:40:00       68.788       48.754       28.243       61.482       42.742       43.188     3780.004     1826.853     1865.172        0.769        0.374       84.313       42.008        0.248      335.098        5.506      870.013
01/20/2014  10:41:00       64.113       81.673        7.976       44.947       45.391       42.943     2020.203     2060.383     1844.124        0.838        0.296      103.832       18.232        0.031      334.664        4.786      869.994
01/20/2014  10:42:00       25.233       90.423       97.695       39.331       39.594       44.263     1546.905     1567.651     1959.257        1.171        0.254       93.878       35.957        0.147      334.891        5.160      869.986
01/20/2014  10:43:00       32.361       59.424       75.340       38.297       60.710       40.384     1466.680     3685.674     1630.852        0.852        0.339       67.664       42.065        0.386      334.845        5.087      869.979
01/20/2014  10:44:00       13.626       36.022       58.099       50.785       48.049       51.325     2579.119     2308.672     2634.224        0.619        0.376       38.514       42.473        1.216      335.100        5.511      869.969
01/20/2014  10:45:00       58.519      -31.780        9.784       40.771       65.918       48.669     1662.240     4345.140     2368.629        0.645        0.419       66.591       46.450        0.487      334.901        5.180      869.958
01/20/2014  10:46:00       34.637      -72.601       -8.360       45.332       33.786       26.227     2055.019     1141.486      687.878        0.521        0.194       80.441       19.548        0.059      334.653        4.767      869.957
01/20/2014  10:47:00       17.057       17.455       30.641       41.915       34.846       31.657     1756.870     1214.249     1002.136        0.275        0.199       24.405       25.904        1.127      334.930        5.228      869.953
01/20/2014  10:48:00       19.995      -25.981       43.748       36.497       60.308       38.103     1332.052     3637.068     1451.857        0.470        0.321       32.784       38.390        1.371      335.247        5.753      869.946
01/20/2014  10:49:00       55.558        2.349       50.239       45.094       63.486       44.192     2033.507     4030.532     1952.964        0.681        0.401       55.607       47.009        0.715      335.264        5.784      869.930
01/20/2014  10:50:00       48.940       54.401       80.977       57.588       45.137       28.026     3316.403     2037.366      785.436        0.902        0.307       73.175       25.752        0.124      335.155        5.600      869.918
01/20/2014  10:51:00       74.424       67.801       64.500       72.660       50.306       55.152     5279.458     2530.721     3041.694        1.257        0.543      100.677       52.628        0.273      334.948        5.257      869.917
01/20/2014  10:52:00      119.247       98.059       46.823       62.421       36.165       52.513     3896.381     1307.928     2757.619        1.699        0.398      154.388       47.982        0.097      334.818        5.040      869.913
01/20/2014  10:53:00       99.687       87.781        6.684       31.651       33.406       32.723     1001.796     1115.938     1070.773        1.044        0.159      132.827       15.982        0.014      334.804        5.019      869.915
01/20/2014  10:54:00       60.937       47.416        7.028       36.139       30.873       23.516     1306.007      953.127      553.018        0.441        0.141       77.212       21.232        0.076      335.061        5.445      869.902
01/20/2014  10:55:00       26.233       21.595       33.802       30.259       25.279       18.234      915.586      639.051      332.493        0.209        0.094       33.978       17.836        0.276      335.361        5.944      869.887
01/20/2014  10:56:00       53.304       49.031       61.189       56.327       38.853       32.072     3172.780     1509.592     1028.605        0.735        0.286       72.425       23.498        0.105      335.285        5.818      869.859
01/20/2014  10:57:00       49.512       97.116       95.676       76.338       54.728       48.370     5827.557     2995.121     2339.625        1.610        0.558      109.009       46.472        0.182      335.517        6.203      869.850
01/20/2014  10:58:00       95.747       79.605       46.144       50.195       40.896       41.451     2519.582     1672.473     1718.209        1.177        0.296      124.517       23.663        0.036      335.159        5.608      869.839
01/20/2014  10:59:00       50.334       69.881       70.787       33.678       54.529       32.744     1134.190     2973.381     1072.153        0.880        0.259       86.121       31.515        0.134      335.197        5.670      869.835
01/20/2014  11:00:00       56.258       53.084       23.870       33.592       32.004       27.389     1128.390     1024.266      750.155        0.473        0.145       77.349        9.931        0.016      335.270        5.791      869.812
01/20/2014  11:01:00        8.359      -16.401       22.540       38.884       57.977       30.046     1511.939     3361.295      902.745        0.331        0.289       18.409       32.295        3.078      335.540        6.241      869.805
01/20/2014  11:02:00       55.581      101.153       95.716       49.028       45.864       41.394     2403.752     2103.546     1713.472        1.435        0.311      115.417       37.877        0.108      335.466        6.119      869.790
01/20/2014  11:03:00       79.844       65.897       84.251       43.632       46.134       38.035     1903.728     2128.303     1446.661        1.165        0.274      103.525       35.334        0.116      335.239        5.741      869.775
01/20/2014  11:04:00       45.969      -30.918       15.230       52.260       58.567       36.040     2731.132     3430.092     1298.865        0.538        0.373       55.399       33.854        0.373      335.543        6.248      869.761
01/20/2014  11:05:00       56.317      -25.214       31.625       65.098       81.438       39.451     4237.735     6632.069     1556.401        0.861        0.621       61.704       55.606        0.812      335.481        6.143      869.756
01/20/2014  11:06:00       31.693      -29.354       34.079       55.549       64.909       45.990     3085.673     4213.208     2115.075        0.622        0.471       43.199       52.110        1.455      335.734        6.565      869.742
01/20/2014  11:07:00       48.169      -75.593       -4.934       25.454       38.590       23.688      647.907     1489.204      561.131        0.538        0.135       89.636       14.215        0.025      335.446        6.086      869.732
01/20/2014  11:08:00       -9.868        4.314       52.253       16.329       56.104       41.697      266.650     3147.666     1738.622        0.400        0.258       10.770       46.446       18.600      335.991        6.994      869.720
01/20/2014  11:09:00       42.178       17.112       67.293       66.344       65.393       41.072     4401.522     4276.270     1686.942        0.848        0.518       45.517       46.672        1.051      335.830        6.724      869.699
01/20/2014  11:10:00       41.625        0.409       72.589       45.899       91.526       46.780     2106.697     8377.092     2188.377        0.983        0.634       41.627       55.283        1.764      335.897        6.836      869.674
01/20/2014  11:11:00       62.704       58.453       63.270       52.606       48.455       58.040     2767.440     2347.861     3368.692        0.992        0.424       85.724       41.867        0.239      335.540        6.242      869.665
01/20/2014  11:12:00       33.051       61.741       56.509       37.465       36.339       27.247     1403.651     1320.522      742.411        0.578        0.173       70.031       21.951        0.098      335.931        6.894      869.656
01/20/2014  11:13:00        7.719       -0.356       36.544       22.640       34.185       20.368      512.556     1168.585      414.863        0.175        0.105        7.728       12.868        2.773      336.213        7.364      869.637
01/20/2014  11:14:00       40.906       14.073       37.000       47.964       46.718       31.640     2300.506     2182.544     1001.073        0.436        0.274       43.259       28.974        0.449      336.105        7.185      869.626
01/20/2014  11:15:00       22.137       66.331       82.190       44.830       36.366       27.275     2009.737     1322.506      743.944        0.786        0.204       69.928       20.824        0.089      335.741        6.574      869.612
01/20/2014  11:16:00       40.805      -36.488       19.914       37.253       51.346       35.203     1387.779     2636.446     1239.265        0.433        0.263       54.739       28.497        0.271      335.934        6.900      869.599
01/20/2014  11:17:00       22.303      -21.336       38.669       45.121       69.630       38.849     2035.909     4848.338     1509.259        0.542        0.420       30.865       40.883        1.755      336.188        7.322      869.586
01/20/2014  11:18:00       28.764      -11.533       26.004       39.394       55.633       36.427     1551.915     3095.035     1326.934        0.380        0.299       30.990       41.946        1.832      336.066        7.119      869.581
01/20/2014  11:19:00       36.587       -3.315       37.662       44.626       30.132       25.769     1991.512      907.938      664.055        0.317        0.178       36.737       28.959        0.621      336.118        7.205      869.576
01/20/2014  11:20:00       10.671       10.483       26.786       30.322       27.190       36.310      919.398      739.320     1318.439        0.196        0.149       14.959       29.658        3.931      336.148        7.257      869.557
01/20/2014  11:21:00       32.546       49.033       80.908       52.414       78.785       43.617     2747.256     6207.136     1902.421        1.043        0.543       58.852       49.043        0.694      336.170        7.292      869.560
01/20/2014  11:22:00       96.666       34.354       53.882       50.579       46.926       45.163     2558.204     2202.040     2039.696        1.011        0.340      102.589       34.799        0.115      335.759        6.607      869.556
01/20/2014  11:23:00       32.833       45.580       59.603       39.257       38.897       35.967     1541.146     1512.948     1293.623        0.553        0.217       56.174       26.546        0.223      336.082        7.145      869.559
01/20/2014  11:24:00       14.253       24.991       69.124       36.810       64.412       49.712     1355.009     4148.874     2471.277        0.679        0.399       28.770       52.267        3.300      336.068        7.121      869.543
01/20/2014  11:25:00       39.177       58.055       85.500       38.887       50.367       37.277     1512.172     2536.786     1389.540        0.883        0.272       70.037       36.438        0.271      336.018        7.039      869.527
01/20/2014  11:26:00        0.836       38.629       69.774       25.260       54.692       30.350      638.053     2991.198      921.129        0.545        0.228       38.638       31.214        0.653      336.454        7.768      869.504
01/20/2014  11:27:00       80.094       66.599       36.151       58.482       37.820       41.335     3420.091     1430.324     1708.617        0.936        0.328      104.165       30.975        0.088      336.283        7.479      869.491
01/20/2014  11:28:00       40.509       91.826      103.566       52.340       50.643       29.353     2739.484     2564.694      861.597        1.348        0.308      100.365       26.553        0.070      336.148        7.255      869.470
01/20/2014  11:29:00       91.146      101.586       81.289       46.278       46.611       42.866     2141.677     2172.611     1837.518        1.569        0.308      136.482       32.051        0.055      336.009        7.023      869.451
01/20/2014  11:30:00      129.011       71.285       -0.830       41.787       48.191       40.255     1746.161     2322.412     1620.442        1.371        0.284      147.395       15.190        0.011      335.939        6.906      869.439
01/20/2014  11:31:00      105.269       80.839       51.607       78.540       44.757       55.661     6168.576     2003.145     3098.136        1.577        0.563      132.727       44.519        0.113      336.132        7.228      869.420
01/20/2014  11:32:00       22.454       27.668       45.121       36.144       44.575       29.315     1306.412     1986.908      859.364        0.373        0.208       35.633       14.414        0.164      336.515        7.869      869.425
01/20/2014  11:33:00       57.838      -58.976        2.301       37.523       26.849       22.339     1407.939      720.885      499.045        0.473        0.131       82.603       19.924        0.058      336.098        7.171      869.398
01/20/2014  11:34:00       56.684       68.429       63.070       75.834       54.886       59.350     5750.737     3012.464     3522.423        1.208        0.614       88.858       53.987        0.369      336.286        7.486      869.375
01/20/2014  11:35:00       55.443       37.108       44.858       55.283       73.868       32.902     3056.196     5456.434     1082.517        0.803        0.480       66.715       40.615        0.371      336.199        7.340      869.363
01/20/2014  11:36:00       87.670      107.391       79.366       67.748       63.605       43.723     4589.748     4045.599     1911.668        1.803        0.527      138.632       41.954        0.092      336.321        7.543      869.352
01/20/2014  11:37:00       60.479       84.273       83.279       48.292       46.152       40.927     2332.121     2129.963     1675.039        1.191        0.307      103.729       25.520        0.061      336.565        7.952      869.337
01/20/2014  11:38:00       86.959       60.636       82.518       33.239       52.777       32.802     1104.805     2785.407     1075.946        1.151        0.248      106.012       30.562        0.083      336.250        7.426      869.320
01/20/2014  11:39:00       57.470       16.715       52.508       27.275       41.496       22.941      743.944     1721.881      526.286        0.467        0.150       59.851       10.852        0.033      336.510        7.861      869.312
01/20/2014  11:40:00       23.775       90.983       90.229       41.767       40.098       31.772     1744.491     1607.841     1009.470        1.067        0.218       94.038       27.383        0.085      336.584        7.984      869.295
01/20/2014  11:41:00      107.749       98.053       51.611       42.009       44.108       46.524     1764.796     1945.513     2164.483        1.488        0.294      145.686       36.419        0.062      336.330        7.560      869.288
01/20/2014  11:42:00       62.949       79.211       65.809       46.181       43.662       51.492     2132.729     1906.405     2651.427        1.063        0.335      101.177       33.761        0.111      336.438        7.739      869.274
01/20/2014  11:43:00      109.546       91.355       40.463       60.239       34.333       35.808     3628.732     1178.753     1282.219        1.404        0.304      142.640       25.168        0.031      336.394        7.667      869.275
01/20/2014  11:44:00       24.866        7.760       52.714       49.180       63.200       56.171     2418.651     3994.256     3155.140        0.651        0.478       26.048       55.998        4.622      336.782        8.314      869.261
01/20/2014  11:45:00       46.968      -71.607       12.275       58.429       59.417       43.219     3414.001     3530.362     1867.886        0.815        0.441       85.636       29.677        0.120      336.543        7.915      869.236
01/20/2014  11:46:00       21.407        8.272       68.294       27.471       40.733       24.997      754.677     1659.152      624.856        0.411        0.152       22.949       22.523        0.963      336.996        8.674      869.235
01/20/2014  11:47:00      106.521       94.083        6.350       53.018       41.863       43.613     2810.917     1752.494     1902.087        1.335        0.323      142.121       30.561        0.046      336.588        7.990      869.222
01/20/2014  11:48:00      130.627      105.256       22.411       49.573       39.220       43.223     2457.483     1538.215     1868.208        1.725        0.293      167.757       23.035        0.019      336.485        7.818      869.215
01/20/2014  11:49:00      106.747       65.097       53.401       63.933       64.699       58.559     4087.428     4185.958     3429.170        1.509        0.585      125.030       43.322        0.120      336.620        8.043      869.203
01/20/2014  11:50:00       98.562      -34.335       14.700       59.988       40.413       35.402     3598.526     1633.240     1253.282        0.880        0.324      104.371       28.973        0.077      336.489        7.826      869.202
01/20/2014  11:51:00       47.377       44.357       28.758       62.818       44.340       41.178     3946.071     1966.002     1695.601        0.632        0.380       64.901       36.764        0.321      337.013        8.700      869.182
01/20/2014  11:52:00      126.212       70.178       12.403       42.989       35.248       34.487     1848.044     1242.393     1189.379        1.264        0.214      144.410       24.887        0.030      336.674        8.134      869.173
01/20/2014  11:53:00       43.106       46.942        4.677       51.402       25.480       26.892     2642.151      649.236      723.163        0.405        0.201       63.731       16.786        0.069      336.824        8.384      869.158
01/20/2014  11:54:00       47.163       51.563       42.289       56.949       64.152       49.754     3243.226     4115.497     2475.443        0.825        0.492       69.879       49.273        0.497      336.958        8.608      869.133
01/20/2014  11:55:00      136.117       58.257       22.528       43.178       40.035       39.469     1864.315     1602.829     1557.768        1.373        0.251      148.060       18.516        0.016      336.695        8.169      869.126
01/20/2014  11:56:00       38.277       52.292       82.415       50.730       62.273       55.265     2573.497     3877.894     3054.271        1.025        0.475       64.804       46.215        0.509      337.052        8.766      869.086
01/20/2014  11:57:00      118.905       89.115       54.918       42.244       39.495       48.154     1784.544     1559.875     2318.842        1.538        0.283      148.594       31.510        0.045      336.611        8.029      869.066
01/20/2014  11:58:00       38.960       57.521       63.833       37.501       44.865       39.261     1406.304     2012.902     1541.419        0.693        0.248       69.473       29.118        0.176      336.970        8.628      869.049
01/20/2014  11:59:00       31.438       69.222       69.489       47.435       34.883       33.720     2250.077     1216.855     1137.026        0.761        0.230       76.026       28.602        0.142      336.976        8.638      869.019
01/20/2014  12:00:00       79.526       66.227       65.250       73.463       50.966       58.934     5396.835     2597.532     3473.178        1.322        0.573      103.491       55.695        0.290      337.007        8.691      868.999
01/20/2014  12:01:00       77.670       90.382       -3.480       64.441       49.665       38.283     4152.674     2466.628     1465.599        1.115        0.404      119.170       19.665        0.027      336.868        8.459      868.966
01/20/2014  12:02:00       73.667       55.103       26.865       48.969       35.369       35.376     2397.995     1250.966     1251.457        0.704        0.245       91.996       15.200        0.027      336.855        8.437      868.948
01/20/2014  12:03:00       42.315       70.945        9.536       57.174       37.024       30.071     3268.851     1370.742      904.242        0.623        0.277       82.606       25.135        0.093      336.876        8.471      868.932
01/20/2014  12:04:00      131.410       89.392        1.000       45.551       38.613       39.364     2074.915     1490.953     1549.511        1.519        0.256      158.932       22.492        0.020      336.872        8.464      868.912
01/20/2014  12:05:00      118.099       96.479        4.615       64.154       57.737       39.676     4115.759     3333.601     1574.159        1.615        0.451      152.498       33.242        0.048      336.726        8.221      868.900
01/20/2014  12:06:00       68.407       74.835        5.371       60.148       43.243       38.663     3617.780     1869.982     1494.814        0.864        0.349      101.390       26.397        0.068      336.898        8.509      868.854
01/20/2014  12:07:00       27.573       44.215        9.514       48.783       38.402       31.144     2379.772     1474.739      969.930        0.381        0.241       52.108       15.509        0.089      337.094        8.837      868.834
01/20/2014  12:08:00      -17.019       16.485       67.078       30.292       48.729       32.694      917.629     2374.484     1068.885        0.471        0.218       23.694       24.523        1.071      337.562        9.620      868.834
01/20/2014  12:09:00       46.954      -83.627       10.373       50.086       59.417       39.345     2508.613     3530.430     1548.046        0.844        0.379       95.907       38.246        0.159      337.253        9.103      868.822
01/20/2014  12:10:00       43.763      -86.911        3.621       27.022       28.959       23.657      730.200      838.633      559.637        0.580        0.106       97.307       18.035        0.034      337.061        8.782      868.816
01/20/2014  12:11:00        3.029       11.807       25.412       30.647       47.389       37.708      939.263     2245.705     1421.902        0.270        0.230       12.189       19.271        2.500      337.481        9.484      868.795
01/20/2014  12:12:00       52.397       21.658       55.171       42.798       73.419       33.499     1831.683     5390.357     1122.167        0.730        0.417       56.697       33.924        0.358      337.288        9.161      868.787
01/20/2014  12:13:00       35.942        8.706       39.737       43.546       59.208       41.204     1896.253     3505.536     1697.767        0.502        0.355       36.981       30.423        0.677      337.493        9.505      868.760
01/20/2014  12:14:00       54.910       59.567       61.804       51.830       63.283       42.186     2686.301     4004.766     1779.622        0.943        0.424       81.014       35.875        0.196      337.241        9.082      868.740
01/20/2014  12:15:00        4.645       53.045       52.605       29.357       39.811       33.564      861.806     1584.945     1126.557        0.459        0.179       53.248       23.018        0.187      337.535        9.576      868.721
01/20/2014  12:16:00        7.834       28.290       67.092       32.796       23.114       20.939     1075.580      534.253      438.436        0.371        0.102       29.354       11.997        0.167      337.552        9.603      868.694
01/20/2014  12:17:00       31.471       17.598       45.666       31.169       52.794       30.312      971.517     2787.180      918.846        0.403        0.234       36.057       33.525        0.864      337.358        9.279      868.678
01/20/2014  12:18:00      127.714       93.656       14.850       47.135       35.356       37.338     2221.729     1250.035     1394.127        1.508        0.243      158.374       25.619        0.026      337.093        8.833      868.666
01/20/2014  12:19:00      132.634       66.301       17.659       35.211       30.118       32.493     1239.831      907.108     1055.768        1.275        0.160      148.282       12.419        0.007      336.928        8.558      868.646
01/20/2014  12:20:00      104.468       50.040       15.774       69.137       41.269       38.744     4779.964     1703.160     1501.073        1.082        0.399      115.834       36.058        0.097      337.158        8.944      868.630
01/20/2014  12:21:00       43.004       91.164       11.178       39.636       50.562       39.458     1571.022     2556.499     1556.917        0.798        0.284      100.798       37.695        0.140      337.406        9.359      868.610
01/20/2014  12:22:00       20.568       81.765       -6.817       35.449       37.229       24.941     1256.626     1385.976      622.060        0.521        0.163       84.312       19.737        0.055      337.084        8.821      868.602
01/20/2014  12:23:00       -8.349       51.335        8.202       19.451       35.899       22.682      378.335     1288.748      514.489        0.248        0.109       52.010       21.696        0.174      337.525        9.559      868.577
01/20/2014  12:24:00       44.205       21.826       38.181       45.176       45.411       33.687     2040.841     2062.144     1134.811        0.456        0.262       49.300       30.652        0.387      337.614        9.708      868.571
01/20/2014  12:25:00       34.753      -52.938       -4.199       37.308       49.183       26.253     1391.868     2418.960      689.226        0.426        0.225       63.326        8.566        0.018      337.347        9.260      868.550
01/20/2014  12:26:00      -10.060        1.762       19.865       19.802       35.681       16.415      392.124     1273.120      269.467        0.122        0.097       10.213        8.391        0.675      337.653        9.773      868.521
01/20/2014  12:27:00       14.011      -37.587       13.225       27.732       51.197       24.794      769.061     2621.169      614.762        0.289        0.200       40.114       25.028        0.389      337.746        9.928      868.491
01/20/2014  12:28:00       -4.077       47.833       54.569       27.616       39.689       45.232      762.658     1575.254     2045.922        0.483        0.219       48.007       18.924        0.155      337.941       10.254      868.463
01/20/2014  12:29:00       87.489      121.166       98.528       88.468       46.392       50.760     7826.673     2152.250     2576.601        2.230        0.628      149.451       41.042        0.075      337.472        9.466      868.443
01/20/2014  12:30:00      128.654       84.137       31.461       49.119       49.676       48.735     2412.697     2467.729     2375.118        1.594        0.363      153.723       38.365        0.062      337.208        9.026      868.424
01/20/2014  12:31:00       17.195       32.311        3.862       26.205       30.392       26.353      686.683      923.686      694.471        0.183        0.115       36.602       18.572        0.257      337.486        9.492      868.392
01/20/2014  12:32:00       23.517       19.503       -9.056       28.813       23.887       17.201      830.187      570.569      295.880        0.136        0.085       30.552       15.117        0.245      337.239        9.079      868.369
01/20/2014  12:33:00        0.065       32.155       64.054       35.031       73.143       66.005     1227.178     5349.933     4356.644        0.803        0.547       32.155       60.095        3.493      337.793       10.007      868.346
01/20/2014  12:34:00       57.712       98.477       96.640       60.453       71.604       57.566     3654.582     5127.148     3313.797        1.723        0.605      114.142       56.577        0.246      337.516        9.542      868.351
01/20/2014  12:35:00       27.282        5.530       45.049       47.115       70.063       45.088     2219.835     4908.776     2032.891        0.598        0.458       27.837       42.499        2.331      337.825       10.061      868.344
01/20/2014  12:36:00       62.729      106.557       79.744       69.132       47.379       60.133     4779.204     2244.805     3615.922        1.614        0.532      123.650       52.176        0.178      337.616        9.710      868.339
01/20/2014  12:37:00       33.797       26.325      -11.051       47.969       31.390       36.208     2300.987      985.330     1310.994        0.328        0.230       42.840       26.769        0.390      337.785        9.993      868.339
01/20/2014  12:38:00       69.833       32.205       38.926       51.359       45.401       38.446     2637.734     2061.248     1478.116        0.680        0.309       76.901       28.128        0.134      337.930       10.236      868.333
01/20/2014  12:39:00       56.549       40.304       59.679       56.019       59.199       47.711     3138.087     3504.502     2276.328        0.865        0.446       69.442       41.698        0.361      337.839       10.085      868.333
01/20/2014  12:40:00       73.813       42.925       42.984       49.626       58.042       42.560     2462.787     3368.883     1811.327        0.839        0.382       85.387       31.096        0.133      337.637        9.745      868.326
01/20/2014  12:41:00       20.868       20.407       44.590       34.172       49.556       38.960     1167.724     2455.785     1517.849        0.399        0.257       29.187       40.016        1.880      337.904       10.193      868.318
01/20/2014  12:42:00       59.343       62.019       44.300       46.120       39.665       42.606     2127.068     1573.323     1815.267        0.742        0.276       85.837       28.902        0.113      337.791       10.004      868.298
01/20/2014  12:43:00        3.790       53.663       90.909       30.895       49.753       26.037      954.474     2475.321      677.941        0.763        0.205       53.796       25.293        0.221      338.080       10.489      868.278
01/20/2014  12:44:00       68.266        1.469       50.726       69.582       53.939       44.921     4841.630     2909.380     2017.939        0.850        0.488       68.282       46.283        0.459      337.924       10.228      868.258
01/20/2014  12:45:00       79.700       49.015       66.396       67.011       97.475       67.006     4490.424     9501.337     4489.847        1.582        0.924       93.566       74.589        0.636      337.823       10.057      868.227
01/20/2014  12:46:00       96.455      107.407       71.943       80.425       52.223       66.565     6468.194     2727.285     4430.921        1.982        0.681      144.360       61.128        0.179      337.795       10.009      868.213
01/20/2014  12:47:00       88.568       39.321       22.509       61.307       48.628       39.191     3758.512     2364.672     1535.942        0.878        0.383       96.904       22.221        0.053      337.867       10.131      868.191
01/20/2014  12:48:00       85.284       18.115       24.247       34.320       51.586       31.705     1177.874     2661.086     1005.205        0.652        0.242       87.186       20.667        0.056      337.743        9.924      868.159
01/20/2014  12:49:00       73.361       67.285       26.005       39.135       34.564       38.230     1531.546     1194.686     1461.557        0.739        0.209       99.544       23.634        0.056      337.775        9.977      868.134
01/20/2014  12:50:00       65.562       50.624       12.557       27.816       34.577       35.417      773.707     1195.561     1254.388        0.512        0.161       82.832       16.190        0.038      337.599        9.681      868.118
01/20/2014  12:51:00       78.723       48.378       32.717       43.870       34.756       39.237     1924.572     1208.012     1539.565        0.714        0.234       92.400       18.732        0.041      337.968       10.301      868.090
01/20/2014  12:52:00       75.335       56.114       68.133       54.026       45.546       40.622     2918.820     2074.403     1650.170        1.005        0.332       93.937       37.661        0.161      337.821       10.053      868.076
01/20/2014  12:53:00      127.029      101.506       49.491       52.608       32.984       48.973     2767.568     1087.941     2398.389        1.757        0.313      162.603       23.931        0.022      337.787        9.996      868.041
01/20/2014  12:54:00      137.075      101.623       57.917       40.965       32.224       29.425     1678.130     1038.415      865.809        1.803        0.179      170.637       15.637        0.008      337.606        9.692      868.021
01/20/2014  12:55:00       57.575       56.132       26.415       34.468       24.417       33.392     1188.027      596.175     1114.993        0.503        0.145       80.409       19.164        0.057      338.002       10.356      868.007
01/20/2014  12:56:00       29.548       51.419       51.264       44.366       36.872       40.632     1968.369     1359.520     1650.979        0.556        0.249       59.305       22.581        0.145      338.348       10.938      867.996
01/20/2014  12:57:00       25.370       33.341       52.409       38.165       52.175       36.813     1456.582     2722.259     1355.180        0.502        0.277       41.896       37.769        0.813      338.248       10.769      867.978
01/20/2014  12:58:00       61.713       47.700       50.663       54.620       43.682       40.066     2983.374     1908.106     1605.278        0.757        0.325       77.999       29.115        0.139      338.357       10.952      867.955
01/20/2014  12:59:00       62.263       53.659       54.440       55.687       44.171       33.139     3101.054     1951.116     1098.211        0.793        0.308       82.195       28.683        0.122      338.366       10.969      867.940
01/20/2014  13:00:00       53.830       16.279       45.379       56.933       66.997       41.949     3241.388     4488.653     1759.715        0.735        0.474       56.238       43.354        0.594      338.340       10.925      867.928
01/20/2014  13:01:00       19.257       34.622       34.324       35.886       32.744       37.743     1287.811     1072.161     1424.521        0.327        0.189       39.617       19.907        0.252      338.397       11.021      867.899
01/20/2014  13:02:00       43.455       32.248       32.513       37.963       30.194       26.150     1441.206      911.670      683.803        0.351        0.152       54.114        9.824        0.033      338.335       10.917      867.899
01/20/2014  13:03:00       -2.835       31.712       46.947       39.334       50.713       32.006     1547.168     2571.783     1024.398        0.418        0.257       31.838       33.702        1.120      338.648       11.442      867.891
01/20/2014  13:04:00       24.298        7.878       54.124       41.161       75.141       44.392     1694.230     5646.235     1970.619        0.644        0.466       25.543       40.822        2.554      338.613       11.383      867.880
01/20/2014  13:05:00       38.726       51.828       54.666       43.148       47.725       43.795     1861.752     2277.636     1917.993        0.661        0.303       64.698       39.341        0.370      338.507       11.206      867.876
01/20/2014  13:06:00       28.220       43.588       34.046       22.822       43.699       29.994      520.852     1909.564      899.641        0.359        0.167       51.926       29.031        0.313      338.295       10.849      867.866
01/20/2014  13:07:00       16.672      -18.637        5.865       37.336       40.028       23.708     1393.950     1602.250      562.060        0.211        0.178       25.006       25.215        1.017      338.759       11.629      867.852
01/20/2014  13:08:00       62.823       13.803       28.220       60.480       50.749       38.949     3657.882     2575.487     1516.994        0.634        0.388       64.321       39.475        0.377      338.367       10.971      867.848
01/20/2014  13:09:00      104.490        2.123       41.624       56.087      106.116       48.082     3145.737    11260.543     2311.917        1.468        0.836      104.511       59.707        0.326      338.394       11.016      867.843
01/20/2014  13:10:00       66.773      -13.379       49.528       57.748       68.525       52.029     3334.866     4695.700     2707.069        0.891        0.537       68.100       51.275        0.567      338.555       11.286      867.819
01/20/2014  13:11:00      103.229       81.359       69.506       65.669       58.776       53.768     4312.466     3454.580     2890.947        1.638        0.533      131.436       53.913        0.168      338.396       11.018      867.811
01/20/2014  13:12:00       91.866       76.190       68.749       70.342       44.267       46.313     4947.997     1959.581     2144.881        1.401        0.453      119.350       37.621        0.099      338.595       11.354      867.791
01/20/2014  13:13:00       91.117       84.536       80.895       70.064       63.244       46.818     4909.007     3999.860     2191.933        1.654        0.555      124.292       42.032        0.114      338.474       11.149      867.777
01/20/2014  13:14:00       73.084       29.993       43.490       49.588       51.124       39.897     2458.960     2613.697     1591.742        0.740        0.333       78.999       33.749        0.183      338.638       11.426      867.783
01/20/2014  13:15:00       20.808       52.156       67.308       42.284       58.008       48.023     1787.978     3364.885     2306.223        0.757        0.373       56.154       45.964        0.670      338.733       11.585      867.792
01/20/2014  13:16:00       23.550        4.188       37.369       49.072       60.908       37.297     2408.041     3709.820     1391.093        0.474        0.375       23.920       20.482        0.733      338.754       11.621      867.785
01/20/2014  13:17:00       38.160        2.699       30.341       36.359       54.177       43.720     1321.963     2935.193     1911.422        0.428        0.308       38.256       38.798        1.029      338.830       11.749      867.797
01/20/2014  13:18:00       32.839       15.724       30.846       28.866       34.032       23.239      833.229     1158.171      540.052        0.240        0.127       36.409       21.351        0.344      338.679       11.493      867.803
01/20/2014  13:19:00       16.665      -19.794       37.408       39.270       84.217       36.218     1542.116     7092.469     1311.722        0.601        0.497       25.875       42.988        2.760      338.960       11.967      867.789
01/20/2014  13:20:00       33.262      -35.715       47.454       38.789       62.075       37.554     1504.590     3853.340     1410.332        0.570        0.338       48.805       20.786        0.181      339.147       12.281      867.786
01/20/2014  13:21:00       41.598       -2.590       35.020       57.085       76.341       53.149     3258.642     5827.964     2824.772        0.744        0.596       41.678       50.195        1.450      338.870       11.815      867.801
01/20/2014  13:22:00       60.811      -52.204       33.229       52.809       46.809       32.914     2788.754     2191.074     1083.346        0.679        0.303       80.145       30.678        0.147      338.871       11.817      867.789
01/20/2014  13:23:00       51.846       29.918       60.636       46.986       61.190       47.331     2207.661     3744.234     2240.248        0.772        0.410       59.859       43.234        0.522      338.920       11.901      867.785
01/20/2014  13:24:00       83.734       82.066       79.015       57.513       47.652       44.743     3307.750     2270.710     2001.967        1.378        0.379      117.244       39.559        0.114      338.751       11.615      867.786
01/20/2014  13:25:00       44.759       72.442       70.377       52.549       40.821       35.903     2761.407     1666.351     1289.035        0.896        0.286       85.154       31.644        0.138      339.102       12.205      867.769
01/20/2014  13:26:00       10.428       20.372       31.054       60.973       59.526       26.963     3717.746     3543.315      726.993        0.474        0.399       22.885       18.740        0.671      339.402       12.712      867.765
01/20/2014  13:27:00       83.015      -57.753       24.223       70.830       91.518       50.010     5016.836     8375.556     2500.980        1.335        0.795      101.128       58.603        0.336      339.150       12.286      867.752
01/20/2014  13:28:00       19.538       18.940       51.312       40.609       61.237       35.999     1649.093     3749.966     1295.955        0.503        0.335       27.211       31.496        1.340      339.281       12.508      867.734
01/20/2014  13:29:00      128.725       98.286       29.441       69.218       51.734       49.535     4791.159     2676.453     2453.673        1.851        0.496      161.958       37.761        0.054      338.971       11.984      867.719
01/20/2014  13:30:00      115.577       75.816       28.147       57.807       49.380       35.828     3341.629     2438.419     1283.613        1.348        0.353      138.225       19.185        0.019      338.970       11.983      867.735
01/20/2014  13:31:00      109.387       44.629       25.793       41.283       33.124       34.360     1704.291     1097.192     1180.577        0.930        0.199      118.141       16.499        0.020      338.821       11.733      867.741
01/20/2014  13:32:00       77.333      -30.530       14.102       53.163       79.042       34.140     2826.355     6247.629     1165.539        0.867        0.512       83.141       37.853        0.207      339.006       12.044      867.725
01/20/2014  13:33:00       46.498       62.613       55.413       43.557       48.517       38.892     1897.213     2353.946     1512.591        0.746        0.288       77.990       36.872        0.224      339.191       12.354      867.712
01/20/2014  13:34:00       61.526       67.570       71.840       66.470       52.969       40.289     4418.307     2805.723     1623.240        1.118        0.442       91.385       41.808        0.209      339.226       12.414      867.698
01/20/2014  13:35:00       79.635       62.765       45.773       85.173       51.877       42.818     7254.410     2691.246     1833.396        1.208        0.589      101.396       37.959        0.140      339.390       12.691      867.678
01/20/2014  13:36:00       61.265       51.720       45.381       82.229       56.050       40.990     6761.527     3141.587     1680.218        1.003        0.579       80.177       35.718        0.198      339.327       12.584      867.663
01/20/2014  13:37:00      111.415       36.970       39.811       80.230       56.046       41.423     6436.869     3141.140     1715.853        1.333        0.565      117.389       38.361        0.107      339.156       12.295      867.665
01/20/2014  13:38:00       69.845       59.663       62.396       81.769       59.293       47.861     6686.221     3515.677     2290.677        1.241        0.625       91.859       38.989        0.180      339.207       12.382      867.662
01/20/2014  13:39:00      143.631       47.371       -2.343       87.847       57.264       50.217     7717.072     3279.176     2521.770        1.820        0.676      151.241       27.980        0.034      339.069       12.149      867.651
01/20/2014  13:40:00       50.297      -19.737       21.985       50.657       45.023       32.968     2566.136     2027.090     1086.902        0.454        0.284       54.031       27.275        0.255      339.358       12.636      867.635
01/20/2014  13:41:00       94.809       58.432       15.989       90.140       45.994       35.544     8125.172     2115.443     1263.405        1.208        0.575      111.369       37.797        0.115      339.334       12.596      867.621
01/20/2014  13:42:00       82.789       58.147       10.708       55.995       43.424       32.872     3135.482     1885.630     1080.601        0.822        0.305      101.169       29.409        0.084      339.272       12.492      867.616
01/20/2014  13:43:00       72.631       85.813       53.164       68.122       48.264       62.904     4640.644     2329.431     3956.907        1.319        0.546      112.424       54.104        0.232      339.411       12.725      867.601
01/20/2014  13:44:00       38.249       47.399       91.652       58.258       56.294       44.485     3394.053     3169.049     1978.910        1.032        0.427       60.906       37.767        0.385      339.559       12.976      867.592
01/20/2014  13:45:00       31.517      108.823      106.948       61.807       53.764       44.665     3820.153     2890.620     1994.937        1.649        0.435      113.295       34.777        0.094      339.508       12.889      867.605
01/20/2014  13:46:00       73.309       86.366      104.799       62.824       56.694       36.712     3946.857     3214.199     1347.778        1.616        0.425      113.284       38.742        0.117      339.138       12.267      867.610
01/20/2014  13:47:00       88.182       31.307       45.358       63.587       40.206       42.706     4043.364     1616.532     1823.770        0.915        0.374       93.575       33.224        0.126      339.147       12.281      867.601
01/20/2014  13:48:00      100.267       74.681       37.853       39.377       32.785       28.300     1550.580     1074.830      800.882        1.024        0.171      125.023        9.354        0.006      339.199       12.369      867.594
01/20/2014  13:49:00        8.904       24.365       44.155       30.554       24.514       32.522      933.555      600.959     1057.672        0.261        0.130       25.941       23.838        0.844      339.604       13.050      867.596
01/20/2014  13:50:00      115.899       92.964       64.952       89.631       58.257       61.998     8033.764     3393.846     3843.812        2.078        0.764      148.576       57.358        0.149      339.360       12.638      867.587
01/20/2014  13:51:00      118.836       38.085       39.947       47.820       66.401       64.795     2286.788     4409.062     4198.363        1.403        0.545      124.790       55.767        0.200      339.250       12.454      867.584
01/20/2014  13:52:00       58.740       84.507       83.758       79.054       49.062       47.093     6249.499     2407.081     2217.792        1.424        0.544      102.916       41.160        0.160      339.535       12.934      867.589
01/20/2014  13:53:00       90.361       86.399       52.978       74.281       46.282       43.462     5517.705     2142.037     1888.968        1.399        0.477      125.019       40.418        0.105      339.673       13.167      867.597
01/20/2014  13:54:00       81.972       64.279        1.073       36.623       34.877       30.076     1341.259     1216.386      904.580        0.716        0.173      104.169       20.429        0.038      339.457       12.803      867.599
01/20/2014  13:55:00       59.350       74.378       -0.426       68.088       47.098       31.926     4635.934     2218.242     1019.242        0.846        0.394       95.155       17.495        0.034      339.689       13.195      867.576
01/20/2014  13:56:00      121.452       68.089       25.686       46.233       49.028       40.425     2137.533     2403.744     1634.173        1.311        0.309      139.236       27.800        0.040      339.457       12.804      867.573
01/20/2014  13:57:00       83.351       61.159       12.830       60.048       34.892       29.443     3605.807     1217.451      866.870        0.827        0.285      103.382       23.568        0.052      339.637       13.107      867.569
01/20/2014  13:58:00       94.037       38.767       11.830       35.766       43.548       35.534     1279.188     1896.390     1262.674        0.746        0.222      101.714       20.578        0.041      339.788       13.360      867.564
01/20/2014  13:59:00      136.226      123.535      102.861       97.023       79.570       67.559     9413.497     6331.310     4564.225        3.235        1.015      183.898       64.620        0.123      339.668       13.155      867.566
01/20/2014  14:00:00      184.245      120.432       42.532       55.231       49.672       33.522     3050.450     2467.278     1123.752        2.845        0.332      220.114       20.408        0.009      339.523       12.911      867.594
01/20/2014  14:01:00      104.830       83.558       14.501       28.005       21.651       28.097      784.261      468.750      789.465        1.011        0.102      134.057       18.464        0.019      339.450       12.794      867.604
01/20/2014  14:02:00       45.639       29.954       11.171       24.449       20.959       22.321      597.767      439.285      498.246        0.232        0.077       54.591       15.288        0.078      339.607       13.056      867.597
01/20/2014  14:03:00       91.902       49.846       52.686       78.981       64.573       49.963     6237.974     4169.695     2496.256        1.330        0.645      104.549       42.963        0.169      339.701       13.215      867.594
01/20/2014  14:04:00      142.199       54.750       49.558       78.339       61.293       61.916     6137.046     3756.872     3833.646        1.970        0.686      152.375       54.340        0.127      339.622       13.080      867.602
01/20/2014  14:05:00       59.994       89.837       75.153       56.607       56.246       63.534     3204.406     3163.577     4036.514        1.386        0.520      108.028       43.094        0.159      339.690       13.196      867.611
01/20/2014  14:06:00        8.454       28.469       32.075       22.953       34.818       20.654      526.848     1212.322      426.576        0.204        0.108       29.698       17.717        0.356      340.141       13.957      867.604
01/20/2014  14:07:00       16.724       31.407       48.659       55.836       40.402       41.102     3117.611     1632.313     1689.361        0.504        0.322       35.582       27.001        0.576      340.190       14.040      867.603
01/20/2014  14:08:00      144.370      108.646       67.903      108.998       88.373       61.905    11880.532     7809.794     3832.222        3.039        1.176      180.684       48.458        0.072      339.911       13.567      867.602
01/20/2014  14:09:00      208.713      115.999       51.881       76.949       71.200       53.727     5921.196     5069.380     2886.618        3.679        0.694      238.782       28.892        0.015      339.562       12.977      867.611
01/20/2014  14:10:00       71.867       80.122       19.890       54.691       33.920       34.293     2991.119     1150.563     1176.001        0.865        0.266      107.630       20.271        0.035      339.673       13.167      867.617
01/20/2014  14:11:00       74.870       60.622      -13.836       46.168       32.598       28.767     2131.467     1062.619      827.543        0.675        0.201       96.335       21.848        0.051      339.682       13.183      867.619
01/20/2014  14:12:00       64.410       37.531       20.700       66.023       45.934       32.707     4358.976     2109.939     1069.776        0.676        0.377       74.547       11.910        0.026      339.852       13.470      867.618
01/20/2014  14:13:00       59.082       64.112       75.990       72.828       59.115       59.914     5303.910     3494.526     3589.654        1.288        0.619       87.184       48.939        0.315      339.863       13.487      867.606
01/20/2014  14:14:00       46.002       -3.297       49.889       41.866       48.845       32.360     1752.732     2385.826     1047.183        0.490        0.259       46.120       28.420        0.380      339.697       13.209      867.602
01/20/2014  14:15:00       58.319      -47.195       11.096       26.907       27.888       23.282      723.968      777.726      542.044        0.390        0.102       75.023       10.753        0.021      339.737       13.275      867.599
01/20/2014  14:16:00      100.584       45.478       17.428       58.456       55.269       31.603     3417.137     3054.654      998.770        0.998        0.374      110.387       17.594        0.025      339.823       13.421      867.600
01/20/2014  14:17:00      106.491       97.691        9.052       89.063       77.699       56.040     7932.259     6037.172     3140.499        1.903        0.855      144.512       44.135        0.093      339.973       13.671      867.599
01/20/2014  14:18:00       72.720        7.668       25.215       74.610       44.725       36.939     5566.642     2000.343     1364.467        0.746        0.447       73.124       40.585        0.308      340.093       13.876      867.593
01/20/2014  14:19:00       75.817       49.100       30.531       51.438       50.242       39.207     2645.914     2524.230     1537.184        0.790        0.335       90.327       27.848        0.095      340.040       13.787      867.598
01/20/2014  14:20:00       58.124       20.798       43.113       70.500       52.096       35.940     4970.255     2714.029     1291.686        0.732        0.449       61.733       37.493        0.369      340.156       13.982      867.604
01/20/2014  14:21:00       75.681       38.406       61.456       77.025       62.741       39.695     5932.833     3936.392     1575.699        1.121        0.572       84.868       43.234        0.260      340.084       13.862      867.605
01/20/2014  14:22:00      161.462       68.498       20.872       79.239       56.477       45.995     6278.876     3189.601     2115.530        2.139        0.579      175.390       37.465        0.046      340.012       13.737      867.608
01/20/2014  14:23:00      126.474       52.968       47.920       92.425       77.186       56.087     8542.401     5957.664     3145.736        1.937        0.882      137.118       53.875        0.154      340.042       13.788      867.612
01/20/2014  14:24:00      183.021       87.794       38.196       67.509       60.565       45.677     4557.493     3668.089     2086.389        2.649        0.516      202.989       35.542        0.031      339.883       13.520      867.624
01/20/2014  14:25:00      132.155      113.138       17.769       79.606       58.458       65.487     6337.131     3417.300     4288.572        2.231        0.702      173.969       24.276        0.019      339.879       13.512      867.633
01/20/2014  14:26:00      158.305      106.934       32.431       78.684       63.569       44.765     6191.120     4041.014     2003.876        2.489        0.612      191.037       46.154        0.058      339.895       13.539      867.625
01/20/2014  14:27:00       50.758       85.119       83.057       45.599       47.892       48.633     2079.286     2293.634     2365.146        1.173        0.337       99.104       41.287        0.174      339.969       13.668      867.617
01/20/2014  14:28:00      120.792       94.360       24.909       73.866       50.163       49.313     5456.208     2516.344     2431.747        1.726        0.520      153.279       28.078        0.034      339.951       13.635      867.631
01/20/2014  14:29:00       86.063       95.436       -2.031       66.432       47.931       41.008     4413.201     2297.365     1681.692        1.245        0.420      128.510       30.256        0.055      339.832       13.436      867.631
01/20/2014  14:30:00       25.916       79.731       -9.512       42.523       34.077       21.204     1808.233     1161.273      449.623        0.527        0.171       83.838       23.400        0.078      339.813       13.404      867.625
01/20/2014  14:31:00      -15.486      104.772      -15.994       34.041       34.892       18.144     1158.777     1217.486      329.195        0.709        0.135      105.910       13.210        0.016      339.958       13.648      867.610
01/20/2014  14:32:00      -31.216       69.630       -2.373       25.926       34.561       23.964      672.182     1194.489      574.293        0.413        0.122       76.307       11.368        0.022      340.161       13.991      867.609
01/20/2014  14:33:00      -40.918       78.436      -11.820       26.474       28.848       23.981      700.864      832.214      575.075        0.504        0.105       88.468       15.865        0.032      340.035       13.779      867.612
01/20/2014  14:34:00      -41.769       82.215       -7.703       31.469       39.484       22.577      990.309     1559.021      509.705        0.581        0.153       92.217       15.974        0.030      340.132       13.941      867.612
01/20/2014  14:35:00       56.169      105.815       -5.923       38.500       52.976       39.582     1482.272     2806.468     1566.759        1.012        0.293      119.799       35.222        0.086      339.995       13.710      867.618
01/20/2014  14:36:00       20.947       80.989       -3.694       31.193       44.207       27.463      973.014     1954.230      754.221        0.535        0.184       83.654       24.382        0.085      340.061       13.822      867.612
01/20/2014  14:37:00      131.066       85.558       13.859       78.421       45.973       37.113     6149.882     2113.550     1377.361        1.716        0.482      156.520       18.026        0.013      339.986       13.693      867.610
01/20/2014  14:38:00      126.378      105.465        6.803       45.961       49.928       46.319     2112.455     2492.787     2145.408        1.694        0.338      164.603       32.878        0.040      339.970       13.667      867.624
01/20/2014  14:39:00      117.138       89.652        1.639       51.383       35.877       34.646     2640.234     1287.156     1200.326        1.344        0.256      147.508       27.754        0.035      339.921       13.584      867.636
01/20/2014  14:40:00       52.167       43.693       13.524       25.811       24.218       28.978      666.205      586.534      839.712        0.345        0.105       68.047       20.230        0.088      340.038       13.782      867.639
01/20/2014  14:41:00       29.393       66.021        3.508       29.403       47.566       27.890      864.548     2262.488      777.837        0.457        0.195       72.268       27.736        0.147      340.135       13.946      867.637
01/20/2014  14:42:00       61.236       90.376        5.683       74.823       69.757       45.988     5598.484     4866.041     2114.880        1.226        0.629      109.168       33.213        0.093      340.054       13.812      867.624
01/20/2014  14:43:00      118.123       56.163        9.961       62.597       54.586       36.695     3918.423     2979.586     1346.494        1.272        0.412      130.795       33.326        0.065      339.925       13.592      867.637
01/20/2014  14:44:00       24.332       -8.328        9.349       26.368       26.262       19.141      695.289      689.717      366.373        0.125        0.088       25.718        9.906        0.148      340.103       13.892      867.648
01/20/2014  14:45:00       14.846       58.685        2.503       26.250       38.877       25.174      689.082     1511.433      633.755        0.325        0.142       60.534       23.867        0.155      340.263       14.163      867.648
01/20/2014  14:46:00      -25.574       44.702      -11.557       55.730       55.820       44.272     3105.887     3115.822     1960.029        0.548        0.409       51.500       20.365        0.156      340.469       14.512      867.653
01/20/2014  14:47:00       67.950       36.011       36.346       37.478       36.063       42.241     1404.619     1300.572     1784.296        0.586        0.224       76.902       30.388        0.156      340.216       14.082      867.666
01/20/2014  14:48:00       45.211        0.334        6.101       27.915       21.409       20.680      779.229      458.350      427.670        0.187        0.083       45.212       10.642        0.055      340.165       13.997      867.682
01/20/2014  14:49:00       28.468       45.031       15.822       23.805       19.545       21.150      566.665      382.013      447.331        0.224        0.070       53.275       16.384        0.095      340.350       14.308      867.692
01/20/2014  14:50:00       52.184       27.349        5.933       40.149       36.167       20.912     1611.980     1308.084      437.330        0.343        0.168       58.916       10.994        0.035      340.347       14.306      867.703
01/20/2014  14:51:00      106.854       80.429       31.560       27.346       31.548       32.618      747.797      995.265     1063.951        1.084        0.140      133.741        7.053        0.003      340.296       14.219      867.708
01/20/2014  14:52:00      120.997       97.326       -0.549       55.874       52.851       41.421     3121.886     2793.253     1715.709        1.587        0.382      155.282       27.258        0.031      340.288       14.205      867.729
01/20/2014  14:53:00       88.560       79.345       16.682       67.334       55.294       44.908     4533.929     3057.424     2016.763        1.201        0.480      118.906       38.066        0.102      340.238       14.119      867.750
01/20/2014  14:54:00       40.072       52.335       17.030       35.380       39.306       28.795     1251.747     1544.968      829.159        0.413        0.181       65.915       20.875        0.100      340.323       14.265      867.757
01/20/2014  14:55:00       42.554       28.177       -6.337       33.788       22.295       19.936     1141.611      497.054      397.438        0.234        0.102       51.037       10.730        0.044      340.222       14.094      867.764
01/20/2014  14:56:00       36.284       33.339       42.061       34.805       42.996       33.870     1211.402     1848.689     1147.168        0.420        0.210       49.275       31.945        0.420      340.313       14.247      867.774
01/20/2014  14:57:00       14.707       45.507       30.749       26.232       31.676       28.861      688.144     1003.395      832.970        0.288        0.126       47.824       20.703        0.187      340.476       14.525      867.774
01/20/2014  14:58:00       13.828       20.554        6.883       42.674       28.930       19.478     1821.098      836.940      379.399        0.185        0.152       24.772       16.285        0.432      340.392       14.381      867.768
01/20/2014  14:59:00       48.033       70.288       61.051       45.762       45.153       57.178     2094.162     2038.786     3269.310        0.919        0.370       85.133       43.776        0.264      340.302       14.227      867.769
01/20/2014  15:00:00       69.780       62.292       84.337       63.968       53.397       43.327     4091.850     2851.194     1877.210        1.234        0.441       93.539       40.116        0.184      340.287       14.204      867.770
01/20/2014  15:01:00       17.646       27.451       58.448       26.630       70.602       37.949      709.161     4984.625     1440.106        0.581        0.357       32.633       48.242        2.185      340.310       14.242      867.765
01/20/2014  15:02:00       51.102      -70.477        1.657       38.682       55.951       22.689     1496.334     3130.507      514.775        0.636        0.257       87.054       22.016        0.064      340.293       14.213      867.743
01/20/2014  15:03:00       18.065      -11.162        7.415       35.998       34.888       19.334     1295.866     1217.206      373.790        0.170        0.144       21.235       13.297        0.392      340.397       14.388      867.745
01/20/2014  15:04:00       50.579      -16.748        3.938       24.869       22.177       19.382      618.457      491.823      375.653        0.217        0.074       53.280       15.291        0.082      340.279       14.190      867.748
01/20/2014  15:05:00       63.027       54.658       17.232       58.191       47.527       36.778     3386.176     2258.771     1352.629        0.713        0.350       83.426       13.401        0.026      340.413       14.416      867.748
01/20/2014  15:06:00       60.887       57.985       71.615       66.343       43.250       34.285     4401.408     1870.562     1175.463        0.982        0.372       84.081       35.034        0.174      340.473       14.517      867.744
01/20/2014  15:07:00       69.358       87.346       45.940       85.758       49.814       54.223     7354.468     2481.469     2940.179        1.366        0.639      111.534       51.701        0.215      340.444       14.469      867.736
01/20/2014  15:08:00      118.865       72.015       27.743       46.826       41.738       37.147     2192.688     1742.098     1379.927        1.270        0.266      138.979       18.278        0.017      340.390       14.378      867.746
01/20/2014  15:09:00       68.835       48.539        4.451       37.026       26.786       25.026     1370.936      717.479      626.286        0.491        0.136       84.227        7.881        0.009      340.299       14.224      867.760
01/20/2014  15:10:00      102.308       63.817       21.674       42.390       32.187       26.838     1796.950     1036.013      720.252        0.928        0.178      120.580       11.028        0.008      340.375       14.351      867.752
01/20/2014  15:11:00      147.899       21.758       29.608       90.752       85.959       44.023     8235.892     7388.945     1938.008        2.039        0.878      149.491       31.525        0.044      340.472       14.514      867.738
01/20/2014  15:12:00       87.224      -46.753       33.542       90.020       87.066       44.113     8103.569     7580.430     1945.988        1.427        0.881       98.965       53.725        0.295      340.562       14.669      867.739
01/20/2014  15:13:00      131.163       46.466       50.145       84.039       79.871       59.964     7062.524     6379.327     3595.656        1.945        0.852      139.150       28.520        0.042      340.378       14.355      867.750
01/20/2014  15:14:00       90.633       51.570       60.972       68.825       61.240       51.950     4736.878     3750.308     2698.760        1.289        0.559      104.278       50.781        0.237      340.412       14.413      867.758
01/20/2014  15:15:00      169.267      112.272       62.951       83.148       75.331       67.342     6913.537     5674.821     4534.979        3.117        0.856      203.116       52.220        0.066      340.404       14.398      867.757
01/20/2014  15:16:00       98.169      107.775      103.131       83.339       64.481       41.559     6945.412     4157.855     1727.129        2.236        0.642      145.783       33.274        0.052      340.540       14.628      867.761
01/20/2014  15:17:00       81.229       74.443       80.659       78.428       56.302       50.481     6150.933     3169.946     2548.355        1.526        0.593      110.182       51.002        0.214      340.510       14.579      867.762
01/20/2014  15:18:00      125.856      160.102      118.362       97.337       57.091       49.893     9474.557     3259.342     2489.273        3.535        0.761      203.647       39.705        0.038      340.457       14.487      867.751
01/20/2014  15:19:00       82.391       87.140       89.971       66.967       74.200       57.843     4484.517     5505.677     3345.762        1.790        0.667      119.923       54.865        0.209      340.464       14.502      867.756
01/20/2014  15:20:00      132.556       63.507       44.406      112.222       62.874       53.441    12593.863     3953.137     2855.923        2.149        0.970      146.983       52.697        0.129      340.448       14.473      867.774
01/20/2014  15:21:00       90.388       17.566       13.858       89.594       54.724       42.978     8027.125     2994.722     1847.103        1.077        0.643       92.079       27.842        0.091      340.423       14.433      867.784
01/20/2014  15:22:00      119.813       78.565       33.440       61.381       51.826       43.731     3767.676     2685.935     1912.396        1.500        0.418      143.275       22.688        0.025      340.397       14.389      867.785
01/20/2014  15:23:00       83.503       80.337       87.027       55.530       52.743       40.744     3083.578     2781.813     1660.088        1.426        0.376      115.874       31.303        0.073      340.431       14.447      867.797
01/20/2014  15:24:00       77.742       76.262       53.470       63.727       56.946       51.163     4061.162     3242.896     2617.674        1.232        0.496      108.902       29.195        0.072      340.434       14.452      867.810
01/20/2014  15:25:00       62.031       19.992       43.825       54.202       42.271       31.178     2937.851     1786.879      972.055        0.593        0.285       65.173       31.495        0.234      340.466       14.505      867.824
01/20/2014  15:26:00       70.784       29.576       34.265       59.785       39.189       37.874     3574.225     1535.816     1434.424        0.680        0.327       76.715       35.045        0.209      340.473       14.517      867.829
01/20/2014  15:27:00       90.565       65.998       33.681       57.530       33.954       39.829     3309.694     1152.857     1586.370        0.987        0.302      112.061       32.062        0.082      340.513       14.585      867.839
01/20/2014  15:28:00      108.206       47.880       26.861       85.532       56.543       38.183     7315.670     3197.131     1457.904        1.334        0.599      118.326       28.375        0.058      340.491       14.547      867.840
01/20/2014  15:29:00      120.060       66.162       45.348       55.991       66.129       61.664     3134.975     4373.011     3802.470        1.608        0.566      137.083       50.448        0.135      340.489       14.543      867.842
01/20/2014  15:30:00      102.065      118.294      108.527       61.966       61.112       47.679     3839.832     3734.705     2273.247        2.302        0.492      156.240       35.695        0.052      340.510       14.579      867.855
01/20/2014  15:31:00      161.003       95.576       59.716      100.110       55.631       64.001    10021.975     3094.777     4096.068        2.791        0.861      187.235       51.903        0.077      340.552       14.649      867.861
01/20/2014  15:32:00      288.099      185.741       42.560       97.632       77.205       77.138     9531.915     5960.568     5950.254        7.037        1.072      342.784       38.817        0.013      340.434       14.450      867.863
01/20/2014  15:33:00      154.030      104.832       22.865      111.116       72.018       58.770    12346.779     5186.549     3453.916        2.811        1.049      186.320       26.836        0.021      340.366       14.335      867.876
01/20/2014  15:34:00      182.043      112.074       18.979       90.558       81.238       59.260     8200.753     6599.637     3511.800        3.218        0.916      213.777       29.617        0.019      340.347       14.300      867.871
01/20/2014  15:35:00      174.221      122.959       27.156       78.824       56.173       49.707     6213.168     3155.364     2470.809        2.902        0.592      213.241       37.563        0.031      340.373       14.347      867.873
01/20/2014  15:36:00      121.352       72.419       13.961       87.808       59.550       47.556     7710.185     3546.227     2261.526        1.684        0.676      141.318       36.089        0.065      340.423       14.433      867.863
01/20/2014  15:37:00      139.516       87.994       10.921       82.477       64.484       57.166     6802.517     4158.154     3267.992        2.077        0.711      164.947       47.088        0.081      340.472       14.513      867.868
01/20/2014  15:38:00      186.169      132.883       11.412       89.075       68.395       65.811     7934.292     4677.915     4331.039        3.469        0.847      228.729       51.407        0.051      340.425       14.433      867.868
01/20/2014  15:39:00      144.831       99.151       66.928       92.527       50.397       40.089     8561.166     2539.855     1607.144        2.399        0.635      175.519       46.350        0.070      340.462       14.497      867.866
01/20/2014  15:40:00      111.594       74.660       73.324      103.269       75.159       79.458    10664.438     5648.905     6313.511        2.301        1.131      134.266       58.593        0.190      340.413       14.415      867.868
01/20/2014  15:41:00      106.430      102.415       85.872       96.315       56.725       57.771     9276.581     3217.680     3337.481        2.251        0.792      147.703       54.080        0.134      340.395       14.385      867.877
01/20/2014  15:42:00      241.349      143.437       51.018       96.771       94.133       79.744     9364.619     8861.038     6359.146        5.300        1.229      280.755       41.248        0.022      340.292       14.209      867.877
01/20/2014  15:43:00      145.497       91.547       26.723       73.220       61.441       54.074     5361.123     3774.973     2923.945        2.116        0.603      171.902       36.989        0.046      340.333       14.278      867.888
01/20/2014  15:44:00       95.300       52.391        3.902       73.543       78.192       39.976     5408.630     6113.973     1598.075        1.248        0.656      108.751       27.123        0.062      340.357       14.320      867.888
01/20/2014  15:45:00      167.968       79.413       13.620       82.464       69.851       57.783     6800.250     4879.095     3338.893        2.486        0.751      185.795       29.475        0.025      340.283       14.194      867.885
01/20/2014  15:46:00      184.207      120.044       38.980      113.025       65.880       58.641    12774.724     4340.151     3438.712        3.520        1.028      219.870       38.709        0.031      340.242       14.125      867.884
01/20/2014  15:47:00      242.185      130.172       28.542      124.728       72.864       58.460    15557.073     5309.165     3417.519        5.034        1.214      274.951       52.618        0.037      340.149       13.967      867.884
01/20/2014  15:48:00      108.378       67.201       39.617       90.581       69.463       60.960     8204.921     4825.168     3716.178        1.729        0.837      127.521       46.540        0.133      340.196       14.049      867.893
01/20/2014  15:49:00      154.579      110.865       23.246       75.749       64.712       57.677     5737.864     4187.622     3326.678        2.499        0.663      190.225       30.901        0.026      340.156       13.981      867.910
01/20/2014  15:50:00      163.600       87.988       45.222       94.786       61.449       54.555     8984.308     3775.940     2976.268        2.614        0.787      185.760       49.672        0.072      340.172       14.007      867.919
01/20/2014  15:51:00      110.056       56.424       21.162       74.939       64.766       44.715     5615.908     4194.643     1999.400        1.377        0.590      123.677       32.933        0.071      340.183       14.027      867.933
01/20/2014  15:52:00      194.948      140.776       25.751       85.003       76.031       58.257     7225.543     5780.750     3393.877        3.744        0.820      240.463       46.482        0.037      340.179       14.017      867.945
01/20/2014  15:53:00      179.914       98.644       13.082       64.356       55.726       54.735     4141.678     3105.401     2995.951        2.625        0.512      205.182       24.238        0.014      340.175       14.010      867.948
01/20/2014  15:54:00      141.793       68.353       20.264       77.526       63.217       39.899     6010.290     3996.451     1591.933        1.839        0.580      157.408       19.112        0.015      340.144       13.961      867.955
01/20/2014  15:55:00      225.862      133.120       37.975      144.032       91.564       72.577    20745.350     8383.967     5267.417        5.228        1.720      262.173       55.869        0.045      340.091       13.869      867.952
01/20/2014  15:56:00      222.933      129.621       25.843      104.593       87.810       61.055    10939.718     7710.678     3727.751        4.477        1.119      257.878       33.866        0.017      340.029       13.764      867.956
01/20/2014  15:57:00      265.220      159.148       22.008       81.830       53.153       47.913     6696.153     2825.279     2295.632        5.398        0.591      309.305       28.314        0.008      340.014       13.737      867.961
01/20/2014  15:58:00      191.060       92.747       10.768       69.885       71.432       50.762     4883.928     5102.533     2576.793        2.889        0.628      212.382       36.166        0.029      340.002       13.718      867.963
01/20/2014  15:59:00      144.121      103.439       21.704       63.569       50.603       55.408     4040.956     2560.642     3070.052        2.080        0.484      177.399       34.678        0.038      340.008       13.730      867.967
01/20/2014  16:00:00      178.287      101.901       26.072       92.593       79.205       47.675     8573.390     6273.503     2272.946        2.998        0.856      205.354       39.711        0.037      339.988       13.695      867.975
01/20/2014  16:01:00      205.838      156.299       13.655       97.224       71.007       59.948     9452.598     5042.017     3593.735        4.253        0.904      258.455       45.907        0.032      339.989       13.696      867.985
01/20/2014  16:02:00      190.115      124.837       42.327       72.369       59.366       48.865     5237.214     3524.281     2387.787        3.233        0.557      227.438       27.016        0.014      339.962       13.651      867.993
01/20/2014  16:03:00      123.973       86.455       62.568      109.627       70.052       60.723    12018.040     4907.340     3687.329        2.368        1.031      151.141       61.208        0.164      340.000       13.717      868.009
01/20/2014  16:04:00      123.045       74.994       32.857       52.011       50.445       35.556     2705.189     2544.707     1264.243        1.418        0.326      144.098       20.868        0.021      339.993       13.706      868.014
01/20/2014  16:05:00      142.066       71.937       22.559       54.798       43.621       38.906     3002.783     1902.812     1513.696        1.614        0.321      159.241       26.030        0.027      339.983       13.691      868.019
01/20/2014  16:06:00      221.672      111.449       31.658       93.236       80.739       57.768     8692.999     6518.809     3337.122        4.055        0.927      248.111       45.075        0.033      339.935       13.606      868.015
01/20/2014  16:07:00      160.486       77.686        5.184       86.056       76.721       53.693     7405.581     5886.074     2882.955        2.399        0.809      178.300       41.479        0.054      339.915       13.573      868.020
01/20/2014  16:08:00      195.489      116.860       36.185       66.851       58.315       56.098     4469.012     3400.683     3147.023        3.210        0.551      227.754       20.480        0.008      339.871       13.499      868.027
01/20/2014  16:09:00      161.869       96.346       45.641       77.814       67.140       50.076     6054.985     4507.763     2507.618        2.532        0.654      188.373       27.237        0.021      339.803       13.385      868.028
01/20/2014  16:10:00      177.651       71.824       43.638       96.386       72.191       58.389     9290.191     5211.479     3409.233        2.826        0.896      191.621       42.836        0.050      339.769       13.328      868.045
01/20/2014  16:11:00      231.178      160.730       34.706       50.176       70.493       46.451     2517.646     4969.323     2157.687        4.506        0.482      281.563       12.813        0.002      339.788       13.357      868.058
01/20/2014  16:12:00      150.688       67.983       24.616       83.469       56.794       47.544     6967.056     3225.596     2260.437        2.019        0.623      165.314       27.127        0.027      339.771       13.332      868.061
01/20/2014  16:13:00       73.258       57.820       23.568       84.027       53.322       45.869     7060.586     2843.206     2103.958        1.063        0.600       93.327       44.842        0.231      339.721       13.248      868.062
01/20/2014  16:14:00       91.304       60.834       24.311       73.370       48.207       32.915     5383.120     2323.912     1083.369        1.071        0.440      109.714       27.819        0.064      339.693       13.201      868.058
01/20/2014  16:15:00      198.627      121.362       27.362       86.049       59.324       51.462     7404.414     3519.323     2648.382        3.425        0.679      232.769       36.173        0.024      339.673       13.165      868.051
01/20/2014  16:16:00      189.812      105.789       30.428       87.611       76.520       46.441     7675.689     5855.296     2156.762        3.191        0.784      217.302       26.345        0.015      339.616       13.067      868.048
01/20/2014  16:17:00      141.248       83.069       28.181       93.110       67.909       47.997     8669.415     4611.642     2303.758        2.161        0.779      163.865       21.259        0.017      339.615       13.068      868.043
01/20/2014  16:18:00      160.253       82.238       18.214       91.694       64.062       51.197     8407.702     4103.932     2621.133        2.395        0.757      180.122       40.771        0.051      339.595       13.034      868.043
01/20/2014  16:19:00      126.556       64.252       27.748       71.618       65.139       48.810     5129.162     4243.146     2382.418        1.633        0.588      141.932       32.835        0.054      339.596       13.039      868.060
01/20/2014  16:20:00      172.604      121.893       18.538       99.871       51.748       46.530     9974.181     2677.824     2165.063        2.990        0.741      211.306       32.632        0.024      339.585       13.017      868.068
01/20/2014  16:21:00      159.854      111.712       26.305       71.279       57.109       43.260     5080.720     3261.482     1871.470        2.447        0.511      195.020       19.600        0.010      339.516       12.901      868.077
01/20/2014  16:22:00      142.554       84.364       26.401       48.422       46.449       39.593     2344.687     2157.523     1567.571        1.710        0.303      165.647       23.864        0.021      339.496       12.867      868.086
01/20/2014  16:23:00      142.542       98.116       16.477       78.681       53.111       41.526     6190.671     2820.799     1724.414        2.047        0.537      173.047       23.225        0.018      339.498       12.870      868.092
01/20/2014  16:24:00       86.051       73.262       11.696       52.220       38.374       33.067     2726.955     1472.588     1093.455        0.910        0.265      113.014       19.343        0.029      339.464       12.814      868.103
01/20/2014  16:25:00       73.397       65.348        3.566       58.535       46.601       32.673     3426.368     2171.655     1067.539        0.817        0.333       98.273       25.061        0.065      339.466       12.818      868.113
01/20/2014  16:26:00       38.841       73.494        2.859       41.029       49.015       31.089     1683.403     2402.506      966.529        0.598        0.253       83.126       25.743        0.096      339.375       12.665      868.123
01/20/2014  16:27:00       42.912       63.292        7.356       51.357       33.139       33.347     2637.560     1098.193     1112.004        0.537        0.242       76.468       18.020        0.056      339.391       12.692      868.127
01/20/2014  16:28:00       47.846       79.886       -9.412       52.703       52.669       34.160     2777.644     2774.013     1166.925        0.774        0.336       93.118       22.573        0.059      339.352       12.627      868.126
01/20/2014  16:29:00       62.310       56.414        5.150       42.267       33.603       27.947     1786.534     1129.166      781.012        0.539        0.185       84.054       17.615        0.044      339.316       12.565      868.133
01/20/2014  16:30:00       59.134       71.710        3.869       42.764       35.703       32.206     1828.781     1274.675     1037.225        0.640        0.207       92.947       21.832        0.055      339.315       12.563      868.140
01/20/2014  16:31:00       44.388       65.541       -0.294       36.369       42.674       28.924     1322.723     1821.047      836.622        0.512        0.199       79.158       22.066        0.078      339.298       12.535      868.142
01/20/2014  16:32:00       63.484       69.010        0.927       43.247       43.205       32.732     1870.332     1866.703     1071.352        0.680        0.240       93.769       22.837        0.059      339.233       12.426      868.139
01/20/2014  16:33:00       96.757       79.778       13.726       84.471       54.976       46.808     7135.372     3022.322     2191.004        1.413        0.617      125.405       30.311        0.058      339.246       12.448      868.138
01/20/2014  16:34:00      111.229       82.728        8.618       58.809       58.062       32.077     3458.459     3371.251     1028.927        1.357        0.393      138.621       31.057        0.050      339.220       12.403      868.140
01/20/2014  16:35:00       73.997       79.795        6.919       66.404       59.174       38.535     4409.477     3501.519     1484.929        1.064        0.470      108.825       33.687        0.096      339.175       12.328      868.142
01/20/2014  16:36:00       98.151       79.647        6.939       62.886       45.527       40.471     3954.612     2072.702     1637.872        1.184        0.383      126.402       27.129        0.046      339.200       12.370      868.141
01/20/2014  16:37:00       52.898       83.712       -0.933       41.223       55.399       27.718     1699.318     3069.053      768.298        0.767        0.277       99.025       26.489        0.072      339.177       12.331      868.155
01/20/2014  16:38:00       95.918       76.396       -1.839       44.907       36.351       33.975     2016.598     1321.402     1154.301        0.977        0.225      122.623       20.927        0.029      339.177       12.334      868.160
01/20/2014  16:39:00       26.747       46.964       -6.611       36.254       41.772       30.835     1314.351     1744.920      950.822        0.349        0.201       54.047       23.767        0.193      339.123       12.241      868.175
01/20/2014  16:40:00       27.710       91.823        0.077       37.412       66.284       31.535     1399.646     4393.560      994.471        0.799        0.339       95.913       35.815        0.139      339.136       12.264      868.173
01/20/2014  16:41:00       17.058       76.509       -6.911       26.185       26.601       20.086      685.635      707.628      403.435        0.399        0.090       78.388       15.297        0.038      339.145       12.277      868.172
01/20/2014  16:42:00       13.939       65.407       -6.836       27.711       25.843       20.293      767.884      667.850      411.793        0.318        0.092       66.876       17.599        0.069      339.114       12.224      868.171
01/20/2014  16:43:00       23.097       74.153       -7.653       27.723       35.636       18.757      768.543     1269.936      351.825        0.424        0.120       77.667       17.606        0.051      339.073       12.157      868.185
01/20/2014  16:44:00       -5.604      125.411      -23.910       20.687       33.298       14.561      427.958     1108.726      212.017        0.904        0.087      125.536       10.711        0.007      339.065       12.143      868.191
01/20/2014  16:45:00        9.120      173.367      -28.295       17.566       20.460       14.101      308.565      418.600      198.827        1.593        0.046      173.607       12.187        0.005      339.019       12.066      868.198
01/20/2014  16:46:00        7.445      181.686      -32.004       25.445       28.015       13.512      647.470      784.856      182.587        1.785        0.081      181.839       10.808        0.004      339.004       12.041      868.194
01/20/2014  16:47:00       18.243      137.936      -17.893       31.344       49.588       24.683      982.451     2458.989      609.242        1.186        0.203      139.137       26.640        0.037      338.911       11.883      868.203
01/20/2014  16:48:00       42.714       86.763       -1.214       48.953       57.085       38.350     2396.384     3258.655     1470.717        0.824        0.356       96.707       33.121        0.117      338.869       11.815      868.203
01/20/2014  16:49:00        0.532      119.328      -19.190       18.150       18.119       14.606      329.414      328.292      213.325        0.774        0.044      119.329        8.669        0.005      338.874       11.822      868.199
01/20/2014  16:50:00       -7.329      129.335      -23.352       26.453       33.912       13.375      699.778     1150.033      178.894        0.968        0.101      129.543       12.211        0.009      338.842       11.768      868.201
01/20/2014  16:51:00      -14.136      179.024      -23.458       35.827       25.547       17.894     1283.572      652.661      320.187        1.753        0.113      179.581       14.957        0.007      338.673       11.484      868.210
01/20/2014  16:52:00       21.534      180.025      -20.672       38.884       44.874       30.220     1512.001     2013.709      913.276        1.887        0.222      181.309       29.063        0.026      338.622       11.396      868.212
01/20/2014  16:53:00        6.838      115.384       -8.233       33.477       51.564       28.468     1120.689     2658.854      810.434        0.901        0.229      115.586       32.773        0.080      338.565       11.304      868.211
01/20/2014  16:54:00        2.605      123.240      -13.498       31.518       29.504       24.216      993.354      870.489      586.422        0.891        0.123      123.267       19.630        0.025      338.562       11.297      868.224
01/20/2014  16:55:00      -12.499      174.191      -25.863       39.623       62.546       27.014     1569.976     3912.036      729.738        1.869        0.311      174.639       28.927        0.027      338.494       11.183      868.216
01/20/2014  16:56:00        2.023      153.287      -17.372       42.154       65.064       34.780     1776.954     4233.267     1209.671        1.551        0.361      153.300       30.986        0.041      338.360       10.957      868.220
01/20/2014  16:57:00       24.582      170.295      -17.039       47.767       71.887       35.964     2281.726     5167.723     1293.432        1.932        0.437      172.060       38.001        0.049      338.304       10.864      868.218
01/20/2014  16:58:00       27.503      114.206        5.661       60.063       89.815       43.479     3607.547     8066.693     1890.457        1.370        0.678      117.471       41.326        0.124      338.245       10.765      868.238
01/20/2014  16:59:00       26.006      123.640      -11.345       42.279       57.267       27.221     1787.549     3279.518      740.971        1.095        0.290      126.345       32.067        0.064      338.211       10.709      868.256
01/20/2014  17:00:00        5.733      119.042        1.044       70.978       59.573       39.033     5037.902     3548.982     1523.549        1.216        0.506      119.180       43.583        0.134      338.189       10.671      868.276
01/20/2014  17:01:00       47.190      146.082      -15.480       66.255       93.412       39.149     4389.788     8725.884     1532.649        1.922        0.732      153.515       45.517        0.088      338.198       10.684      868.284
01/20/2014  17:02:00       38.405      168.990      -11.960       55.350       79.842       46.393     3063.631     6374.766     2152.337        2.088        0.580      173.299       47.127        0.074      338.159       10.619      868.307
01/20/2014  17:03:00       56.662       84.496       17.767       67.894       69.452       59.257     4609.637     4823.523     3511.403        1.180        0.647      101.736       44.226        0.189      338.134       10.578      868.328
01/20/2014  17:04:00       14.882      193.130      -28.581       42.772       61.603       34.584     1829.430     3794.935     1196.085        2.258        0.341      193.702       30.197        0.024      338.176       10.647      868.340
01/20/2014  17:05:00       49.751      142.924       -7.895       61.757       67.058       44.589     3813.988     4496.829     1988.171        1.663        0.515      151.336       45.380        0.090      338.174       10.645      868.356
01/20/2014  17:06:00       38.582      130.103       -8.412       41.660       49.712       36.610     1735.583     2471.317     1340.297        1.202        0.277      135.703       30.560        0.051      338.085       10.496      868.372
01/20/2014  17:07:00       33.393      143.491      -14.376       44.166       79.592       43.474     1950.620     6334.836     1889.954        1.604        0.509      147.325       50.620        0.118      338.106       10.531      868.381
01/20/2014  17:08:00       40.132      100.544        9.025       42.672       77.161       45.287     1820.903     5953.803     2050.893        1.081        0.491      108.257       42.654        0.155      338.087       10.500      868.392
01/20/2014  17:09:00       35.316      126.567       -9.836       45.537       56.532       41.329     2073.608     3195.838     1708.080        1.217        0.349      131.401       38.715        0.087      338.080       10.489      868.408
01/20/2014  17:10:00       45.840      111.927      -12.791       48.427       62.263       30.741     2345.196     3876.621      945.025        1.098        0.358      120.950       30.122        0.062      338.080       10.489      868.426
01/20/2014  17:11:00       46.510       77.158        5.834       65.527       51.940       39.867     4293.778     2697.745     1589.390        0.836        0.429       90.092       36.053        0.160      338.033       10.410      868.446
01/20/2014  17:12:00       61.637      109.551      -10.468       57.618       62.539       39.756     3319.843     3911.123     1580.537        1.236        0.441      125.700       39.211        0.097      338.085       10.497      868.463
01/20/2014  17:13:00       53.480      100.812       -1.904       37.743       69.906       37.058     1424.510     4886.846     1373.309        1.035        0.384      114.119       37.651        0.109      338.099       10.520      868.476
01/20/2014  17:14:00       25.926       79.436       -5.258       44.818       42.252       35.799     2008.618     1785.244     1281.570        0.604        0.254       83.560       27.926        0.112      338.027       10.400      868.498
01/20/2014  17:15:00       22.152       44.011       -5.865       25.997       35.056       18.813      675.862     1228.932      353.942        0.236        0.113       49.272       22.050        0.200      337.976       10.312      868.514
01/20/2014  17:16:00       45.581       63.655       -5.677       29.460       31.456       25.903      867.867      989.471      670.947        0.434        0.126       78.292       20.579        0.069      337.989       10.334      868.535
01/20/2014  17:17:00       38.395       88.080       -5.223       49.765       38.952       31.370     2476.537     1517.231      984.095        0.712        0.249       96.085       28.555        0.088      338.098       10.518      868.548
01/20/2014  17:18:00       27.256       70.311       -8.204       21.120       41.293       18.837      446.057     1705.105      354.837        0.413        0.125       75.409       19.173        0.065      338.057       10.451      868.553
01/20/2014  17:19:00       -2.164       66.739       -5.915       17.806       46.577       15.955      317.055     2169.424      254.564        0.362        0.137       66.774       22.710        0.116      338.042       10.424      868.547
01/20/2014  17:20:00        9.558      104.073      -18.642       26.078       32.526       15.691      680.068     1057.946      246.208        0.663        0.099      104.511       14.837        0.020      338.132       10.575      868.551
01/20/2014  17:21:00       10.708      123.044      -22.863       28.913       35.015       22.003      835.952     1226.022      484.131        0.916        0.127      123.509       21.618        0.031      338.109       10.537      868.563
01/20/2014  17:22:00        5.418      122.596      -19.878       17.410       27.362       12.062      303.107      748.692      145.503        0.833        0.060      122.716       11.994        0.010      338.138       10.585      868.580
01/20/2014  17:23:00       -2.371       89.727      -12.699       23.277       30.564       16.897      541.801      934.171      285.497        0.499        0.088       89.758       16.828        0.035      338.176       10.648      868.600
01/20/2014  17:24:00        5.407      104.870      -17.422       15.876       29.491       11.703      252.053      869.705      136.962        0.629        0.063      105.009       13.592        0.017      338.135       10.580      868.617
01/20/2014  17:25:00      -24.605       78.864      -12.561       21.523       23.342       16.669      463.251      544.836      277.864        0.413        0.064       82.613       12.448        0.023      338.164       10.630      868.633
01/20/2014  17:26:00        5.660      110.938      -14.921       29.924       32.666       20.061      895.454     1067.061      402.448        0.746        0.118      111.083       17.858        0.026      338.094       10.512      868.647
01/20/2014  17:27:00        0.597      140.573      -21.476       28.688       31.118       15.831      823.022      968.346      250.634        1.113        0.102      140.575       14.710        0.011      338.179       10.654      868.661
01/20/2014  17:28:00        5.222      108.689      -13.026       19.200       27.185       15.489      368.622      739.050      239.923        0.668        0.067      108.814       17.801        0.027      338.080       10.489      868.666
01/20/2014  17:29:00        3.138      108.054      -18.256       31.486       21.301       13.980      991.384      453.721      195.434        0.683        0.082      108.100       12.511        0.013      338.102       10.527      868.675
01/20/2014  17:30:00       -0.465      120.345      -17.385       15.862       21.347       12.654      251.587      455.689      160.115        0.783        0.043      120.346        8.325        0.005      338.088       10.503      868.683
01/20/2014  17:31:00       18.140      133.572      -18.667       23.082       24.490       17.817      532.782      599.755      317.447        0.998        0.072      134.798       15.550        0.013      338.103       10.528      868.698
01/20/2014  17:32:00       17.925       86.428       -6.748       20.730       28.779       18.168      429.747      828.247      330.080        0.471        0.079       88.267       16.056        0.033      337.967       10.299      868.706
01/20/2014  17:33:00       31.126      101.487      -13.030       28.449       30.103       23.563      809.353      906.185      555.197        0.685        0.114      106.153       21.149        0.040      337.923       10.224      868.709
01/20/2014  17:34:00       35.894      137.456      -25.441       24.076       29.715       19.858      579.642      882.994      394.321        1.134        0.093      142.065       17.236        0.015      337.993       10.343      868.699
01/20/2014  17:35:00       33.881      122.750      -22.367       21.783       42.055       19.509      474.487     1768.589      380.613        0.967        0.131      127.340       20.626        0.026      337.948       10.269      868.696
01/20/2014  17:36:00       44.020       97.111      -13.431       32.518       39.365       24.570     1057.389     1549.601      603.700        0.738        0.161      106.623       23.142        0.047      337.862       10.123      868.693
01/20/2014  17:37:00       25.639       97.951       -5.490       28.231       42.025       25.393      796.974     1766.063      644.806        0.674        0.160      101.251       25.778        0.065      337.883       10.158      868.699
01/20/2014  17:38:00       37.317       85.788      -11.925       28.651       33.487       21.117      820.903     1121.373      445.946        0.564        0.119       93.552       18.565        0.039      337.869       10.133      868.710
01/20/2014  17:39:00       30.414       92.934      -10.002       24.269       24.462       24.870      589.000      598.378      618.501        0.573        0.090       97.784       19.770        0.041      337.871       10.137      868.726
01/20/2014  17:40:00       19.008       99.444      -17.001       19.829       22.292       13.712      393.187      496.945      188.028        0.581        0.054      101.244       11.663        0.013      337.944       10.262      868.751
01/20/2014  17:41:00       -1.451      120.507      -20.819       19.206       17.242        9.123      368.864      297.304       83.235        0.785        0.037      120.516        7.286        0.004      337.987       10.333      868.768
01/20/2014  17:42:00       14.271      122.092      -16.504       36.665       26.020       20.789     1344.294      677.051      432.166        0.892        0.123      122.923       13.132        0.011      338.014       10.379      868.792
01/20/2014  17:43:00        7.086      160.747      -15.776       48.674       47.483       27.871     2369.158     2254.646      776.774        1.577        0.270      160.903       29.236        0.033      337.909       10.202      868.817
01/20/2014  17:44:00       14.500      145.923      -22.181       24.157       34.301       22.023      583.550     1176.570      485.028        1.212        0.112      146.641       16.804        0.013      337.810       10.034      868.840
01/20/2014  17:45:00       28.540      174.255      -35.574       34.232       28.401       19.019     1171.855      806.618      361.721        1.739        0.117      176.576       14.342        0.007      337.812       10.039      868.864
01/20/2014  17:46:00       16.068      163.919      -28.623       20.443       21.248       12.430      417.898      451.470      154.493        1.449        0.051      164.705        7.114        0.002      337.811       10.039      868.874
01/20/2014  17:47:00       25.435      152.629      -21.193       29.365       40.350       22.730      862.293     1628.137      516.658        1.370        0.150      154.734       24.298        0.025      337.753        9.940      868.885
01/20/2014  17:48:00       38.179      136.430      -13.490       36.573       34.081       29.572     1337.581     1161.537      874.502        1.181        0.169      141.671       23.718        0.028      337.714        9.875      868.887
01/20/2014  17:49:00       30.475      105.672      -15.845       39.953       49.135       31.868     1596.214     2414.236     1015.598        0.869        0.251      109.979       29.758        0.073      337.721        9.885      868.890
01/20/2014  17:50:00       19.184      131.703      -22.944       24.364       35.815       24.283      593.609     1282.734      589.650        1.035        0.123      133.093       20.930        0.025      337.669        9.800      868.911
01/20/2014  17:51:00       24.008      159.221      -25.345       19.249       24.574       15.310      370.538      603.866      234.398        1.389        0.060      161.021       11.826        0.005      337.632        9.738      868.942
01/20/2014  17:52:00       30.804      103.945      -18.196       26.071       32.315       19.788      679.682     1044.250      391.578        0.710        0.106      108.414       18.240        0.028      337.592        9.670      868.967
01/20/2014  17:53:00        3.783      115.908      -11.370       20.017       34.405       21.528      400.696     1183.677      463.436        0.781        0.102      115.970       21.509        0.034      337.571        9.635      868.977
01/20/2014  17:54:00        7.662      142.742      -24.827       23.880       26.994       15.779      570.237      728.656      248.961        1.130        0.077      142.948       13.205        0.009      337.595        9.675      868.993
01/20/2014  17:55:00       13.185      169.929      -26.790       29.197       31.191       16.863      852.460      972.867      284.376        1.594        0.105      170.439       16.518        0.009      337.598        9.679      868.999
01/20/2014  17:56:00       19.828      159.308      -24.955       32.321       33.770       16.374     1044.644     1140.435      268.117        1.442        0.123      160.537       14.266        0.008      337.562        9.619      869.011
01/20/2014  17:57:00       11.299      166.528      -25.088       16.863       21.312       10.280      284.367      454.182      105.673        1.467        0.042      166.911        7.385        0.002      337.553        9.605      869.031
01/20/2014  17:58:00       11.982      129.988      -18.665       27.796       29.534       15.083      772.632      872.275      227.508        0.963        0.094      130.539       10.840        0.007      337.476        9.475      869.048
01/20/2014  17:59:00        7.023      142.660      -22.021       22.679       26.956       13.411      514.325      726.637      179.855        1.115        0.071      142.832       12.985        0.008      337.450        9.433      869.066
01/20/2014  18:00:00       -1.912      131.337      -15.314       18.084       16.440       11.514      327.040      270.263      132.582        0.911        0.036      131.351        4.325        0.001      337.435        9.408      869.079
01/20/2014  18:01:00      -14.524      126.261      -12.788       30.040       26.971       18.981      902.426      727.436      360.295        0.915        0.100      127.093       13.220        0.011      337.473        9.471      869.108
01/20/2014  18:02:00       17.383      143.383      -23.118       25.663       24.182       12.375      658.585      584.791      153.148        1.140        0.070      144.433       12.623        0.008      337.464        9.456      869.135
01/20/2014  18:03:00       16.501      118.905      -18.506       31.579       34.663       15.585      997.256     1201.535      242.891        0.860        0.122      120.044       16.353        0.019      337.405        9.356      869.158
01/20/2014  18:04:00       -6.051      118.469      -19.786       20.112       22.601       10.155      404.511      510.816      103.130        0.774        0.051      118.624       10.507        0.008      337.434        9.406      869.173
01/20/2014  18:05:00       -1.745      126.111      -16.138       16.108       16.626        9.673      259.480      276.430       93.564        0.840        0.031      126.123        7.782        0.004      337.452        9.435      869.196
01/20/2014  18:06:00       -5.819      130.180      -20.167       22.668       29.652       14.919      513.816      879.252      222.591        0.950        0.081      130.310        9.345        0.005      337.438        9.412      869.211
01/20/2014  18:07:00      -11.146      100.864      -18.678       21.256       20.777       12.131      451.804      431.678      147.163        0.584        0.052      101.478        8.233        0.007      337.397        9.343      869.221
01/20/2014  18:08:00      -27.268       59.846      -11.109       21.234       23.032       11.467      450.866      530.456      131.483        0.278        0.056       65.765        7.468        0.013      337.347        9.261      869.236
01/20/2014  18:09:00      -30.522       71.182      -10.480       31.163       28.100       14.471      971.146      789.587      209.415        0.404        0.099       77.449       14.081        0.033      337.354        9.271      869.245
01/20/2014  18:10:00      -32.549       36.375       -9.839       20.996       16.282       12.535      440.823      265.089      157.131        0.167        0.043       48.812        3.975        0.007      337.201        9.015      869.273
01/20/2014  18:11:00      -19.109       63.170       -8.157       34.249       36.252       18.220     1173.026     1314.217      331.954        0.362        0.141       65.997       13.391        0.041      337.322        9.219      869.287
01/20/2014  18:12:00        6.653      143.352      -17.581       24.135       34.775       12.679      582.493     1209.326      160.765        1.143        0.098      143.506       12.396        0.007      337.476        9.475      869.298
01/20/2014  18:13:00        3.299      133.027      -19.396       33.085       21.291       13.290     1094.615      453.300      176.629        0.990        0.086      133.068       10.945        0.007      337.424        9.388      869.311
01/20/2014  18:14:00        2.875      104.839      -16.779       20.284       19.794       11.200      411.422      391.818      125.447        0.610        0.046      104.879       10.247        0.010      337.358        9.277      869.331
01/20/2014  18:15:00      -43.469       12.338       -8.881       18.642       29.396       10.159      347.528      864.132      103.206        0.172        0.066       45.186        4.516        0.010      336.821        8.381      869.334
01/20/2014  18:16:00      -88.191       -3.154      -18.236       12.087       13.506       12.216      146.107      182.425      149.238        0.430        0.024       88.247        8.736        0.010      336.199        7.341      869.338
01/20/2014  18:17:00      -83.094       -0.177      -16.025       19.372       22.411       10.940      375.281      502.264      119.685        0.408        0.050       83.094        9.047        0.012      336.097        7.169      869.326
01/20/2014  18:18:00      -79.373        9.401      -13.638       21.898       26.519       13.552      479.540      703.241      183.651        0.397        0.068       79.928        9.298        0.014      336.202        7.346      869.323
01/20/2014  18:19:00      -53.006       16.399       -9.897       27.070       47.849       17.235      732.802     2289.500      297.039        0.325        0.166       55.485       14.577        0.069      336.450        7.760      869.324
01/20/2014  18:20:00      -61.560       30.036       -9.115       25.704       29.106       19.777      660.699      847.188      391.114        0.334        0.095       68.497       14.169        0.043      336.559        7.942      869.330
01/20/2014  18:21:00      -61.201       -9.432       -5.811       16.874       21.448       14.508      284.734      460.008      210.487        0.241        0.048       61.923       13.382        0.047      336.498        7.840      869.340
01/20/2014  18:22:00      -73.500       27.300      -10.470       21.582       28.285       21.078      465.804      800.037      444.284        0.398        0.086       78.406       18.663        0.057      336.517        7.872      869.351
01/20/2014  18:23:00      -76.945       44.335      -14.154       25.049       30.609       16.406      627.428      936.916      269.141        0.496        0.092       88.804       14.285        0.026      336.727        8.223      869.365
01/20/2014  18:24:00      -64.011       28.311      -13.544       19.306       36.865       14.211      372.736     1359.062      201.941        0.351        0.097       69.992       16.552        0.056      336.710        8.194      869.397
01/20/2014  18:25:00      -60.419        3.409      -18.002       16.646       27.832       18.429      277.085      774.645      339.646        0.269        0.070       60.515       18.555        0.094      336.618        8.040      869.416
01/20/2014  18:26:00      -57.035        4.279       -5.022       14.211       27.130       13.239      201.939      736.055      175.259        0.220        0.056       57.195       13.964        0.060      336.374        7.634      869.438
01/20/2014  18:27:00      -53.998       57.392      -13.671       29.291       43.228       17.130      857.983     1868.642      293.452        0.471        0.151       78.801       19.600        0.062      336.855        8.438      869.443
01/20/2014  18:28:00      -55.675       25.935      -10.495       23.324       31.969       15.180      543.988     1021.990      230.437        0.284        0.090       61.419       17.271        0.079      336.726        8.222      869.444
01/20/2014  18:29:00      -53.344       12.399      -11.286       17.374       18.767       11.489      301.850      352.207      132.009        0.196        0.039       54.766       11.003        0.040      336.445        7.751      869.458
01/20/2014  18:30:00      -63.677       17.891      -17.276       18.232       18.769       11.810      332.404      352.282      139.472        0.275        0.041       66.143       12.046        0.033      336.409        7.692      869.458
01/20/2014  18:31:00      -89.195       19.094       -9.829       16.064       13.649        8.814      258.061      186.306       77.687        0.447        0.026       91.216        6.716        0.005      336.503        7.848      869.459
01/20/2014  18:32:00      -57.099        6.867       -6.886       21.765       16.011       11.954      473.714      256.364      142.895        0.211        0.044       57.510        7.845        0.019      336.357        7.604      869.460
01/20/2014  18:33:00     -104.859        1.938      -16.771       24.687       20.197       11.550      609.468      407.914      133.402        0.622        0.058      104.877        6.578        0.004      336.158        7.272      869.471
01/20/2014  18:34:00      -74.454        2.721      -11.998       22.580       25.047       14.147      509.863      627.363      200.125        0.352        0.067       74.504       13.164        0.031      336.031        7.059      869.489
01/20/2014  18:35:00      -80.345       11.767      -17.673       24.346       19.297       13.395      592.714      372.365      179.426        0.403        0.057       81.202       11.122        0.019      336.162        7.278      869.511
01/20/2014  18:36:00      -82.444       25.668      -14.583       21.623       27.096       17.054      467.565      734.220      290.847        0.458        0.075       86.348       10.708        0.015      336.366        7.619      869.536
01/20/2014  18:37:00      -78.056       10.835      -11.424       19.907       25.550       17.949      396.303      652.777      322.168        0.386        0.069       78.805       11.341        0.021      336.231        7.393      869.545
01/20/2014  18:38:00     -117.728       21.131      -18.669       42.493       30.656       19.210     1805.658      939.779      369.017        0.888        0.156      119.609        6.549        0.003      336.196        7.335      869.567
01/20/2014  18:39:00      -81.927       -9.432       -9.693       22.319       26.379       16.759      498.120      695.854      280.873        0.418        0.074       82.469       11.072        0.018      335.842        6.745      869.583
01/20/2014  18:40:00      -94.869       -1.119      -11.960       21.259       24.631       14.684      451.931      606.668      215.611        0.521        0.064       94.876       11.584        0.015      335.903        6.848      869.603
01/20/2014  18:41:00      -70.370       13.774      -16.422       38.794       24.159       16.934     1504.976      583.666      286.767        0.389        0.119       71.705       18.399        0.066      336.069        7.123      869.624
01/20/2014  18:42:00      -99.923        8.771      -15.016       40.244       27.298       17.057     1619.588      745.165      290.950        0.647        0.133      100.307       16.739        0.028      336.101        7.176      869.628
01/20/2014  18:43:00      -89.986       13.959      -15.852       21.434       26.682       15.679      459.425      711.946      245.829        0.498        0.071       91.063       12.304        0.018      336.120        7.207      869.636
01/20/2014  18:44:00     -104.003       19.611      -17.873       35.008       21.905       16.294     1225.574      479.841      265.509        0.675        0.099      105.836        8.123        0.006      336.269        7.458      869.638
01/20/2014  18:45:00      -81.939       44.253       -9.051       31.042       52.902       19.784      963.594     2798.579      391.389        0.645        0.208       93.125       17.146        0.034      336.333        7.565      869.644
01/20/2014  18:46:00      -74.600      -15.143      -10.170       25.769       24.652       16.385      664.044      607.708      268.453        0.372        0.077       76.122       12.071        0.025      336.152        7.261      869.645
01/20/2014  18:47:00      -76.686      -17.147       -1.546       20.343       28.109       16.042      413.858      790.096      257.357        0.382        0.073       78.579       12.912        0.027      336.078        7.136      869.665
01/20/2014  18:48:00      -66.534        6.846      -16.262       19.079       26.097       12.780      363.999      681.049      163.339        0.297        0.060       66.885        7.871        0.014      336.061        7.110      869.673
01/20/2014  18:49:00      -56.982        2.306      -15.244       27.588       19.823       13.239      761.077      392.932      175.262        0.241        0.066       57.028       10.367        0.033      336.052        7.096      869.691
01/20/2014  18:50:00      -66.989      -23.957       -4.193       15.383       20.245       12.555      236.637      409.851      157.635        0.294        0.040       71.144        7.710        0.012      335.956        6.935      869.713
01/20/2014  18:51:00      -66.836        0.362       -9.718       26.583       22.333        8.862      706.632      498.770       78.542        0.292        0.064       66.837        6.913        0.011      336.048        7.089      869.740
01/20/2014  18:52:00      -61.450      -16.269       -9.593       16.347       16.625       13.676      267.217      276.393      187.046        0.243        0.037       63.568       10.116        0.025      335.948        6.921      869.748
01/20/2014  18:53:00      -89.158      -15.443      -15.581       30.260       25.919       18.581      915.677      671.815      345.249        0.518        0.097       90.485       15.967        0.031      336.015        7.034      869.769
01/20/2014  18:54:00     -130.975       -3.123       -8.829       31.211       27.493       20.333      974.132      755.851      413.450        0.969        0.107      131.013       19.351        0.022      336.010        7.025      869.783
01/20/2014  18:55:00     -135.355        8.216      -18.568       34.656       28.106       22.488     1201.056      789.923      505.719        1.061        0.125      135.604       19.207        0.020      335.945        6.916      869.806
01/20/2014  18:56:00     -164.552       37.728      -15.216       48.826       26.218       22.841     2384.020      687.402      521.691        1.616        0.180      168.822       20.451        0.015      335.936        6.901      869.807
01/20/2014  18:57:00     -193.545       62.765      -15.988       42.327       24.379       19.748     1791.604      594.327      389.985        2.221        0.139      203.468       13.678        0.005      335.893        6.828      869.814
01/20/2014  18:58:00     -178.502       61.708       -7.158       61.665       27.904       25.922     3802.532      778.661      671.962        2.049        0.263      188.867       19.424        0.011      336.044        7.080      869.807
01/20/2014  18:59:00     -197.343       69.073      -16.837       42.100       30.349       21.174     1772.418      921.062      448.333        2.357        0.157      209.082       10.214        0.002      336.125        7.215      869.782
01/20/2014  19:00:00     -131.843       59.836      -21.024       39.014       40.030       28.704     1522.125     1602.373      823.907        1.268        0.197      144.786       17.379        0.014      336.080        7.142      869.759
01/20/2014  19:01:00     -151.941       61.663      -29.156       34.676       48.965       26.059     1202.443     2397.526      679.084        1.601        0.214      163.977       19.005        0.013      336.235        7.400      869.738
01/20/2014  19:02:00     -144.449       50.196      -18.489       48.416       41.673       26.613     2344.126     1736.677      708.226        1.426        0.239      152.922       22.585        0.022      336.236        7.402      869.737
01/20/2014  19:03:00     -149.336       63.706      -25.039       43.163       41.616       22.609     1863.065     1731.926      511.159        1.555        0.205      162.357       19.717        0.015      336.281        7.477      869.733
01/20/2014  19:04:00     -105.646       70.027      -18.103       40.792       43.093       29.267     1663.967     1857.029      856.538        1.038        0.219      126.747       23.341        0.034      336.263        7.446      869.743
01/20/2014  19:05:00      -82.627       30.244      -14.014       24.015       42.130       23.579      576.710     1774.934      555.981        0.542        0.145       87.988       12.397        0.020      336.212        7.362      869.748
01/20/2014  19:06:00      -78.671       11.483       -8.548       35.148       32.907       20.121     1235.409     1082.876      404.845        0.456        0.136       79.504       18.649        0.055      336.150        7.257      869.756
01/20/2014  19:07:00      -76.612       -3.771       -5.466       25.407       34.081       20.710      645.492     1161.539      428.899        0.407        0.112       76.705       12.362        0.026      336.089        7.156      869.765
01/20/2014  19:08:00      -79.413        2.808      -13.374       29.252       27.778       14.869      855.653      771.624      221.082        0.417        0.092       79.463       12.838        0.026      336.053        7.095      869.775
01/20/2014  19:09:00     -102.546      -13.716      -19.133       37.846       27.203       20.248     1432.349      739.990      409.980        0.683        0.129      103.459       14.965        0.021      335.968        6.954      869.787
01/20/2014  19:10:00      -92.454      -11.943      -12.528       27.834       18.245       14.658      774.705      332.892      214.848        0.508        0.066       93.223       12.110        0.017      335.854        6.765      869.804
01/20/2014  19:11:00      -78.313      -18.979       -5.846       53.700       20.708       17.069     2883.720      428.834      291.366        0.506        0.180       80.580       18.985        0.056      335.809        6.689      869.831
01/20/2014  19:12:00      -96.582      -15.257      -11.358       33.187       23.140       17.836     1101.406      535.439      318.128        0.582        0.098       97.779       19.045        0.038      335.742        6.579      869.870
01/20/2014  19:13:00      -87.504      -13.280       -2.870       53.794       26.442       20.945     2893.765      699.185      438.686        0.594        0.202       88.506       25.239        0.081      335.686        6.486      869.889
01/20/2014  19:14:00      -75.649       -2.895       -4.163       43.297       20.480       17.775     1874.594      419.433      315.945        0.418        0.130       75.704       18.650        0.061      335.717        6.538      869.908
01/20/2014  19:15:00     -120.240       -6.119      -16.156       32.502       23.519       15.543     1056.350      553.153      241.584        0.830        0.093      120.396       11.728        0.009      335.736        6.568      869.920
01/20/2014  19:16:00     -103.581      -18.124      -10.182       40.320       30.733       27.965     1625.732      944.499      782.064        0.726        0.168      105.155       23.625        0.050      335.750        6.592      869.925
01/20/2014  19:17:00      -63.158      -19.435       -0.206       28.797       25.683       22.184      829.265      659.635      492.142        0.317        0.099       66.080       16.036        0.059      335.653        6.431      869.950
01/20/2014  19:18:00      -70.528       -6.633       -4.157       46.971       28.800       16.302     2206.250      829.452      265.743        0.417        0.165       70.839       15.079        0.045      335.575        6.301      869.970
01/20/2014  19:19:00      -75.112       -5.369      -17.370       34.829       27.422       26.307     1213.090      751.983      692.036        0.431        0.133       75.304       14.169        0.035      335.739        6.575      869.990
01/20/2014  19:20:00      -95.307       -1.819      -15.085       45.892       31.270       26.428     2106.115      977.801      698.455        0.655        0.189       95.325       16.536        0.030      335.709        6.525      869.995
01/20/2014  19:21:00     -100.577       23.194      -22.245       28.758       34.687       22.045      827.041     1203.207      485.992        0.683        0.126      103.217       15.385        0.022      335.962        6.944      870.004
01/20/2014  19:22:00      -81.132       50.002      -12.307       40.084       42.506       27.599     1606.750     1806.734      761.712        0.670        0.209       95.302       19.230        0.041      336.001        7.009      870.010
01/20/2014  19:23:00     -101.061       31.576      -25.535       51.156       33.847       16.870     2616.928     1145.651      284.607        0.795        0.202      105.880       14.046        0.018      335.990        6.992      870.015
01/20/2014  19:24:00     -112.558       41.169      -15.991       25.688       25.302       19.850      659.888      640.184      394.012        0.816        0.085      119.850       10.327        0.007      335.875        6.801      870.020
01/20/2014  19:25:00     -110.501       74.501      -19.950       35.898       41.843       26.214     1288.651     1750.815      687.164        1.094        0.186      133.270       25.867        0.038      336.185        7.316      870.027
01/20/2014  19:26:00     -112.985      161.550      -34.896       42.578       45.999       25.994     1812.918     2115.904      675.688        2.234        0.230      197.140       21.923        0.012      336.330        7.558      870.034
01/20/2014  19:27:00     -120.005      130.230      -28.395       42.925       50.253       26.234     1842.519     2525.349      688.211        1.861        0.253      177.090       23.116        0.017      336.287        7.488      870.027
01/20/2014  19:28:00      -98.715      134.054      -28.095       29.641       35.463       20.987      878.564     1257.589      440.457        1.554        0.129      166.478       10.531        0.004      336.283        7.481      870.025
01/20/2014  19:29:00      -60.112      117.907      -22.514       38.077       28.315       22.015     1449.884      801.724      484.669        1.038        0.137      132.346       16.777        0.016      336.418        7.707      870.026
01/20/2014  19:30:00      -68.903      142.909      -22.170       33.992       41.637       22.963     1155.437     1733.622      527.315        1.454        0.171      158.652       23.555        0.022      336.302        7.513      870.030
01/20/2014  19:31:00      -75.966      154.339      -25.206       34.551       35.542       24.441     1193.755     1263.211      597.338        1.664        0.153      172.021       18.396        0.011      336.314        7.531      870.049
01/20/2014  19:32:00      -85.520      143.846      -22.318       38.042       60.457       31.998     1447.165     3655.014     1023.900        1.731        0.306      167.348       30.704        0.034      336.209        7.356      870.060
01/20/2014  19:33:00      -90.396      157.474      -26.703       33.131       47.531       25.191     1097.653     2259.216      634.601        1.884        0.200      181.575       24.428        0.018      336.165        7.282      870.067
01/20/2014  19:34:00      -74.325      165.505      -19.624       36.539       52.483       26.396     1335.106     2754.483      696.756        1.904        0.239      181.428       20.104        0.012      336.310        7.526      870.084
01/20/2014  19:35:00      -81.460      158.640      -21.997       52.839       57.658       34.544     2791.980     3324.406     1193.297        1.980        0.365      178.332       23.816        0.018      336.250        7.426      870.103
01/20/2014  19:36:00      -71.730      153.594      -15.177       49.132       52.588       34.776     2413.988     2765.546     1209.361        1.768        0.319      169.518       31.151        0.034      336.139        7.239      870.104
01/20/2014  19:37:00      -91.383      155.634      -24.540       47.061       55.121       33.207     2214.762     3038.343     1102.699        1.976        0.318      180.479       36.486        0.041      336.219        7.370      870.110
01/20/2014  19:38:00      -86.523      162.759      -21.830       44.292       45.472       33.252     1961.760     2067.665     1105.699        1.979        0.257      184.328       24.262        0.017      336.213        7.362      870.119
01/20/2014  19:39:00      -62.875      176.501      -25.005       40.706       54.313       22.542     1656.956     2949.940      508.122        2.042        0.256      187.366       13.979        0.006      336.214        7.364      870.126
01/20/2014  19:40:00      -75.001      145.435      -24.452       43.278       72.792       26.932     1872.994     5298.740      725.316        1.763        0.395      163.636       25.776        0.025      336.218        7.371      870.133
01/20/2014  19:41:00      -66.382       99.756      -15.517       51.560       47.197       28.893     2658.459     2227.530      834.828        1.016        0.286      119.824       25.006        0.044      336.148        7.256      870.159
01/20/2014  19:42:00      -47.733      143.886      -19.228       39.232       53.292       29.588     1539.149     2840.090      875.438        1.430        0.263      151.597       25.898        0.029      336.262        7.446      870.161
01/20/2014  19:43:00      -73.997       86.980      -14.084       40.565       40.581       25.714     1645.558     1646.797      661.234        0.860        0.198      114.197       23.918        0.044      336.177        7.303      870.182
01/20/2014  19:44:00      -33.396       71.597       -6.689       32.723       51.260       21.515     1070.766     2627.575      462.874        0.522        0.208       79.003       19.584        0.061      336.265        7.451      870.200
01/20/2014  19:45:00      -56.005       52.691       -8.340       29.333       36.764       22.116      860.405     1351.620      489.134        0.434        0.135       76.895       21.216        0.076      336.209        7.356      870.207
01/20/2014  19:46:00      -57.711       23.744      -10.621       33.691       27.757       21.714     1135.089      770.431      471.491        0.319        0.119       62.405       22.423        0.129      336.151        7.259      870.202
01/20/2014  19:47:00      -70.285       46.233       -4.170       30.640       31.116       19.620      938.821      968.209      384.947        0.469        0.115       84.128        7.915        0.009      336.220        7.374      870.200
01/20/2014  19:48:00      -87.211      102.869      -19.857       33.837       50.152       26.168     1144.920     2515.216      684.767        1.146        0.217      134.862       29.734        0.049      336.324        7.548      870.208
01/20/2014  19:49:00      -89.026       94.324      -29.877       43.291       37.479       20.603     1874.090     1404.642      424.465        1.071        0.185      129.703       21.717        0.028      336.237        7.405      870.209
01/20/2014  19:50:00      -95.360       88.999      -23.374       36.035       30.525       20.613     1298.488      931.759      424.901        1.011        0.133      130.439       20.830        0.026      336.207        7.354      870.205
01/20/2014  19:51:00      -65.868       96.240      -22.776       30.207       29.199       16.495      912.491      852.578      272.071        0.808        0.102      116.622       16.027        0.019      336.313        7.530      870.211
01/20/2014  19:52:00     -103.103       93.249      -26.392       28.223       34.217       19.395      796.549     1170.800      376.155        1.118        0.117      139.016       17.675        0.016      336.229        7.391      870.229
01/20/2014  19:53:00      -89.530       92.507      -24.709       37.223       38.166       19.751     1385.558     1456.616      390.109        1.021        0.162      128.737       17.996        0.020      336.240        7.409      870.227
01/20/2014  19:54:00      -96.767       85.680      -18.112       41.853       35.548       28.256     1751.670     1263.658      798.399        1.042        0.191      129.247       24.418        0.036      336.208        7.354      870.220
01/20/2014  19:55:00     -118.694       89.028      -30.552       40.159       38.674       24.764     1612.726     1495.653      613.245        1.333        0.186      148.372       19.140        0.017      336.260        7.443      870.213
01/20/2014  19:56:00     -126.339      134.393      -31.652       32.202       44.122       25.744     1036.974     1946.793      662.769        1.933        0.182      184.453       16.387        0.008      336.330        7.559      870.217
01/20/2014  19:57:00     -136.951      135.002      -38.610       33.294       34.053       20.665     1108.500     1159.596      427.022        2.058        0.135      192.305       18.150        0.009      336.433        7.731      870.232
01/20/2014  19:58:00      -79.454       53.176      -17.177       29.857       53.288       22.011      891.448     2839.561      484.467        0.682        0.211       95.606       16.704        0.031      336.218        7.372      870.237
01/20/2014  19:59:00      -51.252       25.009       -7.442       24.582       32.863       21.102      604.286     1079.968      445.288        0.272        0.106       57.029       19.234        0.114      336.275        7.466      870.249
01/20/2014  20:00:00      -68.538       33.970      -15.180       18.638       36.536       18.033      347.365     1334.885      325.193        0.404        0.100       76.494       10.787        0.020      336.142        7.247      870.261
01/20/2014  20:01:00      -45.891        1.231       -6.824       14.464       23.834       11.231      209.204      568.070      126.136        0.153        0.045       45.908        8.209        0.032      336.065        7.118      870.276
01/20/2014  20:02:00      -45.167       -1.098       -7.038       27.629       22.250       20.255      763.370      495.049      410.248        0.188        0.083       45.180       19.495        0.186      336.013        7.031      870.287
01/20/2014  20:03:00      -32.572       -8.895       -5.235       19.436       22.492       12.990      377.763      505.869      168.735        0.111        0.053       33.765       11.615        0.118      335.782        6.645      870.290
01/20/2014  20:04:00      -77.931       18.139      -16.831       15.939       37.871       14.588      254.051     1434.176      212.817        0.429        0.095       80.014       19.112        0.057      335.841        6.743      870.290
01/20/2014  20:05:00      -87.318       38.584      -14.757       20.152       27.761       16.297      406.089      770.691      265.596        0.539        0.072       95.463       10.490        0.012      335.776        6.636      870.285
01/20/2014  20:06:00      -76.333       63.831      -22.178       25.390       34.843       17.318      644.662     1214.021      299.926        0.628        0.108       99.504       18.809        0.036      335.937        6.904      870.286
01/20/2014  20:07:00      -74.338       96.954      -18.078       24.771       31.176       21.237      613.604      971.969      451.030        0.864        0.102      122.173       11.639        0.009      335.964        6.947      870.292
01/20/2014  20:08:00      -60.376      116.714      -16.986       33.577       27.369       17.163     1127.400      749.050      294.569        0.986        0.109      131.405       12.493        0.009      336.073        7.129      870.296
01/20/2014  20:09:00      -43.960      110.453       -8.059       31.179       30.382       18.705      972.140      923.057      349.875        0.822        0.112      118.879       14.278        0.014      336.192        7.328      870.297
01/20/2014  20:10:00      -51.829       73.763      -11.228       25.464       33.460       18.070      648.411     1119.545      326.521        0.517        0.105       90.152       18.558        0.042      335.999        7.007      870.305
01/20/2014  20:11:00      -56.591       99.181      -15.552       26.181       29.442       18.382      685.466      866.817      337.903        0.759        0.095      114.190       14.637        0.016      335.999        7.007      870.312
01/20/2014  20:12:00      -51.157       79.171      -12.254       22.662       29.078       12.556      513.569      845.547      157.660        0.528        0.076       94.261       11.351        0.015      336.004        7.014      870.320
01/20/2014  20:13:00      -22.729       56.157       -1.088       27.598       34.898       16.203      761.643     1217.837      262.533        0.296        0.112       60.582       18.991        0.098      335.977        6.970      870.338
01/20/2014  20:14:00      -29.496      -23.065        2.768       15.132       15.241       14.994      228.963      232.280      224.821        0.105        0.034       37.444       12.596        0.113      335.248        5.755      870.353
01/20/2014  20:15:00      -18.539      -35.698        1.373       21.419       16.964       12.397      458.790      287.793      153.695        0.126        0.045       40.224       10.189        0.064      335.142        5.578      870.365
01/20/2014  20:16:00      -21.024      -13.894        8.869       33.653       13.048       15.182     1132.500      170.255      230.479        0.112        0.077       25.200       20.157        0.640      335.076        5.471      870.369
01/20/2014  20:17:00      -82.134      -40.437       -0.313       19.382       17.422       16.481      375.664      303.534      271.633        0.467        0.048       91.548        8.548        0.009      334.929        5.227      870.372
01/20/2014  20:18:00      -84.459      -44.307       -2.534       35.594       22.009       14.326     1266.916      484.396      205.232        0.553        0.098       95.375       15.539        0.027      334.945        5.252      870.376
01/20/2014  20:19:00      -98.289      -36.211       -7.220       19.493       15.962       12.872      379.972      254.789      165.697        0.591        0.040      104.747       10.330        0.010      334.901        5.180      870.386
01/20/2014  20:20:00     -101.932      -39.100      -11.488       14.045       13.851        8.425      197.258      191.853       70.983        0.626        0.023      109.174        3.652        0.001      334.913        5.199      870.389
01/20/2014  20:21:00      -97.464      -37.567      -11.479       11.020        8.651        6.864      121.447       74.834       47.112        0.564        0.012      104.453        5.252        0.003      335.008        5.356      870.398
01/20/2014  20:22:00      -70.399      -47.341      -12.392       24.512       10.844       10.863      600.840      117.594      118.006        0.409        0.042       84.836       10.127        0.014      334.917        5.206      870.413
01/20/2014  20:23:00      -78.107      -48.579       -9.617       11.580       10.378       11.234      134.107      107.695      126.199        0.446        0.018       91.981        3.866        0.002      334.793        5.000      870.436
01/20/2014  20:24:00      -78.598      -57.428       -4.152       27.995       15.651       13.619      783.706      244.946      185.469        0.535        0.061       97.343       10.740        0.012      334.648        4.759      870.462
01/20/2014  20:25:00      -49.661      -49.861       -0.600       28.267       26.328       18.465      799.031      693.165      340.950        0.339        0.092       70.373       16.908        0.058      334.672        4.800      870.484
01/20/2014  20:26:00      -70.197      -43.295       -4.778       30.369       25.927       16.965      922.258      672.204      287.797        0.435        0.094       82.475       17.594        0.046      334.780        4.978      870.495
01/20/2014  20:27:00      -99.115      -53.307       -7.118       13.533       15.640       12.017      183.149      244.605      144.413        0.664        0.029      112.541        5.232        0.002      334.743        4.917      870.495
01/20/2014  20:28:00     -117.058      -51.342       -9.220       13.861       17.295       12.480      192.133      299.113      155.739        0.854        0.032      127.822        7.059        0.003      334.660        4.779      870.489
01/20/2014  20:29:00      -94.372      -55.083       -4.113       28.020       15.558       14.583      785.130      242.050      212.659        0.660        0.062      109.271       13.207        0.015      334.555        4.604      870.486
01/20/2014  20:30:00      -80.857      -46.271      -10.568       19.876        9.980       12.957      395.049       99.610      167.872        0.473        0.033       93.161        5.506        0.003      334.616        4.706      870.497
01/20/2014  20:31:00      -79.540      -49.513       -6.163       21.005       19.271       14.150      441.216      371.370      200.235        0.491        0.051       93.692        6.613        0.005      334.515        4.539      870.503
01/20/2014  20:32:00      -85.093      -53.822       -5.050       26.150       17.645       16.436      683.821      311.344      270.151        0.571        0.063      100.686        8.284        0.007      334.430        4.398      870.499
01/20/2014  20:33:00     -107.746      -54.626      -10.315       13.761       12.874       10.313      189.353      165.741      106.359        0.758        0.023      120.802        6.689        0.003      334.435        4.407      870.496
01/20/2014  20:34:00     -101.888      -49.167      -12.122       13.367       13.648       10.791      178.677      186.268      116.437        0.671        0.024      113.131        7.784        0.005      334.446        4.423      870.493
01/20/2014  20:35:00      -56.746      -40.578        1.223       31.638       20.186       19.668     1000.948      407.493      386.850        0.333        0.090       69.762       21.518        0.095      334.356        4.276      870.503
01/20/2014  20:36:00      -71.192      -55.610       -3.620       21.371       12.311       16.818      456.721      151.554      282.835        0.453        0.045       90.337       14.324        0.025      334.397        4.345      870.518
01/20/2014  20:37:00      -95.456      -69.132      -10.531       13.499       12.855       10.078      182.210      165.242      101.570        0.723        0.022      117.860        5.474        0.002      334.386        4.325      870.513
01/20/2014  20:38:00      -88.607      -59.383       -6.858       25.873       15.799       16.535      669.421      249.608      273.399        0.631        0.060      106.665       14.281        0.018      334.350        4.265      870.522
01/20/2014  20:39:00      -68.469      -57.426       -4.594       33.463       20.983       21.106     1119.789      440.276      445.483        0.501        0.100       89.363       16.677        0.035      334.230        4.067      870.532
01/20/2014  20:40:00      -81.866      -62.604       -1.291       31.194       28.448       20.788      973.097      809.289      432.134        0.642        0.111      103.059       16.994        0.027      334.286        4.159      870.533
01/20/2014  20:41:00      -61.339      -67.668       -0.918       22.691       32.052       18.393      514.865     1027.314      338.297        0.511        0.094       91.332       12.354        0.018      334.318        4.211      870.538
01/20/2014  20:42:00      -76.702      -46.197      -10.320       16.730       22.499       13.433      279.878      506.220      180.436        0.455        0.048       89.540        6.851        0.006      334.442        4.419      870.529
01/20/2014  20:43:00      -91.606      -50.384      -10.032       16.928       20.331       11.716      286.552      413.334      137.273        0.593        0.042      104.547        9.664        0.009      334.292        4.169      870.515
01/20/2014  20:44:00     -107.689      -59.001       -9.295       24.873       16.536       13.567      618.669      273.439      184.059        0.812        0.054      122.792        7.199        0.003      334.235        4.076      870.499
01/20/2014  20:45:00      -47.509      -42.683        5.438       27.539       31.136       18.815      758.402      969.481      354.001        0.309        0.104       63.867       14.633        0.052      334.090        3.834      870.502
01/20/2014  20:46:00      -37.303      -35.785        3.968       31.258       24.389       19.294      977.067      594.845      372.255        0.232        0.097       51.693       15.960        0.095      334.148        3.930      870.496
01/20/2014  20:47:00      -99.499      -61.058       -6.954       20.062       18.544       14.535      402.486      343.867      211.260        0.732        0.048      116.739        8.165        0.005      334.279        4.148      870.508
01/20/2014  20:48:00      -82.321      -67.106       -3.105       20.137       23.453       12.397      405.518      550.060      153.679        0.620        0.055      106.207        8.265        0.006      334.261        4.117      870.509
01/20/2014  20:49:00      -89.753      -78.012       -5.447       23.991       31.257       17.816      575.561      976.979      317.419        0.802        0.093      118.918       12.215        0.011      334.270        4.133      870.515
01/20/2014  20:50:00      -98.469      -58.050       -6.584       41.118       25.543       18.356     1690.708      652.439      336.956        0.789        0.134      114.306       13.395        0.014      334.107        3.862      870.534
01/20/2014  20:51:00      -75.317      -52.541       -4.784       43.437       35.361       23.354     1886.757     1250.369      545.387        0.607        0.184       91.832       20.112        0.048      334.090        3.833      870.537
01/20/2014  20:52:00      -99.861      -71.892        3.548       44.944       27.402       23.195     2019.967      750.851      538.004        0.923        0.165      123.048       23.756        0.037      334.102        3.853      870.562
01/20/2014  20:53:00     -117.586      -72.409       -3.723       44.066       41.322       23.358     1941.812     1707.542      545.600        1.164        0.210      138.093       25.513        0.034      334.194        4.006      870.556
01/20/2014  20:54:00     -126.867      -86.077        4.228       53.674       34.831       23.859     2880.906     1213.218      569.229        1.409        0.233      153.312       22.059        0.021      334.180        3.980      870.565
01/20/2014  20:55:00      -87.490      -60.354        3.795       51.573       41.212       29.141     2659.769     1698.425      849.203        0.826        0.260      106.288       27.120        0.065      334.099        3.848      870.586
01/20/2014  20:56:00      -75.543      -52.154        3.369       51.832       35.696       27.419     2686.546     1274.198      751.805        0.657        0.236       91.797       23.271        0.064      334.093        3.838      870.609
01/20/2014  20:57:00     -139.306     -105.932       -0.599       57.478       53.089       31.954     3303.725     2818.407     1021.041        1.888        0.357      175.008       35.974        0.042      334.197        4.008      870.637
01/20/2014  20:58:00     -152.720      -88.689        0.316       56.105       45.357       31.684     3147.792     2057.215     1003.857        1.870        0.310      176.604       31.804        0.032      334.246        4.089      870.644
01/20/2014  20:59:00     -115.408      -78.396        4.635       69.549       35.809       31.586     4837.101     1282.266      997.666        1.330        0.356      139.517       32.407        0.054      334.200        4.014      870.659
01/20/2014  21:00:00     -134.871      -80.243        3.112       55.919       41.885       29.273     3126.881     1754.356      856.926        1.519        0.287      156.937       27.374        0.030      334.196        4.008      870.652
01/20/2014  21:01:00     -132.669      -83.772       -8.450       41.069       38.273       23.765     1686.662     1464.825      564.787        1.420        0.186      156.904       17.797        0.013      334.190        4.000      870.646
01/20/2014  21:02:00     -132.525      -88.924      -11.000       29.467       28.794       23.993      868.330      829.067      575.658        1.393        0.114      159.595       18.749        0.014      334.195        4.008      870.630
01/20/2014  21:03:00     -141.557      -73.628      -15.702       30.255       23.814       15.694      915.354      567.101      246.300        1.372        0.086      159.560        7.660        0.002      334.165        3.955      870.628
01/20/2014  21:04:00     -153.469      -43.957       -6.195       29.484       20.444       20.441      869.319      417.976      417.829        1.361        0.085      159.640       17.625        0.012      334.204        4.022      870.637
01/20/2014  21:05:00     -132.202      -66.103       -3.805       34.258       34.059       17.896     1173.610     1159.993      320.250        1.226        0.133      147.807       11.787        0.006      334.118        3.881      870.649
01/20/2014  21:06:00     -121.442      -68.086       -8.197       29.622       32.335       18.614      877.457     1045.560      346.474        1.086        0.113      139.226        9.928        0.005      334.077        3.810      870.659
01/20/2014  21:07:00     -107.871      -63.381      -13.706       33.835       31.508       20.889     1144.798      992.780      436.331        0.921        0.129      125.113       15.646        0.016      334.014        3.706      870.666
01/20/2014  21:08:00     -120.777      -88.192      -14.972       22.280       26.978       18.212      496.384      727.806      331.677        1.207        0.078      149.549        4.738        0.001      334.046        3.760      870.683
01/20/2014  21:09:00     -123.286      -78.570      -16.094       29.081       18.726       18.536      845.685      350.651      343.591        1.159        0.077      146.194        8.171        0.003      334.033        3.738      870.674
01/20/2014  21:10:00     -131.431      -77.268      -10.754       25.156       19.775       12.084      632.839      391.045      146.012        1.226        0.058      152.462        7.994        0.003      334.072        3.804      870.663
01/20/2014  21:11:00     -126.010      -70.467       -8.781       26.100       19.351       16.724      681.186      374.443      279.689        1.113        0.067      144.375       16.421        0.013      334.041        3.751      870.660
01/20/2014  21:12:00     -100.207      -39.880       -8.270       26.888       18.462       12.721      722.981      340.848      161.817        0.646        0.061      107.851        9.008        0.007      333.912        3.540      870.647
01/20/2014  21:13:00      -92.080      -38.795       -7.976       17.502       17.162       13.539      306.322      294.534      183.292        0.542        0.039       99.919        7.445        0.006      333.817        3.381      870.656
01/20/2014  21:14:00      -88.656      -43.662       -7.995       20.191       17.090       14.498      407.660      292.082      210.179        0.537        0.045       98.824       12.403        0.016      333.760        3.285      870.666
01/20/2014  21:15:00      -89.191      -17.150       -5.847       22.163       16.763       14.550      491.217      281.013      211.697        0.463        0.049       90.825       12.725        0.020      333.803        3.359      870.673
01/20/2014  21:16:00      -92.266      -17.697       -8.203       23.783       19.643       13.036      565.610      385.833      169.940        0.501        0.056       93.948       13.280        0.020      333.767        3.297      870.701
01/20/2014  21:17:00      -73.622       -7.594        0.743       40.171       28.836       16.032     1613.695      831.517      257.010        0.409        0.135       74.013       17.862        0.058      333.814        3.377      870.706
01/20/2014  21:18:00      -69.831        7.484        5.709       37.446       26.359       19.298     1402.223      694.796      372.427        0.372        0.123       70.231       17.252        0.060      333.929        3.568      870.713
01/20/2014  21:19:00      -84.516        8.750       -0.175       37.436       32.708       20.206     1401.475     1069.790      408.276        0.505        0.144       84.968       18.123        0.045      333.968        3.631      870.734
01/20/2014  21:20:00      -29.397      -24.361        6.142       37.038       22.567       15.446     1371.781      509.250      238.565        0.181        0.106       38.179       15.352        0.162      333.761        3.286      870.743
01/20/2014  21:21:00      -66.208      -40.240       -3.923       25.869       27.300       14.453      669.183      745.298      208.901        0.382        0.081       77.477       15.845        0.042      333.667        3.131      870.757
01/20/2014  21:22:00      -55.471      -40.406        5.588       37.802       25.252       16.089     1428.965      637.680      258.853        0.353        0.116       68.628       19.777        0.083      333.630        3.070      870.775
01/20/2014  21:23:00      -51.566      -34.948       -4.245       36.695       20.456       17.037     1346.513      418.450      290.243        0.298        0.103       62.293       15.734        0.064      333.647        3.099      870.785
01/20/2014  21:24:00      -51.165      -39.944        3.603       30.021       27.770       20.256      901.279      771.180      410.316        0.315        0.104       64.911       15.742        0.059      333.682        3.156      870.790
01/20/2014  21:25:00      -62.867      -43.146       -4.739       32.492       17.818       12.982     1055.701      317.463      168.539        0.369        0.077       76.249       15.142        0.039      333.691        3.172      870.796
01/20/2014  21:26:00      -83.416      -35.460       -7.155       18.798       18.738       16.095      353.368      351.108      259.064        0.462        0.048       90.640       13.759        0.023      333.680        3.154      870.815
01/20/2014  21:27:00      -73.623      -34.154        0.425       28.513       21.325       15.278      813.003      454.745      233.421        0.404        0.075       81.160       14.743        0.033      333.662        3.123      870.825
01/20/2014  21:28:00     -101.576      -39.948       -8.444       23.944       22.726       14.306      573.312      516.452      204.657        0.664        0.065      109.149        9.622        0.008      333.702        3.189      870.820
01/20/2014  21:29:00     -117.880      -37.480      -12.012       19.516       23.285       18.720      380.887      542.212      350.431        0.836        0.064      123.695       16.689        0.018      333.680        3.153      870.814
01/20/2014  21:30:00     -120.056      -22.571      -13.930       30.105       28.604       21.968      906.297      818.175      482.573        0.866        0.110      122.159       18.765        0.024      333.524        2.895      870.821
01/20/2014  21:31:00     -113.652      -50.681      -17.494       18.377       24.629       16.781      337.729      606.611      281.600        0.851        0.061      124.441        9.054        0.005      333.518        2.884      870.823
01/20/2014  21:32:00     -105.195      -49.027      -15.618       16.407       22.807       14.163      269.191      520.149      200.584        0.735        0.049      116.059       12.020        0.011      333.525        2.894      870.824
01/20/2014  21:33:00     -100.372      -27.215      -10.312       20.697       19.387       13.892      428.356      375.855      192.990        0.596        0.050      103.996       13.097        0.016      333.456        2.780      870.826
01/20/2014  21:34:00     -112.809      -26.419      -11.310       15.807       20.778       14.387      249.858      431.731      206.972        0.722        0.044      115.861       10.578        0.008      333.420        2.722      870.822
01/20/2014  21:35:00     -107.894      -25.455      -15.849       23.435       17.911       13.004      549.220      320.815      169.100        0.679        0.052      110.856        9.470        0.007      333.386        2.667      870.830
01/20/2014  21:36:00     -105.425      -27.093      -16.989       19.246       22.270       13.826      370.420      495.967      191.153        0.660        0.053      108.850        9.894        0.008      333.361        2.626      870.825
01/20/2014  21:37:00     -123.364      -14.510      -17.097       23.195       28.464       14.363      538.022      810.208      206.284        0.864        0.078      124.214       13.601        0.012      333.324        2.563      870.826
01/20/2014  21:38:00      -87.782      -17.284      -15.514       26.245       18.481       14.828      688.777      341.556      219.869        0.475        0.063       89.467       12.140        0.018      333.293        2.513      870.822
01/20/2014  21:39:00      -89.148       -1.618      -11.899       35.351       15.821       14.933     1249.712      250.301      222.987        0.491        0.086       89.163       16.795        0.035      333.405        2.698      870.793
01/20/2014  21:40:00      -88.215       -6.527      -20.456       16.286       15.203        9.995      265.243      231.131       99.899        0.442        0.030       88.457        4.259        0.002      333.439        2.755      870.772
01/20/2014  21:41:00      -76.719      -18.668      -13.547       12.681       17.038       12.563      160.808      290.292      157.841        0.351        0.030       78.958       10.479        0.018      333.352        2.610      870.756
01/20/2014  21:42:00      -80.890      -41.974      -18.832       15.503       21.766       13.101      240.354      473.762      171.644        0.477        0.044       91.132        3.133        0.001      333.383        2.662      870.747
01/20/2014  21:43:00      -80.624      -44.301      -14.918       27.147       21.620       16.845      736.934      467.439      283.771        0.509        0.074       91.994       12.468        0.018      333.303        2.529      870.760
01/20/2014  21:44:00      -73.101      -68.281      -13.884       36.162       29.922       23.052     1307.706      895.331      531.399        0.647        0.137      100.031       15.957        0.025      333.240        2.424      870.773
01/20/2014  21:45:00      -45.739      -46.913       -8.589       34.697       31.423       17.345     1203.872      987.416      300.840        0.343        0.125       65.520        6.453        0.010      333.292        2.510      870.785
01/20/2014  21:46:00      -91.434      -57.457      -21.869       33.910       28.062       17.619     1149.914      787.484      310.438        0.719        0.112      107.988       18.580        0.030      333.319        2.555      870.796
01/20/2014  21:47:00     -101.987      -47.661      -13.856       38.194       36.883       19.366     1458.771     1360.388      375.051        0.803        0.160      112.574        7.383        0.004      333.274        2.481      870.806
01/20/2014  21:48:00     -113.544      -30.894      -14.699       33.835       27.736       20.286     1144.826      769.291      411.536        0.819        0.116      117.672       15.023        0.016      333.263        2.463      870.802
01/20/2014  21:49:00     -111.478      -41.127      -13.335       30.374       26.860       19.723      922.554      721.464      389.016        0.816        0.102      118.823       11.038        0.009      333.219        2.390      870.815
01/20/2014  21:50:00      -83.544      -54.033        1.138       54.348       29.216       24.079     2953.754      853.577      579.811        0.714        0.219       99.495       26.449        0.071      333.205        2.366      870.818
01/20/2014  21:51:00     -104.212      -42.558       -1.912       76.391       36.342       25.595     5835.573     1320.772      655.127        1.024        0.391      112.567       36.165        0.103      333.208        2.372      870.839
01/20/2014  21:52:00     -126.786      -18.341      -10.903       42.470       29.495       21.946     1803.721      869.956      481.620        0.984        0.158      128.105       18.146        0.020      333.248        2.437      870.828
01/20/2014  21:53:00      -90.904      -23.530       -5.424       62.100       35.005       26.210     3856.362     1225.345      686.964        0.731        0.288       93.899       22.809        0.059      333.237        2.418      870.835
01/20/2014  21:54:00      -95.529      -66.899        0.100       61.650       44.915       32.998     3800.727     2017.329     1088.896        1.025        0.345      116.624       28.602        0.060      333.262        2.461      870.840
01/20/2014  21:55:00      -92.698      -43.076       -8.522       58.770       39.267       26.396     3453.900     1541.915      696.761        0.811        0.285      102.218       27.004        0.070      333.212        2.378      870.857
01/20/2014  21:56:00      -56.492      -55.266        9.296       46.397       38.670       28.147     2152.700     1495.356      792.268        0.539        0.222       79.030       19.368        0.060      333.142        2.263      870.889
01/20/2014  21:57:00     -132.286      -42.627       -4.026       38.601       32.048       19.269     1490.052     1027.050      371.309        1.111        0.144      138.984       16.977        0.015      333.122        2.229      870.903
01/20/2014  21:58:00     -114.636      -46.260       -1.056       40.315       22.892       17.736     1625.304      524.057      314.560        0.887        0.123      123.618        6.797        0.003      333.099        2.192      870.930
01/20/2014  21:59:00      -76.798      -48.313       -4.340       38.977       25.221       21.049     1519.234      636.103      443.068        0.542        0.130       90.731       10.029        0.012      333.184        2.332      870.939
01/20/2014  22:00:00      -82.812      -47.023       -4.293       26.997       20.602       16.466      728.820      424.448      271.136        0.526        0.071       95.231       10.727        0.013      333.247        2.437      870.928
01/20/2014  22:01:00     -103.527      -54.801      -11.386       15.034       12.311       12.351      226.007      151.560      152.545        0.719        0.027      117.137        3.278        0.001      333.161        2.292      870.922
01/20/2014  22:02:00      -92.289      -52.239       -2.196       19.741       14.681       15.859      389.722      215.538      251.503        0.605        0.043      106.048       13.254        0.016      333.132        2.247      870.908
01/20/2014  22:03:00      -96.210      -57.804        0.505       20.569       15.209       14.542      423.093      231.311      211.478        0.673        0.043      112.239        9.825        0.008      333.105        2.202      870.902
01/20/2014  22:04:00     -104.592      -65.781       -7.538       19.811       14.048       16.456      392.493      197.339      270.789        0.809        0.043      123.558       10.888        0.008      333.131        2.245      870.922
01/20/2014  22:05:00      -85.848      -59.112       -5.462       26.939       17.908       14.933      725.701      320.713      222.991        0.608        0.063      104.231       13.285        0.016      333.077        2.155      870.924
01/20/2014  22:06:00     -113.067      -49.120      -19.813       11.967       11.599       11.260      143.208      134.528      126.785        0.800        0.020      123.276        6.101        0.002      333.103        2.198      870.921
01/20/2014  22:07:00     -113.371      -41.821      -17.576       15.691       12.106        9.907      246.195      146.565       98.140        0.770        0.025      120.839        2.481        0.000      333.088        2.174      870.928
01/20/2014  22:08:00     -107.012      -50.496      -15.346       18.736       13.255       10.993      351.030      175.683      120.849        0.744        0.032      118.328        2.660        0.001      333.008        2.041      870.934
01/20/2014  22:09:00      -86.742      -61.047       -4.669       16.807       21.507       17.047      282.474      462.565      290.587        0.615        0.052      106.070        4.687        0.002      332.992        2.014      870.931
01/20/2014  22:10:00      -86.305      -55.881       -3.804       32.272       21.401       18.843     1041.460      457.993      355.068        0.622        0.093      102.816       10.954        0.011      332.945        1.938      870.936
01/20/2014  22:11:00     -109.203      -62.038       -5.912       32.657       27.574       20.356     1066.473      760.343      414.366        0.902        0.112      125.594       14.395        0.013      332.984        2.001      870.932
01/20/2014  22:12:00     -117.334      -52.006       -3.839       35.214       21.458       18.663     1240.040      460.434      348.309        0.927        0.102      128.343       20.544        0.026      332.846        1.774      870.944
01/20/2014  22:13:00     -118.416      -64.367      -10.323       15.478       15.227       10.905      239.553      231.853      118.923        0.943        0.030      134.779        6.714        0.002      332.897        1.858      870.955
01/20/2014  22:14:00      -98.434      -61.389       -4.932       18.405       19.314       15.316      338.730      373.017      234.585        0.721        0.047      116.008       11.105        0.009      332.896        1.857      870.964
01/20/2014  22:15:00     -114.138      -54.115        0.152       24.057       22.514       19.449      578.761      506.885      378.261        0.871        0.073      126.317       16.791        0.018      332.911        1.881      870.974
01/20/2014  22:16:00     -120.677      -53.748       -4.034       18.366       16.402       12.537      337.314      269.020      157.184        0.912        0.038      132.105       10.427        0.006      332.945        1.937      870.980
01/20/2014  22:17:00     -117.485      -60.967       -6.072       16.782       13.751       14.125      281.636      189.084      199.506        0.911        0.034      132.362       12.421        0.009      332.892        1.850      870.981
01/20/2014  22:18:00     -120.180      -58.466       -6.148       15.802       18.753       10.164      249.710      351.687      103.299        0.930        0.035      133.647        9.316        0.005      332.885        1.839      870.979
01/20/2014  22:19:00      -96.898      -57.084       -0.614       22.508       21.094       14.555      506.610      444.973      211.862        0.691        0.058      112.463       13.974        0.015      332.802        1.703      870.991
01/20/2014  22:20:00      -95.667      -57.022       -2.903       27.659       17.345       18.031      765.013      300.839      325.113        0.690        0.070      111.371       15.193        0.019      332.798        1.696      871.000
01/20/2014  22:21:00     -104.275      -61.955       -1.508       26.520       17.971       20.823      703.288      322.971      433.592        0.809        0.073      121.292       16.118        0.018      332.795        1.691      871.009
01/20/2014  22:22:00     -121.989      -64.607       -9.590       13.969       17.631       11.847      195.139      310.838      140.345        0.990        0.032      138.041        9.953        0.005      332.799        1.697      871.022
01/20/2014  22:23:00     -114.620      -49.491       -8.808       15.382       20.939       12.623      236.609      438.460      159.342        0.825        0.042      124.848        7.716        0.004      332.794        1.688      871.034
01/20/2014  22:24:00     -119.160      -43.806      -17.477       13.639       12.384        8.741      186.011      153.357       76.406        0.842        0.021      126.957        5.467        0.002      332.777        1.662      871.031
01/20/2014  22:25:00     -108.108      -37.917       -5.393       18.817       18.982       12.396      354.067      360.313      153.650        0.701        0.043      114.564       11.249        0.010      332.752        1.621      871.030
01/20/2014  22:26:00     -124.709      -62.670       -6.197       14.000       13.677       10.897      196.003      187.055      118.746        1.001        0.025      139.570        7.352        0.003      332.722        1.570      871.031
01/20/2014  22:27:00     -128.135      -58.148       -4.249       20.473       18.513       15.986      419.158      342.722      255.556        1.042        0.051      140.712       11.584        0.007      332.685        1.509      871.040
01/20/2014  22:28:00     -128.559      -71.405      -10.333       15.135       16.928       12.085      229.074      286.543      146.044        1.120        0.033      147.058        3.380        0.001      332.672        1.487      871.054
01/20/2014  22:29:00     -124.916      -72.633       -8.191       16.636       15.559       16.170      276.769      242.096      261.458        1.086        0.039      144.498       12.095        0.007      332.609        1.383      871.051
01/20/2014  22:30:00      -79.285      -38.922       -3.364       51.104       28.428       20.156     2611.600      808.143      406.268        0.582        0.191       88.323       18.995        0.046      332.686        1.511      871.041
01/20/2014  22:31:00     -121.653      -40.525       -8.883       28.164       19.284       13.842      793.189      371.878      191.609        0.894        0.068      128.225       11.957        0.009      332.717        1.561      871.025
01/20/2014  22:32:00      -77.677      -45.177       -6.066       22.660       20.396       16.671      513.478      415.984      277.939        0.466        0.060       89.859       14.584        0.026      332.764        1.640      871.006
01/20/2014  22:33:00     -104.055      -38.297      -10.029       20.548       14.935        9.305      422.210      223.050       86.576        0.656        0.037      110.879        6.347        0.003      332.763        1.637      870.987
01/20/2014  22:34:00     -121.925      -44.015      -13.975       15.005       17.496       10.857      225.163      306.116      117.870        0.882        0.032      129.626        7.765        0.004      332.643        1.438      870.978
01/20/2014  22:35:00     -119.914      -64.838      -15.590       15.820       17.861       16.447      250.282      319.022      270.516        0.983        0.042      136.321       11.131        0.007      332.601        1.370      870.985
01/20/2014  22:36:00     -142.234      -45.143      -14.836       14.852       20.622       14.123      220.571      425.269      199.464        1.167        0.042      149.227        6.742        0.002      332.661        1.468      871.003
01/20/2014  22:37:00     -126.519      -52.254      -17.618       13.307       13.437        8.501      177.064      180.564       72.266        0.974        0.021      136.885        6.077        0.002      332.710        1.550      871.034
01/20/2014  22:38:00     -129.328      -48.706       -8.265       18.694       18.811       10.517      349.452      353.836      110.603        0.999        0.041      138.196        8.329        0.004      332.682        1.503      871.049
01/20/2014  22:39:00     -131.916      -66.402       -2.164       18.247       13.928       16.082      332.957      193.989      258.628        1.130        0.039      147.686       11.429        0.006      332.711        1.552      871.054
01/20/2014  22:40:00     -130.669      -77.713      -12.088       26.197       17.310       14.179      686.281      299.634      201.030        1.222        0.059      152.032       12.586        0.007      332.695        1.525      871.055
01/20/2014  22:41:00     -131.647      -68.993       -8.377       18.880       20.494       12.117      356.455      420.002      146.820        1.154        0.046      148.630        9.959        0.004      332.641        1.436      871.061
01/20/2014  22:42:00     -121.760      -68.001      -10.099       20.248       22.794       14.728      409.998      519.584      216.928        1.035        0.057      139.462       12.895        0.009      332.591        1.353      871.076
01/20/2014  22:43:00     -124.933      -79.183      -10.923       22.528       20.395       17.334      507.495      415.939      300.480        1.161        0.061      147.913       10.848        0.005      332.611        1.386      871.095
01/20/2014  22:44:00     -117.759      -75.179       -8.542       24.375       18.270       13.883      594.151      333.791      192.739        1.036        0.056      139.711       13.031        0.009      332.629        1.416      871.103
01/20/2014  22:45:00     -129.225      -56.251      -15.927       16.536       15.758        8.617      273.453      248.305       74.245        1.036        0.030      140.937        4.863        0.001      332.509        1.216      871.113
01/20/2014  22:46:00     -134.512      -65.870      -14.665       13.136       18.066       10.785      172.551      326.386      116.316        1.163        0.031      149.774        5.588        0.001      332.567        1.313      871.116
01/20/2014  22:47:00     -124.907      -51.894      -12.463       17.227       20.380       12.855      296.760      415.339      165.242        0.966        0.044      135.258        9.720        0.005      332.501        1.204      871.130
01/20/2014  22:48:00     -140.870      -55.742       -4.200       21.621       20.407       15.329      467.458      416.437      234.988        1.204        0.056      151.497       12.383        0.007      332.480        1.168      871.132
01/20/2014  22:49:00     -131.910      -71.103       -9.154       31.047       22.128       17.718      963.914      489.665      313.930        1.215        0.088      149.853       15.668        0.011      332.498        1.199      871.129
01/20/2014  22:50:00     -138.166      -49.088      -17.467       20.187       24.230       11.876      407.529      587.095      141.039        1.147        0.057      146.627        6.578        0.002      332.512        1.221      871.127
01/20/2014  22:51:00     -135.109      -57.756      -12.608       19.274       17.955       13.992      371.476      322.369      195.784        1.132        0.044      146.936       10.117        0.005      332.422        1.074      871.127
01/20/2014  22:52:00     -119.232      -55.999      -12.177       24.052       20.574       13.689      578.515      423.303      187.399        0.934        0.059      131.727       10.623        0.007      332.410        1.054      871.121
01/20/2014  22:53:00     -100.453      -50.104      -20.530       25.108       27.133       22.297      630.396      736.193      497.151        0.744        0.093      112.255       13.448        0.014      332.345        0.948      871.116
01/20/2014  22:54:00     -121.784      -35.190      -14.998       37.420       36.594       19.339     1400.240     1339.143      374.006        0.970        0.156      126.767       22.172        0.031      332.337        0.934      871.124
01/20/2014  22:55:00      -91.935      -35.004      -12.701       29.826       30.079       18.559      889.616      904.774      344.436        0.599        0.107       98.373       10.461        0.011      332.328        0.919      871.119
01/20/2014  22:56:00     -104.613      -30.039       -5.967       26.539       30.723       20.608      704.304      943.919      424.691        0.698        0.104      108.840       14.098        0.017      332.338        0.937      871.111
01/20/2014  22:57:00     -109.473      -16.835      -15.040       22.893       28.308       17.285      524.110      801.336      298.764        0.706        0.081      110.760       13.891        0.016      332.354        0.962      871.107
01/20/2014  22:58:00     -106.134      -13.438      -13.739       30.512       30.647       20.039      930.955      939.225      401.548        0.695        0.114      106.981       13.451        0.016      332.292        0.859      871.111
01/20/2014  22:59:00     -118.274       -5.067      -19.042       26.856       23.378       12.922      721.263      546.511      166.978        0.791        0.072      118.383        6.689        0.003      332.332        0.924      871.106
01/20/2014  23:00:00     -113.370      -17.731      -19.065       21.628       16.915       15.251      467.751      286.131      232.598        0.726        0.049      114.748        8.069        0.005      332.331        0.923      871.099
01/20/2014  23:01:00     -104.346      -25.500      -15.859       35.298       22.152       20.445     1245.966      490.718      417.985        0.697        0.108      107.416       18.991        0.031      332.366        0.981      871.110
01/20/2014  23:02:00     -103.830      -37.689      -20.943       36.475       31.851       20.718     1330.394     1014.474      429.250        0.771        0.139      110.459       12.563        0.013      332.350        0.954      871.113
01/20/2014  23:03:00      -66.894      -32.909       -1.138       41.962       34.323       28.625     1760.848     1178.050      819.416        0.466        0.188       74.551       24.623        0.109      332.347        0.951      871.118
01/20/2014  23:04:00      -11.960      -52.645       -3.701       37.314       37.785       24.582     1392.318     1427.707      604.296        0.318        0.171       53.986       24.624        0.208      332.332        0.925      871.134
01/20/2014  23:05:00      -19.655      -39.639        3.185       42.656       36.491       28.713     1819.549     1331.611      824.430        0.297        0.199       44.244       23.438        0.281      332.297        0.867      871.127
01/20/2014  23:06:00      -42.037      -31.669       -7.651       46.597       33.938       28.041     2171.294     1151.773      786.292        0.347        0.205       52.631       29.147        0.307      332.285        0.848      871.114
01/20/2014  23:07:00       -8.458      -25.632       14.046       35.204       36.285       25.809     1239.332     1316.614      666.102        0.207        0.161       26.992       24.007        0.791      332.258        0.804      871.109
01/20/2014  23:08:00      -37.147      -38.893        4.744       51.368       24.607       23.601     2638.687      605.521      556.999        0.336        0.190       53.783       28.326        0.277      332.316        0.899      871.108
01/20/2014  23:09:00      -29.079      -44.884       -0.957       33.802       26.838       24.320     1142.549      720.258      591.440        0.266        0.123       53.481       19.423        0.132      332.373        0.992      871.106
01/20/2014  23:10:00       -9.245      -53.667       -9.038       31.207       33.904       22.158      973.891     1149.478      490.962        0.283        0.131       54.457       15.203        0.078      332.398        1.035      871.114
01/20/2014  23:11:00       -1.802      -55.167       -1.354       26.055       40.440       21.746      678.881     1635.374      472.908        0.292        0.139       55.197       17.953        0.106      332.414        1.059      871.113
01/20/2014  23:12:00        1.122      -86.289       -7.186       20.380       26.807       17.202      415.325      718.597      295.906        0.446        0.071       86.296       10.935        0.016      332.348        0.951      871.119
01/20/2014  23:13:00        7.282      -78.830        1.322       15.458       16.931       17.094      238.955      286.667      292.212        0.354        0.041       79.165       10.219        0.017      332.397        1.033      871.155
01/20/2014  23:14:00      -39.581      -31.042        3.517       36.787       20.550       18.668     1353.256      422.299      348.507        0.233        0.106       50.302       18.911        0.141      332.402        1.040      871.169
01/20/2014  23:15:00      -92.796      -54.544      -12.613       19.139       14.762       11.658      366.284      217.910      135.913        0.623        0.036      107.639        9.121        0.007      332.418        1.067      871.184
01/20/2014  23:16:00     -108.576      -47.223       -9.975       15.949       12.108       10.207      254.380      146.604      104.178        0.731        0.025      118.401        5.690        0.002      332.382        1.009      871.190
01/20/2014  23:17:00     -112.131      -36.651      -11.468        9.264        9.054        7.523       85.822       81.968       56.591        0.714        0.011      117.969        3.524        0.001      332.360        0.970      871.178
01/20/2014  23:18:00      -93.269      -48.400      -12.596        9.861        8.852        8.159       97.232       78.362       66.564        0.572        0.012      105.079        4.359        0.002      332.358        0.969      871.165
01/20/2014  23:19:00     -106.256      -40.966      -18.871        7.921       12.262       11.176       62.741      150.351      124.901        0.683        0.017      113.879        6.271        0.003      332.368        0.987      871.166
01/20/2014  23:20:00     -108.194      -43.051      -15.933       13.632        9.637        9.710      185.835       92.869       94.275        0.709        0.019      116.445        4.596        0.002      332.325        0.912      871.174
01/20/2014  23:21:00      -89.218      -52.554       -8.283       19.802       17.180       10.717      392.108      295.158      114.847        0.580        0.040      103.547        9.267        0.008      332.292        0.858      871.175
01/20/2014  23:22:00     -102.060      -56.369       -7.996       14.082       13.495        9.752      198.297      182.107       95.110        0.707        0.024      116.592        7.277        0.004      332.263        0.812      871.185
01/20/2014  23:23:00     -106.505      -54.824       -8.332       16.546       17.908        8.928      273.766      320.690       79.715        0.755        0.034      119.787        5.064        0.002      332.266        0.817      871.191
01/20/2014  23:24:00     -102.508      -64.626       -7.444       20.420       17.691       16.617      416.985      312.956      276.112        0.787        0.050      121.179       11.403        0.009      332.318        0.904      871.205
01/20/2014  23:25:00     -122.320      -63.289       -9.573       10.255       11.787        8.979      105.167      138.926       80.621        0.969        0.016      137.723        6.639        0.002      332.342        0.944      871.223
01/20/2014  23:26:00     -113.584      -63.414      -12.013       24.209       15.252       13.378      586.078      232.616      178.965        0.903        0.050      130.087        4.422        0.001      332.239        0.773      871.216
01/20/2014  23:27:00     -116.955      -58.245       -9.271       20.467       20.146       12.057      418.918      405.867      145.365        0.906        0.049      130.656       10.612        0.007      332.173        0.665      871.211
01/20/2014  23:28:00     -114.758      -58.390      -12.140       15.007       16.909       12.557      225.197      285.920      157.688        0.870        0.033      128.759        8.497        0.004      332.156        0.637      871.200
01/20/2014  23:29:00     -134.975      -48.478      -17.901       11.580       18.066       10.690      134.088      326.380      114.272        1.073        0.029      143.417        6.953        0.002      332.229        0.757      871.193
01/20/2014  23:30:00     -138.640      -40.856      -15.366       11.151       14.565       11.783      124.348      212.125      138.834        1.080        0.024      144.535        6.325        0.002      332.138        0.605      871.190
01/20/2014  23:31:00     -120.474      -67.692      -19.267       24.465       18.647       15.390      598.519      347.699      236.861        1.032        0.059      138.188        7.534        0.003      332.103        0.549      871.184
01/20/2014  23:32:00     -133.005      -75.918      -11.581       27.159       21.454       16.953      737.585      460.286      287.398        1.254        0.074      153.147       10.776        0.005      332.069        0.491      871.188
01/20/2014  23:33:00     -128.830      -82.659      -11.771       28.625       21.975       17.046      819.381      482.917      290.581        1.258        0.080      153.067       10.183        0.004      332.122        0.579      871.188
01/20/2014  23:34:00     -132.028      -39.008      -12.389       25.134       30.630       13.956      631.734      938.220      194.760        1.044        0.088      137.670       12.983        0.009      332.066        0.488      871.178
01/20/2014  23:35:00     -136.646      -54.922       -9.675       31.734       25.817       17.992     1007.075      666.523      323.721        1.189        0.100      147.270       18.473        0.016      332.139        0.607      871.171
01/20/2014  23:36:00     -141.579      -64.073       -3.275       31.263       29.278       20.352      977.344      857.174      414.223        1.320        0.112      155.403       16.613        0.011      332.186        0.686      871.165
01/20/2014  23:37:00     -142.592      -64.768       -2.838       29.686       28.501       20.713      881.259      812.281      429.044        1.333        0.106      156.612       18.560        0.014      332.209        0.724      871.167
01/20/2014  23:38:00     -132.972      -59.349        0.362       38.134       27.148       16.246     1454.184      737.000      263.943        1.183        0.123      145.615       14.680        0.010      332.187        0.687      871.180
01/20/2014  23:39:00     -139.241      -61.545       -0.384       27.571       26.948       17.964      760.153      726.210      322.688        1.249        0.090      152.236       12.367        0.007      332.221        0.743      871.195
01/20/2014  23:40:00     -133.659      -74.221        1.450       34.638       31.467       20.230     1199.782      990.155      409.251        1.299        0.130      152.884       20.154        0.017      332.299        0.873      871.220
01/20/2014  23:41:00     -130.519      -43.595       -4.239       37.147       26.858       19.376     1379.871      721.369      375.448        1.071        0.124      137.607       20.415        0.022      332.297        0.869      871.239
01/20/2014  23:42:00     -144.984      -55.119       -5.787       19.150       19.112       13.021      366.714      365.263      169.544        1.250        0.045      155.108       10.392        0.004      332.257        0.802      871.250
01/20/2014  23:43:00      -99.969      -43.181        4.470       44.817       31.657       21.903     2008.532     1002.146      479.763        0.768        0.175      108.896       21.229        0.038      332.232        0.761      871.268
01/20/2014  23:44:00      -98.620      -42.798       -2.168       29.476       25.836       13.894      868.813      667.505      193.030        0.665        0.086      107.506       13.924        0.017      332.271        0.825      871.276
01/20/2014  23:45:00      -97.129      -30.579       -0.608       30.223       24.361       13.118      913.402      593.453      172.073        0.602        0.084      101.829       14.284        0.020      332.274        0.829      871.265
01/20/2014  23:46:00     -119.816      -37.062       -9.139       17.483       15.682       11.467      305.640      245.936      131.486        0.825        0.034      125.418        7.775        0.004      332.243        0.780      871.259
01/20/2014  23:47:00     -108.554      -43.814      -13.917       17.337       17.699        9.939      300.572      313.245       98.774        0.730        0.036      117.063        3.401        0.001      332.139        0.607      871.260
01/20/2014  23:48:00      -77.252      -41.051       -4.668       22.487       21.536       13.817      505.644      463.812      190.916        0.442        0.058       87.482        7.742        0.008      331.998        0.375      871.271
01/20/2014  23:49:00      -71.133      -47.751       -2.833       26.386       19.652       16.734      696.211      386.216      280.023        0.435        0.068       85.674        7.608        0.008      332.023        0.416      871.266
01/20/2014  23:50:00      -71.163      -47.953        4.967       40.614       30.205       21.226     1649.472      912.342      450.548        0.520        0.151       85.812       15.246        0.032      332.066        0.487      871.259
01/20/2014  23:51:00      -99.985      -58.952       -6.845       47.368       29.417       24.837     2243.760      865.380      616.874        0.862        0.186      116.070       28.243        0.059      331.998        0.375      871.243
01/20/2014  23:52:00     -118.163      -39.990       -9.081       21.601       20.647       15.782      466.613      426.283      249.072        0.839        0.057      124.747       13.428        0.012      331.965        0.320      871.212
01/20/2014  23:53:00      -61.635      -32.530        6.744       37.528       24.909       17.310     1408.371      620.468      299.651        0.362        0.116       69.693       14.283        0.042      331.996        0.371      871.196
01/20/2014  23:54:00      -75.478      -50.202        0.009       34.966       21.339       17.990     1222.638      455.342      323.658        0.511        0.100       90.648       13.698        0.023      332.098        0.539      871.195
01/20/2014  23:55:00     -130.380      -45.700       -8.523       19.550       23.041       15.270      382.191      530.883      233.159        1.015        0.057      138.157       12.309        0.008      332.001        0.380      871.172
01/20/2014  23:56:00     -123.028      -36.489      -11.779       20.926       18.651       15.027      437.900      347.866      225.798        0.881        0.051      128.325       13.081        0.010      332.057        0.473      871.142
01/20/2014  23:57:00     -133.529      -51.356      -10.741       17.152       18.254       14.528      294.203      333.195      211.077        1.071        0.042      143.064        9.504        0.004      332.142        0.613      871.121
01/20/2014  23:58:00      -99.933      -39.625        5.401       32.375       26.311       15.793     1048.163      692.247      249.404        0.679        0.099      107.502       17.415        0.026      332.042        0.447      871.105
01/20/2014  23:59:00     -120.336      -48.867      -10.360       11.901       13.973       10.529      141.626      195.246      110.856        0.871        0.022      129.880        3.818        0.001      331.993        0.365      871.091
